W61593 / HA-LPT 7700 Squawk Report (15th of October, 2018)

Aircraft A320 Reg No. HA-LPT Age 9 years old
Model A320 Jet engines 2 First flight 12-02-09
Registered 27-02-09 Rollout 02-09 Delivered 27-02-09
Construction No. 3807 Line No. N/A Series 232
ADSHEX 471EA5 Airline name Wizz Air Owner N/A
Airfield based Budapest-Ferihegy~ ~HA First tracked 2011-04-01 15:27:03

Flight history for HA-LPT

Route Flight No Date Playback
Ferihegy (BUD) - Luton (LTN) W62207 2018-11-14 15:56:00
Eleftherios Venizelos Intl (ATH) - Ferihegy (BUD) W62442 2018-11-14 14:04:00
Ferihegy (BUD) - Eleftherios Venizelos Intl (ATH) W62441 2018-11-14 11:50:00
Malpensa (MXP) - Ferihegy (BUD) W62336 2018-11-13 22:54:00
Ferihegy (BUD) - Malpensa (MXP) W62335 2018-11-13 20:48:00
Eindhoven (EIN) - Ferihegy (BUD) W62274 2018-11-13 18:36:00
Ferihegy (BUD) - Eindhoven (EIN) W62273 2018-11-13 16:09:00
Sola (SVG) - Ferihegy (BUD) W62422 2018-11-12 22:51:00
Sarajevo (SJJ) - Ferihegy (BUD) W62238 2018-11-12 20:49:00
Ovda (VDA) - Ferihegy (BUD) W62228 2018-11-12 17:19:00
Ferihegy (BUD) - Ovda (VDA) W62227 2018-11-12 11:23:00
Heydar Aliyev (GYD) - Ferihegy (BUD) W62500 2018-11-12 08:19:00
Ferihegy (BUD) - Heydar Aliyev (GYD) W62499 2018-11-12 04:04:00
Eindhoven (EIN) - Ferihegy (BUD) W62274 2018-11-11 18:20:00
Ferihegy (BUD) - Eindhoven (EIN) W62273 2018-11-11 16:11:00
Schonefeld (SXF) - Ferihegy (BUD) W62316 2018-11-11 14:13:00
Ferihegy (BUD) - Schonefeld (SXF) W62315 2018-11-11 11:02:00
Warsaw Chopin (WAW) - Ferihegy (BUD) W62468 2018-11-11 06:39:00
Ben Gurion (TLV) - Warsaw Chopin (WAW) W61560 2018-11-10 22:09:00
Warsaw Chopin (WAW) - Ben Gurion (TLV) W61559 2018-11-10 18:31:00
Time Lat Lon Altitude Heading Speed Vertical Rate
2018-10-16 01:08:50 GMT 38.770184 -9.135895 0 258 10 0
2018-10-16 01:08:36 GMT 38.770367 -9.135284 0 239 8 0
2018-10-16 01:08:26 GMT 38.770798 -9.135269 0 126 12 0
2018-10-16 01:08:17 GMT 38.771008 -9.134750 0 233 12 0
2018-10-16 01:08:10 GMT 38.771320 -9.134583 0 168 11 0
2018-10-16 01:07:59 GMT 38.771797 -9.134705 0 168 14 0
2018-10-16 01:07:43 GMT 38.772743 -9.134995 0 168 13 0
2018-10-16 01:07:17 GMT 38.772629 -9.137057 0 78 14 0
2018-10-16 01:07:08 GMT 38.772503 -9.137804 0 78 15 0
2018-10-16 01:07:02 GMT 38.772415 -9.138336 0 92 14 0
2018-10-16 01:06:38 GMT 38.773716 -9.138968 0 177 24 0
2018-10-16 01:06:18 GMT 38.776058 -9.138733 0 199 27 0
2018-10-16 01:06:13 GMT 38.776680 -9.138416 0 202 35 0
2018-10-16 01:05:51 GMT 38.783306 -9.134878 0 202 110 0
2018-10-16 01:05:42 GMT 38.786922 -9.132923 0 202 135 0
2018-10-16 01:05:31 GMT 38.793091 -9.129639 450 203 138 -704
2018-10-16 01:05:22 GMT 38.799477 -9.126221 600 203 141 -640
2018-10-16 01:05:11 GMT 38.805771 -9.122892 700 204 141 -768
2018-10-16 01:05:04 GMT 38.809669 -9.120728 800 203 142 -704
2018-10-16 01:05:01 GMT 38.811447 -9.119787 850 203 141 -768
2018-10-16 01:04:54 GMT 38.815720 -9.117493 925 203 142 -768
2018-10-16 01:04:51 GMT 38.817863 -9.116394 975 203 143 -768
2018-10-16 01:04:44 GMT 38.821884 -9.114234 1,050 203 143 -768
2018-10-16 01:04:40 GMT 38.823807 -9.113159 1,100 203 143 -768
2018-10-16 01:04:36 GMT 38.827057 -9.111428 1,175 203 143 -768
2018-10-16 01:04:30 GMT 38.830711 -9.109497 1,225 203 143 -768
2018-10-16 01:04:23 GMT 38.835178 -9.107117 1,325 203 144 -704
2018-10-16 01:04:19 GMT 38.836899 -9.106173 1,375 203 144 -768
2018-10-16 01:04:15 GMT 38.840580 -9.104248 1,425 203 144 -768
2018-10-16 01:04:10 GMT 38.843079 -9.102830 1,475 203 144 -768
2018-10-16 01:04:04 GMT 38.846397 -9.101074 1,550 203 146 -896
2018-10-16 01:03:59 GMT 38.850357 -9.098949 1,625 203 147 -896
2018-10-16 01:03:53 GMT 38.853893 -9.097107 1,700 203 148 -896
2018-10-16 01:03:48 GMT 38.856220 -9.095825 1,825 204 149 -704
2018-10-16 01:03:44 GMT 38.859192 -9.094232 1,875 203 151 -704
2018-10-16 01:03:39 GMT 38.862087 -9.092651 1,925 203 151 -832
2018-10-16 01:03:36 GMT 38.864975 -9.091064 1,950 203 155 -896
2018-10-16 01:03:33 GMT 38.866104 -9.090470 2,075 203 156 -832
2018-10-16 01:03:28 GMT 38.869720 -9.088559 2,050 203 153 -832
2018-10-16 01:03:23 GMT 38.872925 -9.086888 2,100 203 155 -896
2018-10-16 01:03:18 GMT 38.876053 -9.085205 2,175 203 155 -832
2018-10-16 01:03:14 GMT 38.879452 -9.083374 2,250 204 155 -832
2018-10-16 01:03:07 GMT 38.883270 -9.081335 2,325 203 155 -768
2018-10-16 01:03:02 GMT 38.886520 -9.079543 2,400 203 155 -832
2018-10-16 01:02:58 GMT 38.890228 -9.077573 2,475 203 155 -832
2018-10-16 01:02:54 GMT 38.892159 -9.076538 2,600 203 156 -832
2018-10-16 01:02:46 GMT 38.897141 -9.073871 2,600 203 156 -832
2018-10-16 01:02:43 GMT 38.899704 -9.072438 2,675 203 156 -832
2018-10-16 01:02:40 GMT 38.901283 -9.071594 2,750 203 156 -768
2018-10-16 01:02:35 GMT 38.904510 -9.069871 2,775 203 156 -768
2018-10-16 01:02:32 GMT 38.906387 -9.068856 2,800 203 156 -704
2018-10-16 01:02:27 GMT 38.909912 -9.067005 2,875 203 155 -832
2018-10-16 01:02:22 GMT 38.913666 -9.064975 2,925 203 155 -832
2018-10-16 01:02:18 GMT 38.915405 -9.064019 2,975 203 156 -832
2018-10-16 01:02:15 GMT 38.917831 -9.062706 3,000 203 156 -832
2018-10-16 01:02:12 GMT 38.920094 -9.061523 3,075 203 156 -832
2018-10-16 01:02:08 GMT 38.922279 -9.060364 3,125 203 158 -896
2018-10-16 01:02:05 GMT 38.924561 -9.059123 3,150 203 158 -896
2018-10-16 01:02:02 GMT 38.926987 -9.057810 3,225 203 159 -896
2018-10-16 01:01:59 GMT 38.928314 -9.057153 3,250 203 159 -896
2018-10-16 01:01:56 GMT 38.931061 -9.055660 3,300 203 159 -960
2018-10-16 01:01:51 GMT 38.933685 -9.054260 3,350 203 160 -1024
2018-10-16 01:01:48 GMT 38.935871 -9.053040 3,425 203 160 -1024
2018-10-16 01:01:45 GMT 38.938110 -9.051898 3,525 203 161 -1024
2018-10-16 01:01:42 GMT 38.940434 -9.050598 3,550 203 161 -1024
2018-10-16 01:01:38 GMT 38.943230 -9.049072 3,600 204 162 -1024
2018-10-16 01:01:35 GMT 38.945137 -9.048035 3,650 204 161 -1024
2018-10-16 01:01:31 GMT 38.947605 -9.046631 3,675 204 161 -1024
2018-10-16 01:01:28 GMT 38.950119 -9.045227 3,775 205 161 -832
2018-10-16 01:01:24 GMT 38.952118 -9.044077 3,850 206 161 -768
2018-10-16 01:01:20 GMT 38.955460 -9.042047 3,850 206 161 -768
2018-10-16 01:01:17 GMT 38.957474 -9.040833 3,900 207 160 -640
2018-10-16 01:01:14 GMT 38.959335 -9.039612 3,950 208 160 -576
2018-10-16 01:01:10 GMT 38.961990 -9.037903 3,975 209 159 -576
2018-10-16 01:01:07 GMT 38.964111 -9.036434 4,000 210 160 -640
2018-10-16 01:01:04 GMT 38.965900 -9.035156 4,025 211 159 -640
2018-10-16 01:01:01 GMT 38.970367 -9.031738 4,075 213 160 -640
2018-10-16 01:00:58 GMT 38.970367 -9.031738 4,125 214 159 -640
2018-10-16 01:00:53 GMT 38.972557 -9.029846 4,150 216 159 -640
2018-10-16 01:00:50 GMT 38.974594 -9.027896 4,175 219 159 -512
2018-10-16 01:00:47 GMT 38.976280 -9.026123 4,200 222 159 -512
2018-10-16 01:00:43 GMT 38.978394 -9.023716 4,250 223 161 -512
2018-10-16 01:00:40 GMT 38.980049 -9.021790 4,275 223 162 -512
2018-10-16 01:00:37 GMT 38.982925 -9.018462 4,300 223 164 -576
2018-10-16 01:00:33 GMT 38.983635 -9.017639 4,350 222 167 -576
2018-10-16 01:00:30 GMT 38.985962 -9.014954 4,350 222 167 -576
2018-10-16 01:00:23 GMT 38.989735 -9.010681 4,400 222 172 -256
2018-10-16 01:00:19 GMT 38.992035 -9.008073 4,425 222 176 -256
2018-10-16 01:00:16 GMT 38.994156 -9.005676 4,450 222 179 -192
2018-10-16 01:00:10 GMT 38.998440 -9.000854 4,450 222 187 128
2018-10-16 01:00:07 GMT 39.000534 -8.998535 4,450 222 191 384
2018-10-16 01:00:03 GMT 39.002701 -8.996131 4,425 222 196 448
2018-10-16 00:59:59 GMT 39.005173 -8.993325 4,400 222 205 -192
2018-10-16 00:59:56 GMT 39.007141 -8.991115 4,375 222 204 -64
2018-10-16 00:59:52 GMT 39.010025 -8.987891 4,400 222 209 -256
2018-10-16 00:59:49 GMT 39.012825 -8.984802 4,425 222 209 -320
2018-10-16 00:59:45 GMT 39.015430 -8.981812 4,425 222 212 -320
2018-10-16 00:59:42 GMT 39.017670 -8.979353 4,450 222 216 -384
2018-10-16 00:59:39 GMT 39.020096 -8.976666 4,475 222 217 -384
2018-10-16 00:59:35 GMT 39.022648 -8.973755 4,475 221 218 -384
2018-10-16 00:59:32 GMT 39.025810 -8.970276 4,500 222 221 -320
2018-10-16 00:59:28 GMT 39.028278 -8.967468 4,525 222 224 -320
2018-10-16 00:59:25 GMT 39.030792 -8.964661 4,525 221 227 -384
2018-10-16 00:59:22 GMT 39.033508 -8.961679 4,550 222 229 -384
2018-10-16 00:59:18 GMT 39.036194 -8.958618 4,575 221 231 -384
2018-10-16 00:59:14 GMT 39.039505 -8.954932 4,600 222 234 -512
2018-10-16 00:59:10 GMT 39.043167 -8.950812 4,650 222 237 -512
2018-10-16 00:59:06 GMT 39.046715 -8.946899 4,675 222 238 -512
2018-10-16 00:58:58 GMT 39.052826 -8.940065 4,750 222 244 -512
2018-10-16 00:58:55 GMT 39.055000 -8.937622 4,750 222 245 -512
2018-10-16 00:58:51 GMT 39.059372 -8.932721 4,800 222 248 -576
2018-10-16 00:58:48 GMT 39.064545 -8.926929 4,825 222 249 -704
2018-10-16 00:58:45 GMT 39.064545 -8.926929 4,875 222 250 -768
2018-10-16 00:58:38 GMT 39.070587 -8.920182 4,950 222 254 -832
2018-10-16 00:58:34 GMT 39.073620 -8.916809 4,975 222 255 -832
2018-10-16 00:58:30 GMT 39.077042 -8.912957 5,050 222 257 -832
2018-10-16 00:58:27 GMT 39.080109 -8.909494 5,100 222 260 -768
2018-10-16 00:58:24 GMT 39.082809 -8.906449 5,200 222 260 -768
2018-10-16 00:58:17 GMT 39.088844 -8.899719 5,200 222 264 -768
2018-10-16 00:58:14 GMT 39.092194 -8.895940 5,225 222 265 -768
2018-10-16 00:58:10 GMT 39.096989 -8.890625 5,350 222 269 -832
2018-10-16 00:58:07 GMT 39.100994 -8.886108 5,400 221 271 -768
2018-10-16 00:57:57 GMT 39.109558 -8.876587 5,500 221 275 -704
2018-10-16 00:57:49 GMT 39.115540 -8.869967 5,575 221 279 -832
2018-10-16 00:57:46 GMT 39.120987 -8.863877 5,625 221 282 -960
2018-10-16 00:57:36 GMT 39.127949 -8.856079 5,775 222 284 -1472
2018-10-16 00:57:33 GMT 39.131111 -8.852539 5,850 222 284 -1600
2018-10-16 00:57:27 GMT 39.137444 -8.845398 6,000 222 284 -1664
2018-10-16 00:57:24 GMT 39.141495 -8.840830 6,150 222 285 -1344
2018-10-16 00:57:16 GMT 39.148270 -8.833247 6,300 222 286 -1152
2018-10-16 00:57:13 GMT 39.151035 -8.830139 6,350 222 288 -1216
2018-10-16 00:57:07 GMT 39.156578 -8.823792 6,550 222 289 -1536
2018-10-16 00:57:03 GMT 39.161278 -8.818481 6,575 222 289 -1536
2018-10-16 00:56:56 GMT 39.169006 -8.809692 6,750 222 291 -1344
2018-10-16 00:56:53 GMT 39.171799 -8.806458 6,825 222 291 -1344
2018-10-16 00:56:45 GMT 39.179619 -8.797729 6,975 221 292 -1600
2018-10-16 00:56:42 GMT 39.182236 -8.794794 7,075 221 292 -1600
2018-10-16 00:56:35 GMT 39.189861 -8.786255 7,275 222 294 -1280
2018-10-16 00:56:32 GMT 39.193222 -8.782554 7,325 222 294 -1088
2018-10-16 00:56:26 GMT 39.202663 -8.771973 7,450 222 298 -768
2018-10-16 00:56:23 GMT 39.202663 -8.771973 7,475 222 299 -768
2018-10-16 00:56:15 GMT 39.210438 -8.763245 7,575 222 304 -1024
2018-10-16 00:56:12 GMT 39.213417 -8.759888 7,625 222 305 -1344
2018-10-16 00:56:09 GMT 39.216118 -8.756836 7,650 222 305 -1536
2018-10-16 00:56:04 GMT 39.222496 -8.749695 7,750 222 305 -1664
2018-10-16 00:56:01 GMT 39.225430 -8.746399 7,850 222 305 -1728
2018-10-16 00:55:56 GMT 39.230621 -8.740520 8,025 222 305 -1728
2018-10-16 00:55:53 GMT 39.233574 -8.737183 8,100 222 305 -1600
2018-10-16 00:55:50 GMT 39.236088 -8.734314 8,200 222 306 -1344
2018-10-16 00:55:46 GMT 39.241699 -8.727921 8,300 222 306 -1344
2018-10-16 00:55:43 GMT 39.244217 -8.725055 8,350 222 306 -1408
2018-10-16 00:55:40 GMT 39.247398 -8.721436 8,425 222 307 -1472
2018-10-16 00:55:34 GMT 39.255341 -8.712397 8,650 222 307 -1920
2018-10-16 00:55:31 GMT 39.257172 -8.710367 8,675 222 306 -1920
2018-10-16 00:55:23 GMT 39.266052 -8.700276 8,925 222 305 -1984
2018-10-16 00:55:19 GMT 39.269653 -8.696228 8,975 222 305 -1920
2018-10-16 00:55:15 GMT 39.274403 -8.690796 9,175 222 304 -1792
2018-10-16 00:55:12 GMT 39.277084 -8.687738 9,250 222 304 -1664
2018-10-16 00:55:09 GMT 39.281151 -8.683105 9,350 222 305 -1472
2018-10-16 00:55:05 GMT 39.285248 -8.678528 9,450 222 305 -1472
2018-10-16 00:54:58 GMT 39.292740 -8.670064 9,600 222 306 -1408
2018-10-16 00:54:52 GMT 39.298187 -8.663879 9,675 222 308 -1216
2018-10-16 00:54:48 GMT 39.302582 -8.658898 9,800 222 310 -960
2018-10-16 00:54:42 GMT 39.309540 -8.651077 9,900 222 316 -896
2018-10-16 00:54:39 GMT 39.312561 -8.647673 10,100 222 318 -832
2018-10-16 00:54:32 GMT 39.320160 -8.639195 10,025 222 320 -832
2018-10-16 00:54:28 GMT 39.323933 -8.634888 10,100 222 323 -832
2018-10-16 00:54:24 GMT 39.330002 -8.628149 10,150 222 325 -832
2018-10-16 00:54:20 GMT 39.333847 -8.623779 10,175 222 328 -832
2018-10-16 00:54:17 GMT 39.337944 -8.619141 10,225 222 329 -832
2018-10-16 00:54:11 GMT 39.344376 -8.611908 10,300 222 332 -832
2018-10-16 00:54:08 GMT 39.348358 -8.607430 10,350 222 335 -960
2018-10-16 00:54:03 GMT 39.354080 -8.600981 10,425 222 337 -1216
2018-10-16 00:54:00 GMT 39.357079 -8.597595 10,475 222 338 -1536
2018-10-16 00:53:57 GMT 39.361034 -8.593079 10,525 222 338 -1600
2018-10-16 00:53:53 GMT 39.365387 -8.588204 10,700 222 340 -1664
2018-10-16 00:53:50 GMT 39.369370 -8.583666 10,700 222 340 -1664
2018-10-16 00:53:47 GMT 39.371696 -8.581055 10,800 222 341 -1728
2018-10-16 00:53:41 GMT 39.380081 -8.571605 11,000 222 342 -1792
2018-10-16 00:53:37 GMT 39.384430 -8.566709 11,100 222 342 -1792
2018-10-16 00:53:30 GMT 39.392075 -8.558051 11,250 222 344 -1536
2018-10-16 00:53:27 GMT 39.396469 -8.553155 11,375 222 345 -1408
2018-10-16 00:53:20 GMT 39.404423 -8.544128 11,575 222 349 -1664
2018-10-16 00:53:17 GMT 39.408508 -8.539422 11,600 222 349 -1664
2018-10-16 00:53:11 GMT 39.418762 -8.527660 11,825 222 349 -2624
2018-10-16 00:53:06 GMT 39.420853 -8.525208 11,950 222 347 -2752
2018-10-16 00:53:00 GMT 39.428814 -8.515991 12,225 222 345 -2624
2018-10-16 00:52:56 GMT 39.433144 -8.511047 12,400 222 344 -2432
2018-10-16 00:52:50 GMT 39.441292 -8.501709 12,650 222 343 -2176
2018-10-16 00:52:46 GMT 39.446503 -8.495716 12,775 222 343 -2048
2018-10-16 00:52:41 GMT 39.456299 -8.484550 12,950 222 344 -1792
2018-10-16 00:52:35 GMT 39.458096 -8.482544 13,075 222 345 -1856
2018-10-16 00:52:30 GMT 39.466507 -8.472907 13,300 222 346 -1984
2018-10-16 00:52:24 GMT 39.470898 -8.467896 13,425 222 346 -2048
2018-10-16 00:52:18 GMT 39.479603 -8.458008 13,650 222 346 -1920
2018-10-16 00:52:15 GMT 39.482666 -8.454517 13,725 222 346 -1856
2018-10-16 00:52:10 GMT 39.488308 -8.448120 13,900 222 347 -1600
2018-10-16 00:52:07 GMT 39.491959 -8.444008 13,950 222 348 -1536
2018-10-16 00:52:04 GMT 39.495850 -8.439649 14,025 222 349 -1472
2018-10-16 00:51:58 GMT 39.504414 -8.429932 14,175 222 352 -1216
2018-10-16 00:51:54 GMT 39.508072 -8.425737 14,250 222 353 -1216
2018-10-16 00:51:50 GMT 39.513260 -8.419800 14,375 222 355 -1408
2018-10-16 00:51:47 GMT 39.517273 -8.415289 14,375 222 355 -1408
2018-10-16 00:51:44 GMT 39.520935 -8.411109 14,475 222 357 -1472
2018-10-16 00:51:39 GMT 39.526794 -8.404481 14,625 222 359 -1728
2018-10-16 00:51:33 GMT 39.534256 -8.396003 14,750 222 360 -1728
2018-10-16 00:51:29 GMT 39.539337 -8.390211 14,850 222 362 -1408
2018-10-16 00:51:26 GMT 39.543915 -8.385016 14,950 222 363 -1344
2018-10-16 00:51:23 GMT 39.546032 -8.382568 14,950 222 363 -1344
2018-10-16 00:51:17 GMT 39.555130 -8.372179 15,100 222 366 -1472
2018-10-16 00:51:12 GMT 39.559811 -8.366821 15,225 222 367 -1664
2018-10-16 00:51:08 GMT 39.566666 -8.359043 15,500 222 370 -1472
2018-10-16 00:51:02 GMT 39.572937 -8.351878 15,500 222 371 -1472
2018-10-16 00:50:57 GMT 39.580948 -8.342834 15,625 222 372 -1408
2018-10-16 00:50:54 GMT 39.584019 -8.339355 15,675 222 374 -1088
2018-10-16 00:50:50 GMT 39.590424 -8.332055 15,800 222 376 -1024
2018-10-16 00:50:46 GMT 39.595734 -8.326025 15,850 222 379 -1152
2018-10-16 00:50:40 GMT 39.602737 -8.317964 15,950 222 383 -1728
2018-10-16 00:50:35 GMT 39.609558 -8.310262 16,100 222 383 -1856
2018-10-16 00:50:31 GMT 39.622925 -8.294976 16,250 222 383 -2112
2018-10-16 00:50:26 GMT 39.622925 -8.294976 16,425 222 384 -1984
2018-10-16 00:50:21 GMT 39.627453 -8.289734 16,675 222 385 -1984
2018-10-16 00:50:17 GMT 39.633133 -8.283203 16,675 222 385 -1984
2018-10-16 00:50:14 GMT 39.639278 -8.276184 16,800 222 385 -1984
2018-10-16 00:50:11 GMT 39.640812 -8.274414 16,850 222 385 -2048
2018-10-16 00:50:06 GMT 39.648170 -8.265930 17,050 222 385 -2112
2018-10-16 00:50:03 GMT 39.651333 -8.262329 17,125 222 386 -2112
2018-10-16 00:50:00 GMT 39.654739 -8.258375 17,200 222 386 -2112
2018-10-16 00:49:56 GMT 39.660736 -8.251449 17,375 222 387 -1920
2018-10-16 00:49:53 GMT 39.665859 -8.245544 17,475 222 388 -1728
2018-10-16 00:49:48 GMT 39.672501 -8.237955 17,550 222 388 -1728
2018-10-16 00:49:44 GMT 39.676472 -8.233337 17,650 222 388 -2176
2018-10-16 00:49:40 GMT 39.681965 -8.227051 17,875 222 389 -1792
2018-10-16 00:49:36 GMT 39.688293 -8.219804 18,025 222 389 -1856
2018-10-16 00:49:33 GMT 39.693184 -8.214172 18,125 222 391 -1728
2018-10-16 00:49:30 GMT 39.696072 -8.210876 18,325 222 391 -1536
2018-10-16 00:49:24 GMT 39.710270 -8.194641 18,375 222 394 -1344
2018-10-16 00:49:19 GMT 39.710270 -8.194641 18,550 222 396 -1344
2018-10-16 00:49:16 GMT 39.715576 -8.188599 18,500 222 398 -1408
2018-10-16 00:49:12 GMT 39.719952 -8.183533 18,550 222 398 -1536
2018-10-16 00:49:09 GMT 39.725510 -8.177172 19,250 222 398 -2432
2018-10-16 00:49:05 GMT 39.731823 -8.169922 18,850 222 399 -2496
2018-10-16 00:49:02 GMT 39.735035 -8.166260 18,925 222 398 -2560
2018-10-16 00:48:59 GMT 39.738293 -8.162476 19,250 222 398 -2432
2018-10-16 00:48:54 GMT 39.747326 -8.152100 19,275 222 398 -1792
2018-10-16 00:48:49 GMT 39.752975 -8.145586 19,400 222 400 -1600
2018-10-16 00:48:42 GMT 39.763618 -8.133301 19,600 222 401 -1728
2018-10-16 00:48:38 GMT 39.767441 -8.128927 19,675 222 402 -1920
2018-10-16 00:48:34 GMT 39.772751 -8.122718 19,800 222 402 -2112
2018-10-16 00:48:31 GMT 39.777832 -8.116866 19,925 222 402 -2240
2018-10-16 00:48:27 GMT 39.781914 -8.112122 20,025 222 402 -2304
2018-10-16 00:48:23 GMT 39.788757 -8.104187 20,150 222 402 -2368
2018-10-16 00:48:20 GMT 39.792343 -8.100088 20,325 222 401 -2368
2018-10-16 00:48:17 GMT 39.796188 -8.095670 20,425 222 402 -2368
2018-10-16 00:48:13 GMT 39.803009 -8.087788 21,775 222 403 -2048
2018-10-16 00:48:10 GMT 39.806587 -8.083679 20,675 222 403 -2048
2018-10-16 00:48:07 GMT 39.810402 -8.079285 20,775 222 403 -2048
2018-10-16 00:48:03 GMT 39.815781 -8.073100 20,900 222 403 -2048
2018-10-16 00:48:00 GMT 39.819946 -8.068237 21,000 222 403 -1984
2018-10-16 00:47:57 GMT 39.824707 -8.062771 21,125 222 403 -1984
2018-10-16 00:47:53 GMT 39.829147 -8.057636 21,250 222 404 -1920
2018-10-16 00:47:50 GMT 39.834518 -8.051453 21,325 222 405 -1920
2018-10-16 00:47:44 GMT 39.845306 -8.039007 21,550 222 407 -1536
2018-10-16 00:47:40 GMT 39.848648 -8.035185 21,625 222 408 -1472
2018-10-16 00:47:36 GMT 39.853775 -8.029274 21,700 222 410 -1344
2018-10-16 00:47:32 GMT 39.860733 -8.021273 21,800 222 412 -1280
2018-10-16 00:47:29 GMT 39.863194 -8.018433 21,850 222 412 -1344
2018-10-16 00:47:26 GMT 39.868011 -8.012855 21,925 222 415 -1472
2018-10-16 00:47:22 GMT 39.874466 -8.005451 22,025 222 416 -1664
2018-10-16 00:47:19 GMT 39.878494 -8.000793 22,100 222 417 -1792
2018-10-16 00:47:16 GMT 39.882744 -7.995850 22,175 222 417 -1856
2018-10-16 00:47:13 GMT 39.887741 -7.990106 22,325 222 418 -1984
2018-10-16 00:47:10 GMT 39.893871 -7.982971 22,425 222 419 -1984
2018-10-16 00:47:03 GMT 39.904903 -7.970154 22,625 222 420 -2048
2018-10-16 00:46:59 GMT 39.907471 -7.967178 22,725 222 420 -2112
2018-10-16 00:46:55 GMT 39.912769 -7.961060 22,850 222 420 -2176
2018-10-16 00:46:49 GMT 39.922081 -7.950256 23,075 222 421 -2304
2018-10-16 00:46:44 GMT 39.928253 -7.943115 23,225 222 421 -2304
2018-10-16 00:46:41 GMT 39.933811 -7.936623 23,375 222 421 -2304
2018-10-16 00:46:38 GMT 39.936951 -7.932983 23,450 222 421 -2304
2018-10-16 00:46:34 GMT 39.942810 -7.926147 23,600 222 421 -2240
2018-10-16 00:46:31 GMT 39.951828 -7.915712 23,825 222 422 -2176
2018-10-16 00:46:24 GMT 39.958008 -7.908508 23,975 222 422 -2112
2018-10-16 00:46:21 GMT 39.962395 -7.903477 24,100 222 422 -2112
2018-10-16 00:46:18 GMT 39.966751 -7.898376 24,175 222 423 -1984
2018-10-16 00:46:11 GMT 39.978550 -7.884688 24,450 222 424 -1920
2018-10-16 00:46:08 GMT 39.982319 -7.880318 24,525 222 424 -1856
2018-10-16 00:46:03 GMT 39.987953 -7.873826 24,650 222 426 -1984
2018-10-16 00:45:58 GMT 39.998520 -7.861511 24,825 222 426 -2112
2018-10-16 00:45:51 GMT 40.008671 -7.849731 25,100 222 427 -2048
2018-10-16 00:45:47 GMT 40.012814 -7.844987 25,200 222 428 -1792
2018-10-16 00:45:40 GMT 40.022598 -7.833618 25,400 222 431 -1152
2018-10-16 00:45:37 GMT 40.028000 -7.827393 25,450 222 432 -1088
2018-10-16 00:45:30 GMT 40.038555 -7.815087 25,575 222 436 -1408
2018-10-16 00:45:27 GMT 40.042698 -7.810281 25,650 222 437 -1600
2018-10-16 00:45:22 GMT 40.054569 -7.796360 25,875 222 439 -2240
2018-10-16 00:45:19 GMT 40.059128 -7.791016 25,975 222 439 -2240
2018-10-16 00:45:09 GMT 40.069794 -7.778570 26,250 222 439 -2368
2018-10-16 00:45:06 GMT 40.073639 -7.774048 26,350 222 439 -2368
2018-10-16 00:44:59 GMT 40.084969 -7.760780 26,625 222 440 -2304
2018-10-16 00:44:56 GMT 40.089157 -7.755911 26,725 222 441 -2304
2018-10-16 00:44:48 GMT 40.101791 -7.741150 27,025 222 441 -2240
2018-10-16 00:44:45 GMT 40.104984 -7.737371 27,100 222 441 -2240
2018-10-16 00:44:38 GMT 40.115707 -7.724854 27,375 222 441 -2240
2018-10-16 00:44:35 GMT 40.120255 -7.719518 27,475 222 441 -2112
2018-10-16 00:44:28 GMT 40.132263 -7.705473 27,750 222 443 -1984
2018-10-16 00:44:25 GMT 40.138092 -7.698608 27,875 222 444 -1856
2018-10-16 00:44:18 GMT 40.147629 -7.687496 28,175 222 448 -1536
2018-10-16 00:44:15 GMT 40.152832 -7.681396 28,150 222 447 -1600
2018-10-16 00:44:07 GMT 40.163082 -7.669393 28,275 222 450 -1536
2018-10-16 00:44:03 GMT 40.172699 -7.658203 28,375 222 452 -1600
2018-10-16 00:43:58 GMT 40.179062 -7.650757 28,600 222 455 -1792
2018-10-16 00:43:55 GMT 40.182678 -7.646484 28,650 222 455 -1856
2018-10-16 00:43:46 GMT 40.195816 -7.631104 28,925 222 456 -2048
2018-10-16 00:43:43 GMT 40.202820 -7.622925 29,075 222 458 -1856
2018-10-16 00:43:37 GMT 40.211563 -7.612671 29,175 222 459 -1664
2018-10-16 00:43:34 GMT 40.217606 -7.605591 29,300 222 462 -1600
2018-10-16 00:43:26 GMT 40.227139 -7.594424 29,450 222 463 -1664
2018-10-16 00:43:22 GMT 40.235703 -7.584374 29,650 223 465 -2112
2018-10-16 00:43:16 GMT 40.244247 -7.574341 29,825 222 466 -2432
2018-10-16 00:43:13 GMT 40.250061 -7.567505 29,975 222 468 -2304
2018-10-16 00:43:07 GMT 40.260654 -7.555036 30,225 222 468 -2304
2018-10-16 00:43:04 GMT 40.264069 -7.551025 30,300 222 468 -2176
2018-10-16 00:42:57 GMT 40.274761 -7.538494 30,600 222 469 -1792
2018-10-16 00:42:54 GMT 40.281281 -7.530816 30,650 222 470 -1792
2018-10-16 00:42:45 GMT 40.295712 -7.513899 30,900 223 473 -1984
2018-10-16 00:42:41 GMT 40.301056 -7.507629 31,050 223 473 -2112
2018-10-16 00:42:35 GMT 40.310760 -7.496216 31,275 222 474 -2624
2018-10-16 00:42:32 GMT 40.314938 -7.491302 31,475 223 478 -2368
2018-10-16 00:42:26 GMT 40.327457 -7.476571 31,725 223 473 -2688
2018-10-16 00:42:23 GMT 40.330261 -7.473328 31,725 223 473 -2688
2018-10-16 00:42:15 GMT 40.345150 -7.455784 32,150 223 475 -1856
2018-10-16 00:42:12 GMT 40.360886 -7.437134 33,275 223 479 -2560
2018-10-16 00:42:04 GMT 40.360886 -7.437134 32,475 223 477 -2048
2018-10-16 00:42:01 GMT 40.367821 -7.428943 32,600 223 478 -2368
2018-10-16 00:41:55 GMT 40.381897 -7.412292 32,850 223 479 -2560
2018-10-16 00:41:52 GMT 40.381897 -7.412292 33,075 223 479 -2432
2018-10-16 00:41:44 GMT 40.394440 -7.397461 33,225 223 480 -1920
2018-10-16 00:41:41 GMT 40.399979 -7.390930 33,450 223 483 -1216
2018-10-16 00:41:34 GMT 40.412430 -7.376221 33,500 223 484 -1408
2018-10-16 00:41:31 GMT 40.415634 -7.372437 33,550 223 486 -1728
2018-10-16 00:41:22 GMT 40.433456 -7.351289 33,950 223 487 -3136
2018-10-16 00:41:19 GMT 40.438477 -7.345337 34,100 223 485 -2752
2018-10-16 00:41:13 GMT 40.445934 -7.336495 34,325 223 484 -2496
2018-10-16 00:41:08 GMT 40.456879 -7.323425 34,575 223 485 -1600
2018-10-16 00:41:04 GMT 40.461548 -7.317932 34,650 223 486 -1472
2018-10-16 00:41:01 GMT 40.466858 -7.311584 34,725 223 486 -1152
2018-10-16 00:40:52 GMT 40.480663 -7.295172 34,875 223 489 -896
2018-10-16 00:40:49 GMT 40.488155 -7.286245 34,950 223 489 -640
2018-10-16 00:40:42 GMT 40.498993 -7.273376 35,025 223 490 -256
2018-10-16 00:40:37 GMT 40.508606 -7.261963 35,025 223 490 0
2018-10-16 00:40:31 GMT 40.518723 -7.250000 35,050 223 491 64
2018-10-16 00:40:26 GMT 40.526596 -7.240662 35,025 223 491 64
2018-10-16 00:40:22 GMT 40.533081 -7.232999 35,025 223 492 128
2018-10-16 00:40:17 GMT 40.541367 -7.223136 35,025 223 492 128
2018-10-16 00:40:11 GMT 40.549622 -7.213379 35,000 223 492 128
2018-10-16 00:40:07 GMT 40.560360 -7.200664 35,000 223 493 192
2018-10-16 00:40:01 GMT 40.566921 -7.192861 35,000 223 493 128
2018-10-16 00:39:57 GMT 40.575581 -7.182624 34,975 223 493 0
2018-10-16 00:39:50 GMT 40.584274 -7.172302 34,975 223 494 64
2018-10-16 00:39:47 GMT 40.590759 -7.164584 34,975 223 494 0
2018-10-16 00:39:40 GMT 40.603279 -7.149665 34,975 223 493 0
2018-10-16 00:39:36 GMT 40.609909 -7.141785 35,000 223 493 0
2018-10-16 00:39:30 GMT 40.619934 -7.129822 35,000 223 493 64
2018-10-16 00:39:27 GMT 40.626846 -7.121582 34,975 223 493 64
2018-10-16 00:39:19 GMT 40.637650 -7.108704 34,975 223 493 128
2018-10-16 00:39:16 GMT 40.643692 -7.101440 34,975 223 493 128
2018-10-16 00:39:09 GMT 40.654495 -7.088562 34,975 223 493 128
2018-10-16 00:39:06 GMT 40.661087 -7.080688 34,950 223 494 128
2018-10-16 00:38:59 GMT 40.671154 -7.068703 34,950 223 494 0
2018-10-16 00:38:56 GMT 40.678757 -7.059631 34,950 223 494 -64
2018-10-16 00:38:51 GMT 40.685909 -7.051100 34,950 223 494 0
2018-10-16 00:38:48 GMT 40.689915 -7.046356 34,950 223 494 0
2018-10-16 00:38:44 GMT 40.697456 -7.037305 34,975 223 493 0
2018-10-16 00:38:38 GMT 40.707230 -7.025696 34,975 223 493 0
2018-10-16 00:38:34 GMT 40.714783 -7.016724 34,975 223 493 -64
2018-10-16 00:38:28 GMT 40.723804 -7.006031 34,975 222 493 0
2018-10-16 00:38:25 GMT 40.731079 -6.997437 34,975 223 492 0
2018-10-16 00:38:18 GMT 40.740509 -6.986267 34,975 223 492 0
2018-10-16 00:38:14 GMT 40.749710 -6.975037 34,975 224 490 0
2018-10-16 00:38:10 GMT 40.755661 -6.967529 34,975 227 486 0
2018-10-16 00:38:07 GMT 40.758682 -6.963440 34,975 227 486 0
2018-10-16 00:38:04 GMT 40.763931 -6.956156 34,975 229 483 0
2018-10-16 00:37:57 GMT 40.774734 -6.939676 34,975 232 479 0
2018-10-16 00:37:53 GMT 40.779282 -6.932251 34,975 233 477 0
2018-10-16 00:37:46 GMT 40.787441 -6.917829 35,000 234 475 -64
2018-10-16 00:37:43 GMT 40.792969 -6.907898 35,000 234 475 -64
2018-10-16 00:37:37 GMT 40.800751 -6.893860 35,000 234 475 0
2018-10-16 00:37:33 GMT 40.806992 -6.882560 35,000 234 475 -64
2018-10-16 00:37:26 GMT 40.814022 -6.869951 35,000 234 476 -128
2018-10-16 00:37:19 GMT 40.825336 -6.849476 35,025 234 477 -192
2018-10-16 00:37:16 GMT 40.827850 -6.844982 35,050 234 476 -256
2018-10-16 00:37:12 GMT 40.833157 -6.835431 35,050 234 476 64
2018-10-16 00:37:05 GMT 40.841953 -6.819451 35,050 234 477 64
2018-10-16 00:36:59 GMT 40.849457 -6.805908 35,050 234 477 64
2018-10-16 00:36:55 GMT 40.855034 -6.795855 35,050 235 478 64
2018-10-16 00:36:51 GMT 40.860031 -6.786804 35,050 235 478 64
2018-10-16 00:36:46 GMT 40.869373 -6.769888 35,050 235 478 0
2018-10-16 00:36:41 GMT 40.873096 -6.763146 35,050 235 478 64
2018-10-16 00:36:38 GMT 40.877754 -6.754657 35,050 235 478 0
2018-10-16 00:36:35 GMT 40.880592 -6.749600 35,050 235 478 64
2018-10-16 00:36:32 GMT 40.886902 -6.738037 35,050 234 479 64
2018-10-16 00:36:27 GMT 40.894417 -6.724444 35,050 234 479 0
2018-10-16 00:36:21 GMT 40.900238 -6.713833 35,050 234 479 64
2018-10-16 00:36:16 GMT 40.905258 -6.704773 35,050 234 479 128
2018-10-16 00:36:13 GMT 40.908325 -6.699219 35,050 234 479 128
2018-10-16 00:36:10 GMT 40.913925 -6.689051 35,050 234 480 128
2018-10-16 00:36:06 GMT 40.918671 -6.680481 35,025 234 481 128
2018-10-16 00:36:00 GMT 40.928146 -6.663330 35,025 234 481 128
2018-10-16 00:35:54 GMT 40.935104 -6.650696 35,025 235 480 0
2018-10-16 00:35:51 GMT 40.940365 -6.641111 35,025 235 480 64
2018-10-16 00:35:43 GMT 40.948185 -6.626878 35,025 235 480 0
2018-10-16 00:35:39 GMT 40.955124 -6.614269 35,025 235 480 64
2018-10-16 00:35:34 GMT 40.960968 -6.603638 35,025 235 480 64
2018-10-16 00:35:26 GMT 40.973969 -6.580078 35,025 235 480 64
2018-10-16 00:35:22 GMT 40.976807 -6.574829 35,025 234 479 64
2018-10-16 00:35:19 GMT 40.981293 -6.566711 35,025 235 480 64
2018-10-16 00:35:15 GMT 40.985428 -6.559212 35,025 235 480 64
2018-10-16 00:35:12 GMT 40.987896 -6.554656 35,000 235 479 64
2018-10-16 00:35:07 GMT 40.995716 -6.540423 35,000 235 479 64
2018-10-16 00:35:03 GMT 41.002121 -6.528748 35,000 235 479 128
2018-10-16 00:34:59 GMT 41.006287 -6.521179 35,000 235 479 128
2018-10-16 00:34:54 GMT 41.012054 -6.510620 35,000 235 478 128
2018-10-16 00:34:51 GMT 41.015121 -6.505066 35,000 235 478 192
2018-10-16 00:34:48 GMT 41.019505 -6.496977 35,000 235 478 256
2018-10-16 00:34:45 GMT 41.024765 -6.487302 34,975 235 478 320
2018-10-16 00:34:41 GMT 41.028122 -6.481262 34,975 235 478 256
2018-10-16 00:34:38 GMT 41.033340 -6.471680 34,950 235 478 64
2018-10-16 00:34:34 GMT 41.038311 -6.462583 34,950 235 478 64
2018-10-16 00:34:31 GMT 41.041897 -6.456028 34,950 235 478 64
2018-10-16 00:34:28 GMT 41.046341 -6.447876 34,950 235 478 64
2018-10-16 00:34:22 GMT 41.054581 -6.432678 34,950 235 477 64
2018-10-16 00:34:17 GMT 41.059799 -6.423096 34,950 235 477 0
2018-10-16 00:34:13 GMT 41.065338 -6.412964 34,950 235 477 0
2018-10-16 00:34:08 GMT 41.073273 -6.398350 34,950 235 477 0
2018-10-16 00:34:04 GMT 41.077415 -6.390797 34,950 235 477 0
2018-10-16 00:34:00 GMT 41.082676 -6.381122 34,950 235 477 0
2018-10-16 00:33:57 GMT 41.086487 -6.374084 34,950 235 477 0
2018-10-16 00:33:53 GMT 41.091202 -6.365479 34,950 235 477 0
2018-10-16 00:33:50 GMT 41.095058 -6.358400 34,950 235 477 0
2018-10-16 00:33:47 GMT 41.098644 -6.351845 34,950 235 477 0
2018-10-16 00:33:42 GMT 41.105488 -6.339236 34,950 235 477 0
2018-10-16 00:33:39 GMT 41.108780 -6.333130 34,950 235 477 -64
2018-10-16 00:33:36 GMT 41.112656 -6.326003 34,975 235 477 -64
2018-10-16 00:33:33 GMT 41.118896 -6.314514 34,975 235 477 -64
2018-10-16 00:33:29 GMT 41.121735 -6.309326 34,975 235 477 0
2018-10-16 00:33:26 GMT 41.125854 -6.301697 34,975 235 478 -64
2018-10-16 00:33:23 GMT 41.131088 -6.292107 34,975 235 478 -64
2018-10-16 00:33:20 GMT 41.134396 -6.286052 34,975 235 478 -64
2018-10-16 00:33:16 GMT 41.138817 -6.277875 34,975 235 478 -64
2018-10-16 00:33:10 GMT 41.148422 -6.260193 35,000 235 479 0
2018-10-16 00:33:06 GMT 41.152317 -6.253031 35,000 235 479 0
2018-10-16 00:33:02 GMT 41.157021 -6.244354 35,000 235 479 0
2018-10-16 00:32:59 GMT 41.161163 -6.236739 35,000 235 479 0
2018-10-16 00:32:55 GMT 41.167236 -6.225586 35,000 235 479 0
2018-10-16 00:32:51 GMT 41.171638 -6.217513 35,000 235 480 0
2018-10-16 00:32:46 GMT 41.180714 -6.200783 35,000 235 480 64
2018-10-16 00:32:41 GMT 41.184441 -6.194042 35,000 235 481 64
2018-10-16 00:32:38 GMT 41.188583 -6.186364 35,000 235 482 64
2018-10-16 00:32:34 GMT 41.193844 -6.176751 35,000 235 482 64
2018-10-16 00:32:31 GMT 41.197769 -6.169556 35,000 235 482 0
2018-10-16 00:32:28 GMT 41.201618 -6.162456 35,000 235 482 0
2018-10-16 00:32:25 GMT 41.206650 -6.153198 35,000 235 483 64
2018-10-16 00:32:21 GMT 41.210815 -6.145508 35,000 235 483 64
2018-10-16 00:32:18 GMT 41.214478 -6.138794 35,000 235 483 64
2018-10-16 00:32:14 GMT 41.220005 -6.128561 35,000 235 483 64
2018-10-16 00:32:10 GMT 41.224503 -6.120300 35,000 235 483 64
2018-10-16 00:32:05 GMT 41.232529 -6.105465 35,000 235 483 64
2018-10-16 00:31:58 GMT 41.243328 -6.085552 35,000 235 483 128
2018-10-16 00:31:54 GMT 41.245880 -6.080872 35,000 235 483 128
2018-10-16 00:31:50 GMT 41.250916 -6.071533 35,000 235 482 64
2018-10-16 00:31:47 GMT 41.255035 -6.063782 34,975 235 481 64
2018-10-16 00:31:44 GMT 41.259155 -6.056213 35,000 235 481 64
2018-10-16 00:31:40 GMT 41.264420 -6.046387 35,000 235 481 64
2018-10-16 00:31:37 GMT 41.267719 -6.040296 35,000 235 480 64
2018-10-16 00:31:33 GMT 41.272377 -6.031619 35,000 235 479 64
2018-10-16 00:31:29 GMT 41.277878 -6.021423 35,000 235 478 128
2018-10-16 00:31:24 GMT 41.285782 -6.006588 35,000 236 474 384
2018-10-16 00:31:20 GMT 41.290009 -5.998413 34,975 238 471 64
2018-10-16 00:31:16 GMT 41.293976 -5.990171 34,950 239 469 0
2018-10-16 00:31:11 GMT 41.300858 -5.974854 34,950 240 466 0
2018-10-16 00:31:08 GMT 41.302505 -5.971069 34,950 242 465 0
2018-10-16 00:31:03 GMT 41.309509 -5.954102 34,950 242 464 64
2018-10-16 00:30:58 GMT 41.312645 -5.946662 34,950 242 464 64
2018-10-16 00:30:55 GMT 41.315948 -5.938672 34,950 242 464 64
2018-10-16 00:30:52 GMT 41.320770 -5.926941 34,950 242 464 64
2018-10-16 00:30:48 GMT 41.323399 -5.920570 34,950 242 464 64
2018-10-16 00:30:45 GMT 41.326904 -5.912109 34,950 242 464 64
2018-10-16 00:30:42 GMT 41.330845 -5.902467 34,950 242 464 64
2018-10-16 00:30:39 GMT 41.333733 -5.895476 34,950 242 464 64
2018-10-16 00:30:35 GMT 41.336571 -5.888609 34,950 242 463 0
2018-10-16 00:30:32 GMT 41.341370 -5.876892 34,950 242 463 0
2018-10-16 00:30:28 GMT 41.344440 -5.869446 34,950 242 463 0
2018-10-16 00:30:22 GMT 41.351944 -5.851257 34,950 242 464 -64
2018-10-16 00:30:18 GMT 41.354774 -5.844352 34,950 242 464 -64
2018-10-16 00:30:14 GMT 41.358730 -5.834801 34,975 242 463 0
2018-10-16 00:30:11 GMT 41.363525 -5.823120 34,975 242 463 0
2018-10-16 00:30:08 GMT 41.365063 -5.819383 34,975 242 463 0
2018-10-16 00:30:04 GMT 41.368599 -5.810831 34,975 242 463 0
2018-10-16 00:30:00 GMT 41.372742 -5.800719 34,975 242 463 0
2018-10-16 00:29:57 GMT 41.375336 -5.794312 34,975 242 463 -64
2018-10-16 00:29:54 GMT 41.379089 -5.785217 34,975 242 463 -64
2018-10-16 00:29:50 GMT 41.382797 -5.776184 34,975 242 464 0
2018-10-16 00:29:46 GMT 41.387375 -5.765013 35,000 242 464 -64
2018-10-16 00:29:43 GMT 41.389595 -5.759583 34,975 242 464 0
2018-10-16 00:29:40 GMT 41.393051 -5.751093 35,000 242 464 -64
2018-10-16 00:29:37 GMT 41.396805 -5.741979 35,000 242 464 0
2018-10-16 00:29:34 GMT 41.401791 -5.729817 35,000 242 465 0
2018-10-16 00:29:29 GMT 41.406864 -5.717362 35,000 242 465 0
2018-10-16 00:29:26 GMT 41.407982 -5.714679 35,000 242 465 0
2018-10-16 00:29:23 GMT 41.411087 -5.707148 35,000 242 465 0
2018-10-16 00:29:16 GMT 41.418549 -5.688920 35,000 242 466 0
2018-10-16 00:29:13 GMT 41.421204 -5.682487 35,000 242 467 64
2018-10-16 00:29:05 GMT 41.429352 -5.662641 35,000 242 468 0
2018-10-16 00:29:02 GMT 41.433517 -5.652403 35,000 242 468 64
2018-10-16 00:28:56 GMT 41.440567 -5.635175 35,000 242 468 0
2018-10-16 00:28:52 GMT 41.443039 -5.629182 35,000 242 468 64
2018-10-16 00:28:49 GMT 41.446064 -5.621742 35,000 242 468 64
2018-10-16 00:28:45 GMT 41.450951 -5.609798 35,000 242 468 64
2018-10-16 00:28:42 GMT 41.453606 -5.603347 35,000 242 468 64
2018-10-16 00:28:39 GMT 41.456024 -5.597470 35,000 242 468 128
2018-10-16 00:28:34 GMT 41.462635 -5.581246 35,000 242 469 128
2018-10-16 00:28:29 GMT 41.466614 -5.571504 35,000 242 470 128
2018-10-16 00:28:24 GMT 41.472134 -5.557868 34,975 242 470 128
2018-10-16 00:28:21 GMT 41.475677 -5.549219 34,975 242 471 64
2018-10-16 00:28:18 GMT 41.477440 -5.544838 34,975 242 471 64
2018-10-16 00:28:14 GMT 41.482727 -5.531741 35,000 242 470 0
2018-10-16 00:28:08 GMT 41.487354 -5.520374 35,000 242 469 0
2018-10-16 00:28:04 GMT 41.493073 -5.506335 35,000 242 468 -64
2018-10-16 00:27:58 GMT 41.498840 -5.492228 35,000 242 468 0
2018-10-16 00:27:53 GMT 41.504105 -5.479244 35,000 242 467 -64
2018-10-16 00:27:47 GMT 41.509598 -5.465823 35,000 242 467 0
2018-10-16 00:27:44 GMT 41.514683 -5.453371 35,025 242 467 0
2018-10-16 00:27:37 GMT 41.520172 -5.439893 35,025 242 467 0
2018-10-16 00:27:32 GMT 41.525711 -5.426372 35,025 242 468 -64
2018-10-16 00:27:27 GMT 41.530323 -5.414982 35,025 242 469 -128
2018-10-16 00:27:22 GMT 41.536514 -5.399843 35,025 242 471 -320
2018-10-16 00:27:17 GMT 41.541367 -5.387858 35,050 242 471 0
2018-10-16 00:27:13 GMT 41.546894 -5.374167 35,050 242 472 64
2018-10-16 00:27:06 GMT 41.551758 -5.362202 35,050 242 472 64
2018-10-16 00:27:01 GMT 41.557571 -5.347970 35,050 242 473 128
2018-10-16 00:26:57 GMT 41.561558 -5.338078 35,050 242 473 64
2018-10-16 00:26:51 GMT 41.569290 -5.318943 35,050 242 474 64
2018-10-16 00:26:46 GMT 41.572872 -5.310101 35,050 242 476 0
2018-10-16 00:26:42 GMT 41.579315 -5.294224 35,050 242 475 64
2018-10-16 00:26:36 GMT 41.584122 -5.282239 35,050 242 475 0
2018-10-16 00:26:30 GMT 41.589981 -5.267695 35,050 242 475 64
2018-10-16 00:26:26 GMT 41.593262 -5.259513 35,050 242 475 64
2018-10-16 00:26:21 GMT 41.599960 -5.242851 35,050 242 475 192
2018-10-16 00:26:17 GMT 41.603302 -5.234611 35,050 242 476 192
2018-10-16 00:26:10 GMT 41.611927 -5.213204 35,025 242 476 192
2018-10-16 00:26:05 GMT 41.615700 -5.203751 35,025 242 476 192
2018-10-16 00:26:00 GMT 41.623032 -5.185547 35,000 242 477 128
2018-10-16 00:25:55 GMT 41.626732 -5.176349 35,000 242 477 128
2018-10-16 00:25:49 GMT 41.634064 -5.158081 35,000 242 476 64
2018-10-16 00:25:45 GMT 41.635895 -5.153524 35,000 242 476 64
2018-10-16 00:25:39 GMT 41.643677 -5.134111 35,000 242 476 0
2018-10-16 00:25:35 GMT 41.646332 -5.127494 35,000 242 476 0
2018-10-16 00:25:30 GMT 41.653610 -5.109329 35,000 242 475 128
2018-10-16 00:25:23 GMT 41.659744 -5.094036 35,000 242 475 64
2018-10-16 00:25:19 GMT 41.664673 -5.081752 35,000 242 474 128
2018-10-16 00:25:15 GMT 41.667511 -5.074598 34,975 242 474 128
2018-10-16 00:25:05 GMT 41.677643 -5.049341 34,975 242 473 64
2018-10-16 00:24:58 GMT 41.686180 -5.027842 34,975 243 473 0
2018-10-16 00:24:54 GMT 41.688812 -5.021251 34,975 243 473 0
2018-10-16 00:24:48 GMT 41.696503 -5.002025 34,975 243 471 64
2018-10-16 00:24:44 GMT 41.699913 -4.993414 34,975 243 471 64
2018-10-16 00:24:38 GMT 41.706989 -4.975721 34,975 243 471 64
2018-10-16 00:24:34 GMT 41.709782 -4.968631 34,975 243 471 128
2018-10-16 00:24:27 GMT 41.717228 -4.949980 34,975 242 470 64
2018-10-16 00:24:24 GMT 41.719604 -4.944039 34,950 242 470 64
2018-10-16 00:24:18 GMT 41.727425 -4.924366 34,950 242 470 0
2018-10-16 00:24:13 GMT 41.730728 -4.916190 34,950 242 470 0
2018-10-16 00:24:06 GMT 41.738548 -4.896517 34,975 242 469 -64
2018-10-16 00:24:01 GMT 41.743149 -4.885046 34,975 242 469 -64
2018-10-16 00:23:56 GMT 41.749352 -4.869434 34,975 243 468 -64
2018-10-16 00:23:53 GMT 41.751389 -4.864322 34,975 243 468 0
2018-10-16 00:23:46 GMT 41.758381 -4.846887 34,975 242 467 64
2018-10-16 00:23:42 GMT 41.762012 -4.837689 34,975 242 467 0
2018-10-16 00:23:36 GMT 41.768948 -4.820188 34,975 242 467 64
2018-10-16 00:23:33 GMT 41.771988 -4.812574 34,975 243 467 64
2018-10-16 00:23:26 GMT 41.779514 -4.793552 34,975 243 467 64
2018-10-16 00:23:22 GMT 41.783020 -4.784796 34,975 243 467 64
2018-10-16 00:23:15 GMT 41.790894 -4.764883 34,975 243 467 0
2018-10-16 00:23:12 GMT 41.792725 -4.760264 34,975 243 467 0
2018-10-16 00:23:05 GMT 41.801304 -4.738493 34,975 243 467 0
2018-10-16 00:23:02 GMT 41.803444 -4.733127 34,975 243 467 0
2018-10-16 00:22:52 GMT 41.813313 -4.707961 34,975 243 467 64
2018-10-16 00:22:45 GMT 41.822346 -4.685094 34,975 243 467 64
2018-10-16 00:22:40 GMT 41.825317 -4.677554 34,950 243 467 128
2018-10-16 00:22:34 GMT 41.832401 -4.659544 34,950 243 467 64
2018-10-16 00:22:30 GMT 41.835434 -4.651898 34,950 243 467 64
2018-10-16 00:22:21 GMT 41.844501 -4.629013 34,950 242 467 64
2018-10-16 00:22:14 GMT 41.853859 -4.605699 34,950 242 467 64
2018-10-16 00:22:09 GMT 41.856491 -4.599152 34,950 242 468 0
2018-10-16 00:22:00 GMT 41.865685 -4.576381 34,950 242 468 64
2018-10-16 00:21:50 GMT 41.875900 -4.551399 34,950 242 468 0
2018-10-16 00:21:40 GMT 41.886383 -4.525993 34,950 242 468 0
2018-10-16 00:21:31 GMT 41.898735 -4.496219 34,975 242 468 -64
2018-10-16 00:21:20 GMT 41.908264 -4.472934 34,975 242 468 0
2018-10-16 00:21:08 GMT 41.919525 -4.444594 34,975 244 467 -64
2018-10-16 00:21:00 GMT 41.927902 -4.421872 35,000 246 465 -64
2018-10-16 00:20:48 GMT 41.938351 -4.390379 35,000 247 464 -64
2018-10-16 00:20:39 GMT 41.945480 -4.367814 35,000 248 465 128
2018-10-16 00:20:29 GMT 41.954590 -4.338913 35,000 248 467 0
2018-10-16 00:20:19 GMT 41.962421 -4.313922 35,000 248 467 0
2018-10-16 00:20:08 GMT 41.971264 -4.285434 34,975 248 467 0
2018-10-16 00:19:58 GMT 41.979179 -4.259757 34,975 248 468 0
2018-10-16 00:19:48 GMT 41.989471 -4.226178 35,000 248 468 0
2018-10-16 00:19:38 GMT 41.996449 -4.203612 35,000 248 469 -64
2018-10-16 00:19:28 GMT 42.005081 -4.176116 35,000 247 469 -64
2018-10-16 00:19:17 GMT 42.014420 -4.147589 35,025 246 471 -64
2018-10-16 00:19:08 GMT 42.023403 -4.121534 35,025 245 473 -64
2018-10-16 00:18:57 GMT 42.033463 -4.093219 35,050 245 474 0
2018-10-16 00:18:47 GMT 42.042068 -4.068936 35,025 245 475 0
2018-10-16 00:18:35 GMT 42.053524 -4.036517 35,025 245 475 64
2018-10-16 00:18:27 GMT 42.061569 -4.013630 35,050 245 476 64
2018-10-16 00:18:17 GMT 42.076706 -3.970408 35,025 245 477 64
2018-10-16 00:18:04 GMT 42.082851 -3.953034 35,025 245 478 0
2018-10-16 00:17:55 GMT 42.092010 -3.926926 35,025 245 479 0
2018-10-16 00:17:45 GMT 42.101166 -3.900833 35,025 245 479 0
2018-10-16 00:17:35 GMT 42.110085 -3.875555 35,050 245 479 0
2018-10-16 00:17:25 GMT 42.119579 -3.848600 35,050 245 479 0
2018-10-16 00:17:15 GMT 42.130142 -3.818561 35,050 245 480 64
2018-10-16 00:17:12 GMT 42.131973 -3.813379 35,050 245 480 64
2018-10-16 00:17:03 GMT 42.141861 -3.785165 35,025 245 480 64
2018-10-16 00:16:53 GMT 42.149734 -3.762693 35,050 245 481 64
2018-10-16 00:16:44 GMT 42.158844 -3.736725 35,025 245 481 64
2018-10-16 00:16:33 GMT 42.169346 -3.706672 35,025 245 481 0
2018-10-16 00:16:22 GMT 42.178841 -3.679462 35,025 245 481 64
2018-10-16 00:16:13 GMT 42.188290 -3.652251 35,025 245 481 64
2018-10-16 00:16:02 GMT 42.198345 -3.623380 35,025 245 481 0
2018-10-16 00:15:53 GMT 42.207844 -3.596170 35,025 245 481 0
2018-10-16 00:15:42 GMT 42.217712 -3.567874 35,025 245 481 0
2018-10-16 00:15:31 GMT 42.228142 -3.537917 35,025 245 481 64
2018-10-16 00:15:21 GMT 42.236660 -3.513389 35,025 245 481 64
2018-10-16 00:15:12 GMT 42.246872 -3.483914 35,025 246 480 64
2018-10-16 00:15:01 GMT 42.255653 -3.458522 35,000 246 480 64
2018-10-16 00:14:51 GMT 42.265522 -3.430034 35,000 246 480 64
2018-10-16 00:14:40 GMT 42.275345 -3.401674 35,000 246 480 64
2018-10-16 00:14:30 GMT 42.284912 -3.373864 35,000 246 480 64
2018-10-16 00:14:20 GMT 42.294292 -3.346614 34,975 246 480 64
2018-10-16 00:14:10 GMT 42.303600 -3.319532 34,975 246 479 0
2018-10-16 00:14:01 GMT 42.312698 -3.292902 34,975 246 477 64
2018-10-16 00:13:58 GMT 42.314667 -3.287159 34,975 246 477 0
2018-10-16 00:13:49 GMT 42.322769 -3.263439 34,975 246 477 64
2018-10-16 00:13:38 GMT 42.332657 -3.234600 34,975 246 476 0
2018-10-16 00:13:28 GMT 42.342682 -3.205324 34,975 246 476 0
2018-10-16 00:13:19 GMT 42.351929 -3.178295 34,975 246 475 -64
2018-10-16 00:13:07 GMT 42.362091 -3.148582 34,975 246 474 0
2018-10-16 00:12:58 GMT 42.370377 -3.124362 35,000 246 475 -64
2018-10-16 00:12:48 GMT 42.379852 -3.096867 35,000 246 474 0
2018-10-16 00:12:38 GMT 42.389099 -3.069930 35,000 246 474 0
2018-10-16 00:12:27 GMT 42.398666 -3.041840 35,000 246 474 64
2018-10-16 00:12:16 GMT 42.408234 -3.013625 35,000 246 475 64
2018-10-16 00:12:07 GMT 42.417847 -2.985535 35,000 246 475 128
2018-10-16 00:11:56 GMT 42.427105 -2.958516 34,975 246 476 128
2018-10-16 00:11:45 GMT 42.436935 -2.929792 34,975 246 476 64
2018-10-16 00:11:36 GMT 42.446365 -2.901389 34,975 248 475 64
2018-10-16 00:11:25 GMT 42.454803 -2.873244 34,975 250 474 -64
2018-10-16 00:11:15 GMT 42.462250 -2.845395 34,975 252 473 0
2018-10-16 00:11:05 GMT 42.469376 -2.816780 34,975 252 472 64
2018-10-16 00:11:00 GMT 42.472214 -2.805346 34,975 252 472 0
2018-10-16 00:10:54 GMT 42.476635 -2.787398 34,975 252 473 0
2018-10-16 00:10:46 GMT 42.482254 -2.764622 34,975 252 473 0
2018-10-16 00:10:43 GMT 42.488388 -2.739653 35,000 252 473 0
2018-10-16 00:10:32 GMT 42.491764 -2.725887 35,000 252 473 0
2018-10-16 00:10:22 GMT 42.500282 -2.691203 35,000 252 472 0
2018-10-16 00:10:13 GMT 42.504707 -2.673319 35,000 252 473 0
2018-10-16 00:10:10 GMT 42.507545 -2.661885 35,000 252 473 -64
2018-10-16 00:10:06 GMT 42.509129 -2.655370 35,000 252 473 0
2018-10-16 00:10:02 GMT 42.513153 -2.639091 35,000 252 473 -64
2018-10-16 00:09:58 GMT 42.514893 -2.632037 35,000 252 473 0
2018-10-16 00:09:52 GMT 42.519791 -2.612249 35,000 252 473 0
2018-10-16 00:09:48 GMT 42.522163 -2.602610 35,025 252 473 -64
2018-10-16 00:09:41 GMT 42.527344 -2.581725 35,025 252 473 -64
2018-10-16 00:09:35 GMT 42.530777 -2.567926 35,025 252 474 0
2018-10-16 00:09:32 GMT 42.534027 -2.554758 35,025 252 473 0
2018-10-16 00:09:26 GMT 42.537140 -2.542211 35,025 252 474 0
2018-10-16 00:09:22 GMT 42.541580 -2.524171 35,025 252 474 0
2018-10-16 00:09:16 GMT 42.544098 -2.513934 35,025 252 474 64
2018-10-16 00:09:11 GMT 42.548698 -2.495366 35,025 252 475 64
2018-10-16 00:09:07 GMT 42.550781 -2.486905 35,025 252 475 64
2018-10-16 00:08:59 GMT 42.556229 -2.464683 35,025 252 476 0
2018-10-16 00:08:51 GMT 42.562012 -2.441137 35,025 252 476 128
2018-10-16 00:08:48 GMT 42.563316 -2.435707 35,025 252 476 128
2018-10-16 00:08:41 GMT 42.568810 -2.413287 35,025 252 477 64
2018-10-16 00:08:38 GMT 42.570858 -2.404920 35,000 252 477 64
2018-10-16 00:08:28 GMT 42.577656 -2.377007 35,000 252 477 64
2018-10-16 00:08:18 GMT 42.585068 -2.346830 35,000 252 478 128
2018-10-16 00:08:09 GMT 42.591900 -2.318882 35,000 252 478 64
2018-10-16 00:08:05 GMT 42.593529 -2.312303 34,975 252 478 64
2018-10-16 00:08:00 GMT 42.597244 -2.297079 34,975 252 478 64
2018-10-16 00:07:55 GMT 42.601536 -2.279663 34,975 252 478 64
2018-10-16 00:07:50 GMT 42.604889 -2.266180 34,975 252 478 64
2018-10-16 00:07:45 GMT 42.607540 -2.255263 34,975 252 479 64
2018-10-16 00:07:39 GMT 42.612709 -2.234185 34,975 252 479 0
2018-10-16 00:07:35 GMT 42.614639 -2.226105 34,975 252 478 64
2018-10-16 00:07:28 GMT 42.619034 -2.207877 34,975 253 479 0
2018-10-16 00:07:25 GMT 42.621460 -2.197578 34,975 253 478 0
2018-10-16 00:07:19 GMT 42.625603 -2.179892 34,975 253 478 0
2018-10-16 00:07:14 GMT 42.628258 -2.168331 34,975 253 478 0
2018-10-16 00:07:08 GMT 42.632633 -2.149296 34,975 253 478 -64
2018-10-16 00:07:04 GMT 42.638916 -2.121830 35,000 253 477 0
2018-10-16 00:06:58 GMT 42.638916 -2.121830 35,000 253 477 0
2018-10-16 00:06:54 GMT 42.641571 -2.110333 35,000 253 477 0
2018-10-16 00:06:48 GMT 42.645760 -2.092001 35,000 253 477 0
2018-10-16 00:06:44 GMT 42.648239 -2.081035 35,000 253 477 0
2018-10-16 00:06:35 GMT 42.654282 -2.054880 35,000 253 477 64
2018-10-16 00:06:32 GMT 42.656342 -2.045767 35,000 253 478 0
2018-10-16 00:06:28 GMT 42.659168 -2.033493 35,000 253 478 0
2018-10-16 00:06:22 GMT 42.663208 -2.015804 35,000 253 478 0
2018-10-16 00:06:15 GMT 42.668106 -1.994393 35,000 253 478 -64
2018-10-16 00:06:11 GMT 42.670441 -1.984093 35,000 253 478 -64
2018-10-16 00:06:05 GMT 42.674652 -1.965741 35,025 253 478 -64
2018-10-16 00:06:00 GMT 42.676712 -1.956628 35,025 253 478 -64
2018-10-16 00:05:55 GMT 42.681046 -1.937746 35,025 253 477 0
2018-10-16 00:05:52 GMT 42.682068 -1.933344 35,050 253 477 0
2018-10-16 00:05:45 GMT 42.687744 -1.908438 35,025 253 477 64
2018-10-16 00:05:40 GMT 42.690903 -1.894330 35,025 253 477 64
2018-10-16 00:05:34 GMT 42.695023 -1.875978 35,025 254 478 64
2018-10-16 00:05:30 GMT 42.697014 -1.867037 35,025 254 478 64
2018-10-16 00:05:25 GMT 42.699669 -1.855220 35,025 254 479 0
2018-10-16 00:05:22 GMT 42.705814 -1.827627 35,025 253 479 0
2018-10-16 00:05:15 GMT 42.705814 -1.827627 35,025 253 479 64
2018-10-16 00:05:10 GMT 42.710403 -1.808624 35,025 252 480 64
2018-10-16 00:05:03 GMT 42.716080 -1.786839 35,025 249 480 64
2018-10-16 00:04:59 GMT 42.717545 -1.781408 35,025 250 480 64
2018-10-16 00:04:55 GMT 42.720943 -1.769501 35,025 249 481 64
2018-10-16 00:04:50 GMT 42.725418 -1.754504 35,000 248 481 128
2018-10-16 00:04:45 GMT 42.730812 -1.737437 35,000 246 481 64
2018-10-16 00:04:42 GMT 42.733326 -1.729708 35,000 246 481 64
2018-10-16 00:04:38 GMT 42.736073 -1.721596 35,000 245 481 64
2018-10-16 00:04:33 GMT 42.742401 -1.703456 35,000 244 482 64
2018-10-16 00:04:27 GMT 42.746658 -1.691957 35,000 244 482 64
2018-10-16 00:04:23 GMT 42.750595 -1.681675 35,000 242 482 0
2018-10-16 00:04:20 GMT 42.754879 -1.670752 35,000 241 482 0
2018-10-16 00:04:17 GMT 42.756927 -1.665706 35,000 241 482 0
2018-10-16 00:04:11 GMT 42.763779 -1.649447 35,000 240 483 0
2018-10-16 00:04:06 GMT 42.769169 -1.637155 35,000 239 482 -64
2018-10-16 00:04:02 GMT 42.773640 -1.627254 35,000 238 482 -64
2018-10-16 00:03:59 GMT 42.778526 -1.616970 35,000 237 483 0
2018-10-16 00:03:56 GMT 42.781128 -1.611495 35,000 237 483 0
2018-10-16 00:03:53 GMT 42.785881 -1.601896 35,025 236 482 0
2018-10-16 00:03:48 GMT 42.791515 -1.590718 35,000 236 483 0
2018-10-16 00:03:45 GMT 42.794540 -1.584842 35,000 236 483 0
2018-10-16 00:03:39 GMT 42.804611 -1.565302 35,000 236 483 64
2018-10-16 00:03:36 GMT 42.807083 -1.560496 35,000 236 483 64
2018-10-16 00:03:31 GMT 42.814224 -1.546709 35,000 236 483 64
2018-10-16 00:03:27 GMT 42.818893 -1.537639 35,000 236 483 64
2018-10-16 00:03:22 GMT 42.832481 -1.511143 35,000 236 483 64
2018-10-16 00:03:17 GMT 42.832481 -1.511143 35,000 236 483 64
2018-10-16 00:03:14 GMT 42.834435 -1.507350 35,000 236 483 64
2018-10-16 00:03:10 GMT 42.839603 -1.497280 35,000 236 483 64
2018-10-16 00:03:07 GMT 42.843700 -1.489367 35,000 236 483 64
2018-10-16 00:03:04 GMT 42.847237 -1.482435 35,000 236 483 64
2018-10-16 00:03:01 GMT 42.851624 -1.473893 35,000 236 483 64
2018-10-16 00:02:56 GMT 42.858971 -1.459547 34,975 236 483 64
2018-10-16 00:02:50 GMT 42.866463 -1.444898 34,975 236 482 0
2018-10-16 00:02:45 GMT 42.872040 -1.433971 34,975 236 483 0
2018-10-16 00:02:41 GMT 42.878265 -1.421835 34,975 236 483 0
2018-10-16 00:02:37 GMT 42.882935 -1.412765 34,975 236 483 0
2018-10-16 00:02:33 GMT 42.887329 -1.404206 34,975 236 482 0
2018-10-16 00:02:29 GMT 42.892162 -1.394741 34,975 236 482 0
2018-10-16 00:02:25 GMT 42.898178 -1.382936 34,975 236 482 0
2018-10-16 00:02:21 GMT 42.901985 -1.375580 34,975 236 482 0
2018-10-16 00:02:17 GMT 42.907700 -1.364413 34,975 236 482 0
2018-10-16 00:02:14 GMT 42.914520 -1.351063 34,975 236 482 0
2018-10-16 00:02:07 GMT 42.921021 -1.338288 35,000 236 482 0
2018-10-16 00:02:03 GMT 42.930771 -1.319126 35,000 236 482 0
2018-10-16 00:01:59 GMT 42.930771 -1.319126 35,000 236 482 0
2018-10-16 00:01:54 GMT 42.938107 -1.304757 35,000 236 482 0
2018-10-16 00:01:50 GMT 42.941849 -1.297345 35,000 236 482 0
2018-10-16 00:01:47 GMT 42.947838 -1.285597 35,000 236 482 -64
2018-10-16 00:01:43 GMT 42.950771 -1.279776 35,000 236 482 -64
2018-10-16 00:01:36 GMT 42.959747 -1.262214 35,000 236 482 -64
2018-10-16 00:01:33 GMT 42.964096 -1.253655 35,000 236 482 -64
2018-10-16 00:01:29 GMT 42.969482 -1.243025 35,025 236 482 -64
2018-10-16 00:01:26 GMT 42.971924 -1.238261 35,025 236 482 -64
2018-10-16 00:01:23 GMT 42.977631 -1.227068 35,025 236 482 -64
2018-10-16 00:01:15 GMT 42.988403 -1.205941 35,025 236 482 -64
2018-10-16 00:01:12 GMT 42.990387 -1.202087 35,025 236 482 -64
2018-10-16 00:01:05 GMT 42.999603 -1.183973 35,025 236 482 -64
2018-10-16 00:01:01 GMT 43.004211 -1.174883 35,025 236 482 0
2018-10-16 00:00:56 GMT 43.012115 -1.159441 35,025 236 482 0
2018-10-16 00:00:52 GMT 43.017246 -1.149314 35,025 236 482 0
2018-10-16 00:00:45 GMT 43.024841 -1.134466 35,025 236 482 64
2018-10-16 00:00:39 GMT 43.032188 -1.120082 35,025 236 483 64
2018-10-16 00:00:35 GMT 43.037888 -1.108853 35,025 236 483 64
2018-10-16 00:00:30 GMT 43.043316 -1.098175 35,025 236 483 64
2018-10-16 00:00:25 GMT 43.050110 -1.084836 35,025 236 483 64
2018-10-16 00:00:20 GMT 43.056118 -1.072998 35,000 236 483 0
2018-10-16 00:00:14 GMT 43.064266 -1.056911 35,025 236 483 64
2018-10-16 00:00:09 GMT 43.069977 -1.045681 35,000 236 483 64
2018-10-16 00:00:05 GMT 43.076706 -1.032332 35,000 236 483 0
2018-10-16 00:00:00 GMT 43.082703 -1.020579 35,000 236 483 0
2018-10-15 23:59:54 GMT 43.090569 -1.005053 35,025 236 483 0
2018-10-15 23:59:48 GMT 43.096245 -0.993805 35,025 236 483 0
2018-10-15 23:59:44 GMT 43.102764 -0.980922 35,025 236 483 0
2018-10-15 23:59:37 GMT 43.110863 -0.964835 35,025 236 483 0
2018-10-15 23:59:33 GMT 43.115753 -0.955236 35,025 236 483 0
2018-10-15 23:59:27 GMT 43.123306 -0.940225 35,025 236 483 0
2018-10-15 23:59:23 GMT 43.128181 -0.930568 35,025 236 483 0
2018-10-15 23:59:17 GMT 43.136841 -0.913435 35,025 236 483 0
2018-10-15 23:59:14 GMT 43.141960 -0.903233 35,025 236 483 0
2018-10-15 23:59:06 GMT 43.150406 -0.886571 35,025 236 483 64
2018-10-15 23:59:02 GMT 43.155258 -0.876926 35,025 236 483 64
2018-10-15 23:58:53 GMT 43.167191 -0.853337 35,000 236 483 64
2018-10-15 23:58:46 GMT 43.175537 -0.836749 35,000 236 483 0
2018-10-15 23:58:42 GMT 43.180664 -0.826593 35,000 236 483 64
2018-10-15 23:58:35 GMT 43.189316 -0.809411 35,000 236 483 64
2018-10-15 23:58:32 GMT 43.192795 -0.802513 35,000 236 482 64
2018-10-15 23:58:25 GMT 43.202499 -0.783159 35,000 236 482 0
2018-10-15 23:58:22 GMT 43.206295 -0.775648 35,000 236 482 0
2018-10-15 23:58:19 GMT 43.209785 -0.768716 35,000 236 482 0
2018-10-15 23:58:15 GMT 43.215179 -0.757993 35,000 236 481 64
2018-10-15 23:58:11 GMT 43.219471 -0.749425 35,000 236 482 64
2018-10-15 23:58:05 GMT 43.227802 -0.732749 35,000 236 481 64
2018-10-15 23:58:02 GMT 43.231796 -0.724778 35,000 236 481 64
2018-10-15 23:57:59 GMT 43.235577 -0.717250 35,000 236 481 0
2018-10-15 23:57:51 GMT 43.244980 -0.698482 35,000 236 481 0
2018-10-15 23:57:48 GMT 43.248184 -0.692075 35,000 236 481 0
2018-10-15 23:57:42 GMT 43.257038 -0.674417 34,975 236 480 0
2018-10-15 23:57:38 GMT 43.261276 -0.665886 35,000 236 480 0
2018-10-15 23:57:33 GMT 43.268784 -0.650940 35,000 236 480 0
2018-10-15 23:57:30 GMT 43.272446 -0.643616 35,000 236 479 0
2018-10-15 23:57:27 GMT 43.274963 -0.638612 35,000 236 479 0
2018-10-15 23:57:20 GMT 43.284027 -0.620536 35,000 236 479 0
2018-10-15 23:57:15 GMT 43.289383 -0.609805 35,000 236 479 -64
2018-10-15 23:57:09 GMT 43.303207 -0.582212 35,000 236 478 0
2018-10-15 23:56:59 GMT 43.310154 -0.568216 35,000 236 478 0
2018-10-15 23:56:56 GMT 43.314423 -0.559728 35,000 236 477 0
2018-10-15 23:56:49 GMT 43.322937 -0.542610 35,000 236 477 0
2018-10-15 23:56:45 GMT 43.327927 -0.532518 35,025 236 477 0
2018-10-15 23:56:38 GMT 43.335617 -0.517011 35,025 236 477 0
2018-10-15 23:56:34 GMT 43.340366 -0.507398 35,000 236 477 64
2018-10-15 23:56:28 GMT 43.348839 -0.490330 35,000 236 477 64
2018-10-15 23:56:24 GMT 43.353058 -0.481802 35,000 236 477 64
2018-10-15 23:56:20 GMT 43.358849 -0.470058 35,000 236 477 64
2018-10-15 23:56:17 GMT 43.362991 -0.461687 35,000 236 477 64
2018-10-15 23:56:14 GMT 43.365967 -0.455677 35,000 236 477 64
2018-10-15 23:56:10 GMT 43.372066 -0.443377 35,000 236 477 128
2018-10-15 23:56:07 GMT 43.374210 -0.439061 35,000 236 477 128
2018-10-15 23:56:03 GMT 43.379471 -0.428403 34,975 236 477 64
2018-10-15 23:55:57 GMT 43.387344 -0.412371 34,975 236 478 64
2018-10-15 23:55:53 GMT 43.391853 -0.403290 34,975 236 477 64
2018-10-15 23:55:49 GMT 43.398193 -0.390462 34,975 236 477 64
2018-10-15 23:55:46 GMT 43.399769 -0.387203 34,975 236 477 64
2018-10-15 23:55:42 GMT 43.405865 -0.374908 34,975 236 477 64
2018-10-15 23:55:39 GMT 43.410847 -0.364772 34,975 236 477 0
2018-10-15 23:55:31 GMT 43.418808 -0.348751 34,975 236 476 0
2018-10-15 23:55:28 GMT 43.423553 -0.339203 34,975 236 476 0
2018-10-15 23:55:25 GMT 43.426720 -0.332794 34,975 236 476 0
2018-10-15 23:55:21 GMT 43.431469 -0.323181 34,975 236 476 0
2018-10-15 23:55:18 GMT 43.435684 -0.314707 34,975 236 476 0
2018-10-15 23:55:15 GMT 43.439163 -0.307681 34,975 236 476 0
2018-10-15 23:55:11 GMT 43.448368 -0.289110 34,975 236 475 0
2018-10-15 23:55:05 GMT 43.451302 -0.283225 34,975 236 475 0
2018-10-15 23:54:58 GMT 43.462006 -0.261579 35,000 236 475 0
2018-10-15 23:54:55 GMT 43.463928 -0.257668 35,000 236 475 0
2018-10-15 23:54:47 GMT 43.473179 -0.238953 35,000 236 475 -64
2018-10-15 23:54:44 GMT 43.477139 -0.230974 35,000 236 475 -64
2018-10-15 23:54:37 GMT 43.485516 -0.213972 35,000 236 475 -64
2018-10-15 23:54:34 GMT 43.490032 -0.204882 35,000 236 475 0
2018-10-15 23:54:26 GMT 43.498947 -0.186768 35,000 236 475 0
2018-10-15 23:54:22 GMT 43.504440 -0.175590 35,000 236 475 0
2018-10-15 23:54:16 GMT 43.511810 -0.160515 35,000 237 476 0
2018-10-15 23:54:13 GMT 43.515450 -0.153155 35,000 237 476 0
2018-10-15 23:54:10 GMT 43.519405 -0.145111 35,000 237 476 0
2018-10-15 23:54:05 GMT 43.524899 -0.133863 35,000 237 476 0
2018-10-15 23:54:02 GMT 43.529617 -0.124235 35,000 237 476 0
2018-10-15 23:53:57 GMT 43.536209 -0.110779 35,025 237 476 0
2018-10-15 23:53:52 GMT 43.540924 -0.101176 35,000 237 476 0
2018-10-15 23:53:49 GMT 43.545364 -0.092170 35,025 237 476 0
2018-10-15 23:53:45 GMT 43.550079 -0.082525 35,000 237 476 0
2018-10-15 23:53:39 GMT 43.557449 -0.067451 35,000 237 476 0
2018-10-15 23:53:29 GMT 43.569496 -0.042834 35,025 237 477 0
2018-10-15 23:53:24 GMT 43.575256 -0.030915 35,000 237 477 64
2018-10-15 23:53:21 GMT 43.579456 -0.022365 35,000 237 476 0
2018-10-15 23:53:18 GMT 43.582581 -0.015969 35,000 237 476 0
2018-10-15 23:53:09 GMT 43.594589 0.008698 35,000 237 476 0
2018-10-15 23:52:58 GMT 43.607391 0.035052 35,000 237 476 0
2018-10-15 23:52:48 GMT 43.619934 0.060808 35,000 237 477 64
2018-10-15 23:52:40 GMT 43.630188 0.081823 35,000 237 477 0
2018-10-15 23:52:37 GMT 43.633072 0.087763 35,000 237 477 0
2018-10-15 23:52:31 GMT 43.642769 0.107574 35,000 237 477 0
2018-10-15 23:52:28 GMT 43.645096 0.112414 35,000 237 477 0
2018-10-15 23:52:25 GMT 43.648819 0.120019 35,000 237 477 0
2018-10-15 23:52:17 GMT 43.662415 0.147923 35,025 237 477 -64
2018-10-15 23:52:07 GMT 43.670280 0.164076 35,025 237 477 -64
2018-10-15 23:51:57 GMT 43.686768 0.198009 35,025 237 477 0
2018-10-15 23:51:47 GMT 43.694916 0.214744 35,025 237 477 0
2018-10-15 23:51:44 GMT 43.699657 0.224435 35,025 237 477 0
2018-10-15 23:51:36 GMT 43.708786 0.243232 35,025 237 477 0
2018-10-15 23:51:26 GMT 43.721146 0.268590 35,025 237 477 64
2018-10-15 23:51:20 GMT 43.728237 0.283160 35,025 237 477 64
2018-10-15 23:51:15 GMT 43.733505 0.293948 35,025 237 477 128
2018-10-15 23:51:05 GMT 43.746304 0.320369 35,000 237 477 128
2018-10-15 23:51:00 GMT 43.753647 0.335466 35,000 237 478 64
2018-10-15 23:50:55 GMT 43.758636 0.345808 34,975 237 478 64
2018-10-15 23:50:45 GMT 43.771225 0.371811 34,975 237 478 64
2018-10-15 23:50:35 GMT 43.783997 0.398254 34,975 237 478 64
2018-10-15 23:50:24 GMT 43.796768 0.424762 34,950 237 477 64
2018-10-15 23:50:18 GMT 43.803329 0.438341 34,975 237 477 0
2018-10-15 23:50:14 GMT 43.809010 0.450243 34,950 237 476 0
2018-10-15 23:50:03 GMT 43.821716 0.476728 34,975 237 476 0
2018-10-15 23:49:52 GMT 43.835220 0.504860 34,975 237 475 -64
2018-10-15 23:49:43 GMT 43.846577 0.528521 34,975 237 474 0
2018-10-15 23:49:33 GMT 43.859005 0.554483 34,975 237 473 0
2018-10-15 23:49:27 GMT 43.865707 0.568479 34,975 237 473 0
2018-10-15 23:49:23 GMT 43.870880 0.579273 34,975 237 473 0
2018-10-15 23:49:20 GMT 43.874226 0.586264 34,975 237 473 0
2018-10-15 23:49:13 GMT 43.883560 0.605653 34,975 237 473 0
2018-10-15 23:49:10 GMT 43.887169 0.613207 34,975 237 473 0
2018-10-15 23:49:02 GMT 43.899830 0.639561 35,000 237 474 0
2018-10-15 23:48:55 GMT 43.905277 0.650875 34,975 237 474 0
2018-10-15 23:48:52 GMT 43.909698 0.660138 34,975 237 475 -64
2018-10-15 23:48:48 GMT 43.912811 0.666589 35,000 237 475 -64
2018-10-15 23:48:44 GMT 43.917938 0.677320 35,000 237 475 -64
2018-10-15 23:48:41 GMT 43.922131 0.685992 35,000 237 475 -64
2018-10-15 23:48:37 GMT 43.926224 0.694630 35,000 237 474 -64
2018-10-15 23:48:34 GMT 43.931854 0.706319 35,000 237 474 0
2018-10-15 23:48:30 GMT 43.935013 0.712962 35,000 237 474 0
2018-10-15 23:48:27 GMT 43.940193 0.723790 35,000 237 474 0
2018-10-15 23:48:23 GMT 43.944305 0.732379 35,000 237 474 0
2018-10-15 23:48:20 GMT 43.946640 0.737234 35,000 237 475 64
2018-10-15 23:48:17 GMT 43.951458 0.747397 35,000 237 475 64
2018-10-15 23:48:12 GMT 43.961838 0.769239 35,000 237 475 64
2018-10-15 23:48:08 GMT 43.961838 0.769239 35,000 237 475 64
2018-10-15 23:48:02 GMT 43.970776 0.788073 35,000 237 476 64
2018-10-15 23:47:58 GMT 43.974243 0.795295 35,000 237 475 0
2018-10-15 23:47:51 GMT 43.982182 0.812138 35,000 237 476 0
2018-10-15 23:47:47 GMT 43.986832 0.821931 35,000 237 476 0
2018-10-15 23:47:41 GMT 43.994286 0.837773 35,000 237 476 64
2018-10-15 23:47:37 GMT 43.998688 0.847033 34,975 237 477 0
2018-10-15 23:47:32 GMT 44.006424 0.863385 35,000 237 477 0
2018-10-15 23:47:27 GMT 44.010773 0.872583 35,000 237 477 -64
2018-10-15 23:47:21 GMT 44.018555 0.888934 35,000 237 477 -64
2018-10-15 23:47:16 GMT 44.025242 0.903168 35,000 237 477 0
2018-10-15 23:47:10 GMT 44.031693 0.916784 35,000 237 477 0
2018-10-15 23:47:07 GMT 44.035583 0.924959 35,000 237 477 0
2018-10-15 23:47:01 GMT 44.043072 0.940835 35,000 237 478 0
2018-10-15 23:46:56 GMT 44.048519 0.952279 35,000 237 478 0
2018-10-15 23:46:51 GMT 44.055267 0.966535 35,000 237 479 -64
2018-10-15 23:46:46 GMT 44.060669 0.978039 35,000 237 479 -64
2018-10-15 23:46:40 GMT 44.068211 0.993936 35,025 237 479 -64
2018-10-15 23:46:36 GMT 44.073349 1.004866 35,025 237 479 -64
2018-10-15 23:46:30 GMT 44.080078 1.019110 35,025 237 479 0
2018-10-15 23:46:26 GMT 44.086761 1.033226 35,025 237 479 64
2018-10-15 23:46:18 GMT 44.100750 1.062993 35,025 237 480 64
2018-10-15 23:46:15 GMT 44.100750 1.062993 35,025 237 481 0
2018-10-15 23:46:07 GMT 44.108322 1.079023 35,025 237 481 0
2018-10-15 23:45:59 GMT 44.117882 1.099418 35,025 237 481 64
2018-10-15 23:45:56 GMT 44.122559 1.109364 35,025 237 481 64
2018-10-15 23:45:49 GMT 44.130405 1.126033 35,000 237 482 64
2018-10-15 23:45:45 GMT 44.135010 1.135871 35,000 237 482 64
2018-10-15 23:45:38 GMT 44.142792 1.152479 34,975 237 482 64
2018-10-15 23:45:35 GMT 44.146976 1.161346 35,000 237 482 64
2018-10-15 23:45:28 GMT 44.155262 1.179003 34,975 237 481 64
2018-10-15 23:45:25 GMT 44.159912 1.188951 35,000 237 481 64
2018-10-15 23:45:18 GMT 44.168018 1.206142 34,975 237 481 64
2018-10-15 23:45:14 GMT 44.172684 1.216097 34,975 237 481 64
2018-10-15 23:45:08 GMT 44.180466 1.232640 34,975 237 481 64
2018-10-15 23:45:04 GMT 44.184872 1.242044 34,975 237 481 0
2018-10-15 23:44:57 GMT 44.192917 1.259148 34,975 237 481 -64
2018-10-15 23:44:54 GMT 44.197021 1.267983 34,975 237 481 -64
2018-10-15 23:44:47 GMT 44.205818 1.286740 35,000 237 480 -64
2018-10-15 23:44:43 GMT 44.209991 1.295667 35,000 238 480 -128
2018-10-15 23:44:36 GMT 44.218231 1.313259 35,000 237 480 -64
2018-10-15 23:44:33 GMT 44.222389 1.322178 35,000 237 480 -64
2018-10-15 23:44:26 GMT 44.230633 1.339796 35,000 238 480 -128
2018-10-15 23:44:22 GMT 44.235535 1.350337 35,025 237 480 -192
2018-10-15 23:44:17 GMT 44.241711 1.363577 35,050 238 480 -192
2018-10-15 23:44:13 GMT 44.255630 1.393388 35,050 238 479 -128
2018-10-15 23:44:05 GMT 44.255630 1.393388 35,050 238 479 -64
2018-10-15 23:44:01 GMT 44.261726 1.406451 35,050 238 479 -64
2018-10-15 23:43:57 GMT 44.265919 1.415428 35,075 238 479 -64
2018-10-15 23:43:53 GMT 44.270004 1.424234 35,075 238 479 -64
2018-10-15 23:43:45 GMT 44.280300 1.446377 35,050 238 479 64
2018-10-15 23:43:42 GMT 44.283875 1.454054 35,050 238 479 64
2018-10-15 23:43:36 GMT 44.291988 1.471565 35,050 238 480 0
2018-10-15 23:43:32 GMT 44.296223 1.480676 35,050 238 480 0
2018-10-15 23:43:22 GMT 44.308090 1.506239 35,050 238 482 64
2018-10-15 23:43:15 GMT 44.316284 1.524026 35,050 238 482 128
2018-10-15 23:43:12 GMT 44.320244 1.532459 35,050 238 482 128
2018-10-15 23:43:04 GMT 44.330021 1.553561 35,025 238 483 128
2018-10-15 23:43:01 GMT 44.333130 1.560255 35,025 238 483 64
2018-10-15 23:42:53 GMT 44.342972 1.581508 35,025 238 484 64
2018-10-15 23:42:50 GMT 44.347057 1.590405 35,025 238 484 64
2018-10-15 23:42:43 GMT 44.355110 1.607755 35,000 238 483 128
2018-10-15 23:42:39 GMT 44.360001 1.618340 35,000 238 483 128
2018-10-15 23:42:35 GMT 44.365398 1.630063 35,000 238 482 64
2018-10-15 23:42:29 GMT 44.371590 1.643461 34,975 238 482 64
2018-10-15 23:42:25 GMT 44.377762 1.656843 34,975 238 482 128
2018-10-15 23:42:20 GMT 44.384159 1.670793 34,975 238 481 64
2018-10-15 23:42:13 GMT 44.397537 1.699677 34,975 238 481 0
2018-10-15 23:42:08 GMT 44.397537 1.699677 34,975 238 480 0
2018-10-15 23:42:05 GMT 44.402969 1.711389 34,975 238 480 0
2018-10-15 23:41:58 GMT 44.409161 1.724787 34,975 238 480 -64
2018-10-15 23:41:53 GMT 44.415539 1.738653 34,975 238 479 0
2018-10-15 23:41:49 GMT 44.421680 1.751984 34,975 238 479 64
2018-10-15 23:41:44 GMT 44.427246 1.764156 34,975 238 478 64
2018-10-15 23:41:40 GMT 44.431831 1.774091 34,975 238 477 0
2018-10-15 23:41:33 GMT 44.439697 1.791229 34,975 238 477 -64
2018-10-15 23:41:29 GMT 44.443817 1.800188 34,975 238 477 -64
2018-10-15 23:41:23 GMT 44.451462 1.816799 34,975 238 477 -64
2018-10-15 23:41:19 GMT 44.456505 1.827750 34,975 238 477 -64
2018-10-15 23:41:08 GMT 44.469223 1.855447 35,000 238 476 -64
2018-10-15 23:40:58 GMT 44.480621 1.880232 35,000 238 475 0
2018-10-15 23:40:53 GMT 44.487671 1.895599 35,000 238 474 64
2018-10-15 23:40:48 GMT 44.492981 1.907174 35,000 238 475 0
2018-10-15 23:40:41 GMT 44.501312 1.925354 35,000 238 474 0
2018-10-15 23:40:38 GMT 44.504379 1.931959 35,000 238 474 0
2018-10-15 23:40:31 GMT 44.512665 1.950204 35,000 238 474 0
2018-10-15 23:40:28 GMT 44.516968 1.959555 35,000 238 474 -64
2018-10-15 23:40:21 GMT 44.528519 1.984908 35,000 238 474 -64
2018-10-15 23:40:18 GMT 44.528519 1.984908 35,000 238 474 -64
2018-10-15 23:40:11 GMT 44.536060 2.001454 35,000 238 473 0
2018-10-15 23:40:07 GMT 44.541092 2.012460 35,000 238 472 0
2018-10-15 23:40:02 GMT 44.548096 2.027828 35,000 238 474 0
2018-10-15 23:39:57 GMT 44.552902 2.038422 35,000 238 473 64
2018-10-15 23:39:47 GMT 44.564941 2.064907 35,000 238 475 64
2018-10-15 23:39:39 GMT 44.575974 2.089233 35,000 238 477 64
2018-10-15 23:39:36 GMT 44.578445 2.094596 35,000 238 477 0
2018-10-15 23:39:26 GMT 44.589157 2.118138 35,000 238 477 64
2018-10-15 23:39:16 GMT 44.601746 2.145884 35,000 238 477 -64
2018-10-15 23:39:05 GMT 44.614407 2.173752 35,000 238 477 -64
2018-10-15 23:38:58 GMT 44.622253 2.190988 35,025 238 477 -64
2018-10-15 23:38:55 GMT 44.626324 2.199945 35,025 238 477 -64
2018-10-15 23:38:46 GMT 44.637218 2.223861 35,000 238 478 0
2018-10-15 23:38:36 GMT 44.654163 2.261241 35,000 238 482 -320
2018-10-15 23:38:33 GMT 44.654163 2.261241 35,025 238 483 -384
2018-10-15 23:38:30 GMT 44.656769 2.267069 35,025 238 483 0
2018-10-15 23:38:25 GMT 44.662399 2.279402 35,050 238 484 0
2018-10-15 23:38:22 GMT 44.665192 2.285679 35,050 238 484 0
2018-10-15 23:38:19 GMT 44.669037 2.294115 35,050 238 484 0
2018-10-15 23:38:15 GMT 44.674393 2.306017 35,050 238 484 -64
2018-10-15 23:38:12 GMT 44.683273 2.325766 35,050 238 484 0
2018-10-15 23:38:07 GMT 44.683273 2.325766 35,050 238 484 0
2018-10-15 23:38:04 GMT 44.686890 2.333724 35,050 238 484 0
2018-10-15 23:38:01 GMT 44.690918 2.342769 35,050 238 484 0
2018-10-15 23:37:57 GMT 44.697598 2.357572 35,050 238 485 64
2018-10-15 23:37:53 GMT 44.706024 2.376262 35,050 238 485 0
2018-10-15 23:37:49 GMT 44.706024 2.376262 35,050 238 485 64
2018-10-15 23:37:45 GMT 44.709595 2.384295 35,050 238 485 64
2018-10-15 23:37:42 GMT 44.713440 2.392796 35,050 238 485 64
2018-10-15 23:37:37 GMT 44.720306 2.408164 35,050 238 486 64
2018-10-15 23:37:32 GMT 44.725937 2.420654 35,050 238 486 64
2018-10-15 23:37:27 GMT 44.732044 2.434343 35,050 238 486 64
2018-10-15 23:37:24 GMT 44.734589 2.440011 35,050 238 486 64
2018-10-15 23:37:21 GMT 44.738190 2.448008 35,025 238 486 64
2018-10-15 23:37:15 GMT 44.746078 2.465646 35,025 238 486 64
2018-10-15 23:37:11 GMT 44.750202 2.474804 35,025 238 486 128
2018-10-15 23:37:06 GMT 44.756012 2.487815 35,025 238 486 64
2018-10-15 23:37:01 GMT 44.762421 2.502136 35,025 238 486 64
2018-10-15 23:36:55 GMT 44.770638 2.520491 35,000 238 486 128
2018-10-15 23:36:51 GMT 44.774643 2.529471 35,000 238 485 128
2018-10-15 23:36:48 GMT 44.778225 2.537507 35,000 238 485 128
2018-10-15 23:36:44 GMT 44.782288 2.546539 35,000 238 485 128
2018-10-15 23:36:41 GMT 44.786591 2.556152 35,000 238 485 64
2018-10-15 23:36:33 GMT 44.796520 2.578304 34,975 238 484 64
2018-10-15 23:36:30 GMT 44.799313 2.584601 34,975 238 484 64
2018-10-15 23:36:24 GMT 44.806686 2.601079 34,975 238 483 64
2018-10-15 23:36:20 GMT 44.812042 2.612980 34,975 238 483 64
2018-10-15 23:36:15 GMT 44.819092 2.628806 34,975 238 482 64
2018-10-15 23:36:12 GMT 44.823940 2.639599 34,975 238 481 128
2018-10-15 23:36:02 GMT 44.833237 2.660522 34,950 238 481 64
2018-10-15 23:35:59 GMT 44.835983 2.666604 34,950 238 480 64
2018-10-15 23:35:52 GMT 44.844795 2.686425 34,950 239 479 0
2018-10-15 23:35:49 GMT 44.848053 2.693727 34,950 239 479 0
2018-10-15 23:35:45 GMT 44.854107 2.707326 34,950 238 478 -64
2018-10-15 23:35:41 GMT 44.857552 2.715164 34,950 238 478 -64
2018-10-15 23:35:37 GMT 44.863789 2.729098 34,950 238 478 -64
2018-10-15 23:35:31 GMT 44.869812 2.742724 34,950 239 477 0
2018-10-15 23:35:27 GMT 44.874264 2.752812 34,950 239 476 0
2018-10-15 23:35:22 GMT 44.879475 2.764602 34,950 239 476 64
2018-10-15 23:35:19 GMT 44.882996 2.772478 34,950 238 475 0
2018-10-15 23:35:16 GMT 44.886703 2.780849 34,950 238 475 0
2018-10-15 23:35:08 GMT 44.895401 2.800467 34,950 239 474 0
2018-10-15 23:35:03 GMT 44.903275 2.818320 34,950 239 474 0
2018-10-15 23:34:58 GMT 44.907734 2.828377 34,950 239 474 0
2018-10-15 23:34:55 GMT 44.910480 2.834540 34,950 239 474 0
2018-10-15 23:34:52 GMT 44.915695 2.846263 34,950 239 474 -64
2018-10-15 23:34:48 GMT 44.920624 2.857492 34,950 239 473 -64
2018-10-15 23:34:45 GMT 44.922867 2.862527 34,950 239 473 -64
2018-10-15 23:34:42 GMT 44.926819 2.871451 34,950 239 473 -64
2018-10-15 23:34:37 GMT 44.932266 2.883777 34,950 239 473 -64
2018-10-15 23:34:34 GMT 44.936455 2.893156 34,950 239 473 0
2018-10-15 23:34:30 GMT 44.940132 2.901529 34,950 239 473 0
2018-10-15 23:34:26 GMT 44.945301 2.913253 34,950 239 472 64
2018-10-15 23:34:23 GMT 44.949024 2.921626 34,950 239 472 64
2018-10-15 23:34:14 GMT 44.958614 2.943331 34,950 239 472 -64
2018-10-15 23:34:08 GMT 44.969231 2.967313 34,950 239 472 0
2018-10-15 23:34:05 GMT 44.969231 2.967313 34,950 239 472 -64
2018-10-15 23:34:01 GMT 44.975281 2.981022 34,950 239 472 -64
2018-10-15 23:33:57 GMT 44.977608 2.986205 34,950 239 472 -64
2018-10-15 23:33:54 GMT 44.981285 2.994578 34,950 239 472 -64
2018-10-15 23:33:51 GMT 44.986176 3.005676 34,950 239 472 -64
2018-10-15 23:33:45 GMT 44.991623 3.017970 34,950 239 472 -64
2018-10-15 23:33:42 GMT 44.997253 3.030722 34,975 239 471 -64
2018-10-15 23:33:35 GMT 45.003616 3.045240 34,975 239 472 -64
2018-10-15 23:33:32 GMT 45.012337 3.065052 35,000 239 471 -64
2018-10-15 23:33:26 GMT 45.015610 3.072510 34,975 239 471 -64
2018-10-15 23:33:21 GMT 45.019039 3.080325 34,975 239 471 -64
2018-10-15 23:33:14 GMT 45.027840 3.100355 35,000 239 472 -64
2018-10-15 23:33:10 GMT 45.033508 3.113185 35,000 239 471 0
2018-10-15 23:33:05 GMT 45.039093 3.125937 35,000 239 471 -64
2018-10-15 23:33:00 GMT 45.044224 3.137669 35,000 239 471 0
2018-10-15 23:32:55 GMT 45.049393 3.149392 35,000 239 472 64
2018-10-15 23:32:52 GMT 45.052826 3.157261 35,000 239 472 64
2018-10-15 23:32:49 GMT 45.055984 3.164455 35,000 239 472 64
2018-10-15 23:32:41 GMT 45.065357 3.185767 35,000 239 474 0
2018-10-15 23:32:38 GMT 45.068527 3.193032 35,000 239 474 0
2018-10-15 23:32:35 GMT 45.072510 3.202057 35,000 239 474 0
2018-10-15 23:32:31 GMT 45.076950 3.212161 35,000 239 475 -64
2018-10-15 23:32:28 GMT 45.080887 3.221087 35,000 239 475 0
2018-10-15 23:32:24 GMT 45.086563 3.234100 35,025 239 475 -64
2018-10-15 23:32:20 GMT 45.089520 3.240833 35,025 239 475 0
2018-10-15 23:32:17 GMT 45.093430 3.249795 35,025 239 475 0
2018-10-15 23:32:10 GMT 45.101761 3.268956 35,025 239 475 0
2018-10-15 23:32:06 GMT 45.105534 3.277610 35,025 239 475 0
2018-10-15 23:32:01 GMT 45.111832 3.292106 35,025 239 475 -64
2018-10-15 23:31:58 GMT 45.115311 3.299985 35,025 239 475 -64
2018-10-15 23:31:55 GMT 45.118744 3.307800 35,025 239 476 -128
2018-10-15 23:31:52 GMT 45.121948 3.315255 35,025 239 476 -128
2018-10-15 23:31:47 GMT 45.127647 3.328255 35,050 239 476 -128
2018-10-15 23:31:42 GMT 45.133743 3.342389 35,075 239 477 -64
2018-10-15 23:31:37 GMT 45.139389 3.355408 35,075 239 477 0
2018-10-15 23:31:32 GMT 45.145245 3.368984 35,050 239 477 64
2018-10-15 23:31:28 GMT 45.149712 3.379301 35,050 239 477 128
2018-10-15 23:31:21 GMT 45.157578 3.397388 35,050 239 478 128
2018-10-15 23:31:18 GMT 45.161499 3.406481 35,025 239 478 128
2018-10-15 23:31:11 GMT 45.169170 3.424184 35,025 239 479 128
2018-10-15 23:31:07 GMT 45.173584 3.434405 35,025 239 479 64
2018-10-15 23:31:01 GMT 45.181229 3.452052 35,025 239 479 64
2018-10-15 23:30:57 GMT 45.184952 3.460559 35,025 239 479 0
2018-10-15 23:30:50 GMT 45.194092 3.481685 35,025 239 479 0
2018-10-15 23:30:47 GMT 45.197056 3.488494 35,025 239 480 0
2018-10-15 23:30:39 GMT 45.206692 3.510802 35,025 239 479 -64
2018-10-15 23:30:36 GMT 45.210663 3.520006 35,025 239 479 0
2018-10-15 23:30:32 GMT 45.214828 3.529619 35,025 239 479 0
2018-10-15 23:30:29 GMT 45.217575 3.535963 35,025 239 479 -64
2018-10-15 23:30:26 GMT 45.221497 3.545034 35,025 239 479 0
2018-10-15 23:30:21 GMT 45.227417 3.558786 35,025 239 479 -64
2018-10-15 23:30:18 GMT 45.230164 3.565063 35,025 239 479 0
2018-10-15 23:30:15 GMT 45.234375 3.574807 35,025 239 479 0
2018-10-15 23:30:11 GMT 45.238815 3.585074 35,050 239 479 0
2018-10-15 23:30:08 GMT 45.241791 3.591941 35,025 239 480 0
2018-10-15 23:30:05 GMT 45.246689 3.603319 35,025 239 479 0
2018-10-15 23:29:59 GMT 45.252365 3.616464 35,050 239 479 0
2018-10-15 23:29:56 GMT 45.259995 3.634130 35,025 239 480 0
2018-10-15 23:29:50 GMT 45.264725 3.645107 35,025 239 480 0
2018-10-15 23:29:46 GMT 45.267654 3.651973 35,050 239 480 -64
2018-10-15 23:29:43 GMT 45.271587 3.661060 35,050 239 480 0
2018-10-15 23:29:38 GMT 45.277031 3.673654 35,050 239 480 0
2018-10-15 23:29:35 GMT 45.280708 3.682229 35,050 239 481 64
2018-10-15 23:29:32 GMT 45.284180 3.690295 35,050 239 480 0
2018-10-15 23:29:27 GMT 45.295048 3.715590 35,050 239 481 64
2018-10-15 23:29:20 GMT 45.299377 3.725705 35,025 239 481 0
2018-10-15 23:29:17 GMT 45.301666 3.731036 35,025 239 481 0
2018-10-15 23:29:13 GMT 45.305149 3.739103 35,025 239 481 0
2018-10-15 23:29:10 GMT 45.309292 3.748817 35,025 239 481 0
2018-10-15 23:29:07 GMT 45.312469 3.756278 35,025 239 481 64
2018-10-15 23:29:04 GMT 45.315720 3.763798 35,025 239 481 64
2018-10-15 23:29:01 GMT 45.319427 3.772430 35,025 239 481 64
2018-10-15 23:28:57 GMT 45.324051 3.783249 35,025 239 481 0
2018-10-15 23:28:54 GMT 45.327309 3.790819 35,025 239 480 0
2018-10-15 23:28:51 GMT 45.330917 3.799308 35,025 239 480 64
2018-10-15 23:28:47 GMT 45.335861 3.810817 35,025 239 480 64
2018-10-15 23:28:44 GMT 45.339020 3.818272 35,025 239 480 64
2018-10-15 23:28:40 GMT 45.344376 3.830763 35,025 239 480 64
2018-10-15 23:28:36 GMT 45.348629 3.840660 35,025 239 480 64
2018-10-15 23:28:33 GMT 45.352306 3.849301 35,000 239 479 64
2018-10-15 23:28:30 GMT 45.355728 3.857378 35,000 239 479 64
2018-10-15 23:28:26 GMT 45.360672 3.868888 35,000 239 479 64
2018-10-15 23:28:21 GMT 45.365063 3.879179 35,000 239 479 64
2018-10-15 23:28:18 GMT 45.368454 3.887133 35,000 239 479 64
2018-10-15 23:28:15 GMT 45.372417 3.896395 35,000 239 479 64
2018-10-15 23:28:11 GMT 45.376831 3.906686 35,000 239 478 0
2018-10-15 23:28:06 GMT 45.384380 3.924397 35,000 239 478 0
2018-10-15 23:28:01 GMT 45.388523 3.934177 35,000 239 477 0
2018-10-15 23:27:56 GMT 45.395367 3.950188 35,000 239 477 0
2018-10-15 23:27:53 GMT 45.397751 3.955863 35,000 239 477 0
2018-10-15 23:27:50 GMT 45.400681 3.962729 35,000 239 476 0
2018-10-15 23:27:46 GMT 45.405796 3.974706 35,000 239 476 0
2018-10-15 23:27:43 GMT 45.409195 3.982740 35,000 239 476 0
2018-10-15 23:27:39 GMT 45.413818 3.993596 35,000 239 476 0
2018-10-15 23:27:33 GMT 45.420834 4.010144 35,000 239 475 0
2018-10-15 23:27:30 GMT 45.423752 4.017007 35,000 239 475 64
2018-10-15 23:27:26 GMT 45.427872 4.026751 35,000 239 475 64
2018-10-15 23:27:23 GMT 45.431725 4.035801 35,000 239 475 64
2018-10-15 23:27:20 GMT 45.435608 4.044865 35,000 239 475 0
2018-10-15 23:27:16 GMT 45.440708 4.056970 35,000 239 474 0
2018-10-15 23:27:12 GMT 45.445541 4.068277 35,000 239 474 0
2018-10-15 23:27:08 GMT 45.450577 4.080178 35,000 239 473 0
2018-10-15 23:27:05 GMT 45.452023 4.083632 35,000 239 473 0
2018-10-15 23:27:01 GMT 45.457607 4.096695 35,000 239 473 0
2018-10-15 23:26:58 GMT 45.460464 4.103524 34,975 239 473 0
2018-10-15 23:26:55 GMT 45.463799 4.111432 34,975 240 472 64
2018-10-15 23:26:52 GMT 45.467194 4.119415 35,000 240 472 64
2018-10-15 23:26:49 GMT 45.470306 4.126740 34,975 240 472 64
2018-10-15 23:26:45 GMT 45.474884 4.137595 34,975 240 472 0
2018-10-15 23:26:41 GMT 45.478912 4.147208 34,975 240 472 0
2018-10-15 23:26:38 GMT 45.482071 4.154598 34,975 240 472 0
2018-10-15 23:26:33 GMT 45.488754 4.170489 34,975 239 471 0
2018-10-15 23:26:30 GMT 45.491135 4.176113 34,975 239 471 0
2018-10-15 23:26:26 GMT 45.496155 4.188002 34,975 239 471 -64
2018-10-15 23:26:22 GMT 45.500015 4.197170 34,975 239 471 -64
2018-10-15 23:26:18 GMT 45.505508 4.210052 35,000 239 470 -64
2018-10-15 23:26:14 GMT 45.510536 4.221966 35,000 239 470 64
2018-10-15 23:26:10 GMT 45.513702 4.229334 34,975 239 470 128
2018-10-15 23:26:07 GMT 45.518005 4.239546 34,975 239 470 128
2018-10-15 23:26:03 GMT 45.522736 4.250771 34,975 239 470 128
2018-10-15 23:26:00 GMT 45.524689 4.255306 34,975 239 470 64
2018-10-15 23:25:57 GMT 45.528973 4.265509 34,975 239 470 64
2018-10-15 23:25:53 GMT 45.533798 4.276821 34,950 239 471 0
2018-10-15 23:25:49 GMT 45.537121 4.284668 34,950 239 471 64
2018-10-15 23:25:46 GMT 45.540703 4.293176 34,950 240 470 0
2018-10-15 23:25:43 GMT 45.547829 4.310143 34,950 240 469 0
2018-10-15 23:25:40 GMT 45.547829 4.310143 34,950 240 470 64
2018-10-15 23:25:36 GMT 45.553272 4.323120 34,950 240 470 0
2018-10-15 23:25:32 GMT 45.557602 4.333420 34,950 240 469 0
2018-10-15 23:25:29 GMT 45.559280 4.337471 34,950 240 469 0
2018-10-15 23:25:25 GMT 45.564213 4.349281 34,950 240 469 0
2018-10-15 23:25:22 GMT 45.568218 4.358963 34,950 240 470 0
2018-10-15 23:25:18 GMT 45.573395 4.371420 34,950 240 469 0
2018-10-15 23:25:11 GMT 45.579483 4.386225 34,950 240 469 0
2018-10-15 23:25:07 GMT 45.584152 4.397613 34,950 240 469 0
2018-10-15 23:25:04 GMT 45.588558 4.408333 34,950 240 469 -64
2018-10-15 23:25:00 GMT 45.592987 4.419250 34,950 240 469 -64
2018-10-15 23:24:57 GMT 45.595310 4.425018 34,950 241 469 0
2018-10-15 23:24:54 GMT 45.598526 4.432916 34,950 241 469 0
2018-10-15 23:24:51 GMT 45.601780 4.440948 34,950 241 469 -64
2018-10-15 23:24:48 GMT 45.604752 4.448391 34,950 241 469 -64
2018-10-15 23:24:44 GMT 45.608669 4.458115 34,975 241 469 -64
2018-10-15 23:24:41 GMT 45.613266 4.469627 34,975 241 469 -64
2018-10-15 23:24:36 GMT 45.618259 4.482216 34,975 241 469 0
2018-10-15 23:24:33 GMT 45.621506 4.490327 34,975 241 469 -64
2018-10-15 23:24:30 GMT 45.624683 4.498283 34,975 241 469 -64
2018-10-15 23:24:27 GMT 45.626732 4.503433 34,975 241 469 -64
2018-10-15 23:24:24 GMT 45.630432 4.512634 34,975 240 469 -64
2018-10-15 23:24:21 GMT 45.634369 4.522281 34,975 240 469 -64
2018-10-15 23:24:18 GMT 45.637390 4.529784 35,000 240 469 0
2018-10-15 23:24:14 GMT 45.641373 4.539430 34,975 240 470 0
2018-10-15 23:24:11 GMT 45.644897 4.547938 35,000 239 469 -64
2018-10-15 23:24:08 GMT 45.648750 4.557060 35,000 239 470 0
2018-10-15 23:24:04 GMT 45.653408 4.567635 35,000 236 472 0
2018-10-15 23:24:01 GMT 45.656155 4.573814 35,000 237 470 0
2018-10-15 23:23:58 GMT 45.660141 4.582639 35,000 237 470 0
2018-10-15 23:23:50 GMT 45.670761 4.605147 35,000 236 469 -64
2018-10-15 23:23:47 GMT 45.672821 4.609435 35,000 236 469 -64
2018-10-15 23:23:43 GMT 45.678635 4.621560 35,000 236 469 0
2018-10-15 23:23:40 GMT 45.683338 4.631355 35,025 236 471 -64
2018-10-15 23:23:37 GMT 45.684906 4.634623 35,000 236 471 -64
2018-10-15 23:23:34 GMT 45.690399 4.646078 35,025 236 470 -128
2018-10-15 23:23:28 GMT 45.696095 4.658134 35,025 236 471 -64
2018-10-15 23:23:25 GMT 45.700287 4.666845 35,025 236 471 -64
2018-10-15 23:23:19 GMT 45.708115 4.683324 35,025 236 470 -64
2018-10-15 23:23:16 GMT 45.713085 4.693771 35,025 236 471 0
2018-10-15 23:23:08 GMT 45.725330 4.719521 35,050 236 471 0
2018-10-15 23:23:05 GMT 45.725330 4.719521 35,025 236 471 0
2018-10-15 23:22:58 GMT 45.733429 4.736648 35,025 236 472 128
2018-10-15 23:22:55 GMT 45.737061 4.744308 35,025 236 473 128
2018-10-15 23:22:51 GMT 45.746201 4.763645 35,000 236 474 64
2018-10-15 23:22:48 GMT 45.746201 4.763645 35,025 236 473 64
2018-10-15 23:22:45 GMT 45.749352 4.770264 35,025 236 474 0
2018-10-15 23:22:40 GMT 45.756332 4.785095 35,000 236 474 64
2018-10-15 23:22:37 GMT 45.758244 4.789009 35,000 236 474 64
2018-10-15 23:22:34 GMT 45.762955 4.798949 35,000 236 474 64
2018-10-15 23:22:30 GMT 45.771103 4.816232 35,000 236 474 0
2018-10-15 23:22:23 GMT 45.776539 4.827599 35,000 236 475 0
2018-10-15 23:22:18 GMT 45.782639 4.840549 35,000 236 475 0
2018-10-15 23:22:15 GMT 45.785755 4.847168 35,000 236 475 0
2018-10-15 23:22:12 GMT 45.790550 4.857262 35,000 236 475 0
2018-10-15 23:22:09 GMT 45.796230 4.869278 35,000 236 475 0
2018-10-15 23:22:05 GMT 45.802376 4.882256 35,000 236 476 0
2018-10-15 23:22:02 GMT 45.802376 4.882256 35,000 236 476 0
2018-10-15 23:21:57 GMT 45.808640 4.895548 35,000 236 476 64
2018-10-15 23:21:52 GMT 45.815922 4.910957 35,000 236 476 64
2018-10-15 23:21:47 GMT 45.820999 4.921741 35,000 236 476 64
2018-10-15 23:21:44 GMT 45.824162 4.928398 35,000 237 477 64
2018-10-15 23:21:41 GMT 45.827271 4.935139 35,000 237 477 64
2018-10-15 23:21:37 GMT 45.836197 4.954030 35,000 237 477 64
2018-10-15 23:21:34 GMT 45.836197 4.954030 34,975 237 478 0
2018-10-15 23:21:30 GMT 45.840919 4.964104 35,000 237 477 64
2018-10-15 23:21:26 GMT 45.846741 4.976463 34,975 237 478 0
2018-10-15 23:21:23 GMT 45.849670 4.982643 35,000 237 478 0
2018-10-15 23:21:19 GMT 45.855305 4.994728 35,000 237 478 0
2018-10-15 23:21:16 GMT 45.859360 5.003335 35,000 237 478 -64
2018-10-15 23:21:12 GMT 45.869362 5.024666 35,000 237 478 -64
2018-10-15 23:21:08 GMT 45.869362 5.024666 35,000 237 478 -64
2018-10-15 23:21:04 GMT 45.874603 5.035758 35,000 237 480 64
2018-10-15 23:21:01 GMT 45.877277 5.041420 35,000 237 478 -64
2018-10-15 23:20:58 GMT 45.880692 5.048687 35,025 237 478 -64
2018-10-15 23:20:55 GMT 45.884865 5.057625 35,000 237 478 -64
2018-10-15 23:20:51 GMT 45.889099 5.066689 35,000 237 478 -64
2018-10-15 23:20:48 GMT 45.894516 5.078229 35,025 237 479 -64
2018-10-15 23:20:45 GMT 45.896942 5.083387 35,025 237 479 0
2018-10-15 23:20:42 GMT 45.899624 5.089073 35,025 237 479 0
2018-10-15 23:20:37 GMT 45.907196 5.105293 35,025 237 480 0
2018-10-15 23:20:34 GMT 45.910080 5.111523 35,025 237 480 0
2018-10-15 23:20:31 GMT 45.915356 5.122787 35,025 237 478 64
2018-10-15 23:20:28 GMT 45.919781 5.132263 35,025 237 478 64
2018-10-15 23:20:25 GMT 45.921341 5.135639 35,025 237 478 64
2018-10-15 23:20:22 GMT 45.925278 5.144080 35,025 237 479 64
2018-10-15 23:20:19 GMT 45.933701 5.162100 35,000 237 480 64
2018-10-15 23:20:15 GMT 45.933701 5.162100 35,000 237 480 64
2018-10-15 23:20:12 GMT 45.937424 5.170029 35,000 237 480 64
2018-10-15 23:20:09 GMT 45.940823 5.177307 35,000 237 480 64
2018-10-15 23:20:05 GMT 45.946316 5.189186 35,000 237 480 0
2018-10-15 23:20:01 GMT 45.951805 5.200996 35,000 237 480 64
2018-10-15 23:19:58 GMT 45.955536 5.208926 35,000 237 481 0
2018-10-15 23:19:54 GMT 45.959164 5.216789 35,000 237 480 0
2018-10-15 23:19:51 GMT 45.963409 5.225875 35,000 237 480 0
2018-10-15 23:19:47 GMT 45.968380 5.236565 35,000 237 480 0
2018-10-15 23:19:44 GMT 45.971786 5.243895 35,000 237 480 0
2018-10-15 23:19:41 GMT 45.976547 5.254077 35,000 237 480 0
2018-10-15 23:19:38 GMT 45.979202 5.259772 35,000 237 480 0
2018-10-15 23:19:34 GMT 45.984421 5.271026 35,000 237 480 0
2018-10-15 23:19:29 GMT 45.993530 5.290654 35,000 237 480 0
2018-10-15 23:19:24 GMT 45.996735 5.297621 35,025 237 480 0
2018-10-15 23:19:21 GMT 46.000454 5.305641 35,000 237 481 0
2018-10-15 23:19:18 GMT 46.003281 5.311756 35,025 237 481 0
2018-10-15 23:19:13 GMT 46.010101 5.326560 35,025 237 480 0
2018-10-15 23:19:10 GMT 46.017166 5.341827 35,025 237 480 0
2018-10-15 23:19:07 GMT 46.017166 5.341827 35,025 237 480 0
2018-10-15 23:19:03 GMT 46.022148 5.352539 35,025 237 480 0
2018-10-15 23:19:00 GMT 46.026352 5.361663 35,025 237 480 0
2018-10-15 23:18:57 GMT 46.029236 5.367826 35,025 237 480 -64
2018-10-15 23:18:54 GMT 46.038666 5.388191 35,025 237 480 0
2018-10-15 23:18:51 GMT 46.038666 5.388191 35,025 237 480 -64
2018-10-15 23:18:48 GMT 46.041328 5.393944 35,025 237 480 -64
2018-10-15 23:18:42 GMT 46.048122 5.408569 35,025 237 480 0
2018-10-15 23:18:39 GMT 46.051804 5.416528 35,025 237 480 0
2018-10-15 23:18:36 GMT 46.055477 5.424500 35,025 237 480 0
2018-10-15 23:18:33 GMT 46.059387 5.433014 35,025 237 480 0
2018-10-15 23:18:30 GMT 46.062786 5.440361 35,025 237 480 0
2018-10-15 23:18:27 GMT 46.066956 5.449353 35,025 237 480 0
2018-10-15 23:18:23 GMT 46.071678 5.459587 35,025 237 480 0
2018-10-15 23:18:20 GMT 46.075378 5.467507 35,025 237 480 0
2018-10-15 23:18:17 GMT 46.079548 5.476547 35,025 237 480 0
2018-10-15 23:18:12 GMT 46.088951 5.497009 35,025 237 480 64
2018-10-15 23:18:09 GMT 46.088951 5.497009 35,025 237 480 64
2018-10-15 23:18:06 GMT 46.092396 5.504425 35,050 237 480 64
2018-10-15 23:18:02 GMT 46.097378 5.515137 35,025 237 480 64
2018-10-15 23:17:59 GMT 46.100510 5.521970 35,025 237 480 64
2018-10-15 23:17:56 GMT 46.104950 5.531683 35,025 237 481 64
2018-10-15 23:17:52 GMT 46.110641 5.543976 35,025 237 481 64
2018-10-15 23:17:49 GMT 46.113342 5.549881 35,025 237 481 0
2018-10-15 23:17:45 GMT 46.117538 5.558881 35,025 237 481 0
2018-10-15 23:17:41 GMT 46.122482 5.569666 35,025 237 481 0
2018-10-15 23:17:38 GMT 46.126419 5.578174 35,025 237 480 0
2018-10-15 23:17:35 GMT 46.130753 5.587646 35,025 237 480 64
2018-10-15 23:17:31 GMT 46.135803 5.598606 35,025 237 480 64
2018-10-15 23:17:28 GMT 46.138184 5.603764 35,025 237 480 64
2018-10-15 23:17:24 GMT 46.147793 5.624725 35,025 237 480 64
2018-10-15 23:17:21 GMT 46.147793 5.624725 35,000 237 480 64
2018-10-15 23:17:18 GMT 46.150452 5.630493 35,000 237 480 64
2018-10-15 23:17:15 GMT 46.155659 5.641754 35,000 237 480 64
2018-10-15 23:17:12 GMT 46.159569 5.650269 35,000 237 480 64
2018-10-15 23:17:08 GMT 46.162968 5.657753 35,000 237 480 0
2018-10-15 23:17:04 GMT 46.169678 5.672362 35,000 237 480 0
2018-10-15 23:17:01 GMT 46.171600 5.676515 35,000 237 480 0
2018-10-15 23:16:58 GMT 46.175213 5.684395 35,000 237 480 0
2018-10-15 23:16:55 GMT 46.179958 5.694763 35,000 237 479 64
2018-10-15 23:16:52 GMT 46.185360 5.706573 35,000 237 479 64
2018-10-15 23:16:48 GMT 46.187714 5.711685 35,000 237 479 64
2018-10-15 23:16:45 GMT 46.191364 5.719688 35,000 237 479 64
2018-10-15 23:16:42 GMT 46.196320 5.730442 35,000 237 479 64
2018-10-15 23:16:37 GMT 46.200489 5.739601 35,000 237 479 64
2018-10-15 23:16:34 GMT 46.204910 5.749146 35,000 237 479 64
2018-10-15 23:16:31 GMT 46.212173 5.765144 35,000 237 478 64
2018-10-15 23:16:28 GMT 46.212173 5.765144 35,000 237 478 64
2018-10-15 23:16:25 GMT 46.217110 5.775856 35,000 237 478 0
2018-10-15 23:16:20 GMT 46.225662 5.794618 35,000 237 478 0
2018-10-15 23:16:17 GMT 46.225662 5.794618 35,000 237 478 0
2018-10-15 23:16:14 GMT 46.229553 5.803126 35,000 237 478 0
2018-10-15 23:16:10 GMT 46.234451 5.813911 35,000 237 478 0
2018-10-15 23:16:07 GMT 46.239315 5.824539 35,000 237 478 0
2018-10-15 23:16:02 GMT 46.248203 5.844040 35,000 237 477 0
2018-10-15 23:15:59 GMT 46.248203 5.844040 35,000 237 477 0
2018-10-15 23:15:56 GMT 46.252304 5.853033 35,000 237 477 0
2018-10-15 23:15:53 GMT 46.254639 5.858192 35,000 237 477 0
2018-10-15 23:15:50 GMT 46.258820 5.867317 35,000 237 477 64
2018-10-15 23:15:47 GMT 46.263195 5.876862 35,000 237 477 64
2018-10-15 23:15:43 GMT 46.267456 5.886327 35,000 237 477 64
2018-10-15 23:15:40 GMT 46.271210 5.894567 35,000 237 477 0
2018-10-15 23:15:36 GMT 46.274551 5.901869 34,975 237 476 64
2018-10-15 23:15:33 GMT 46.283539 5.921768 35,000 237 476 0
2018-10-15 23:15:29 GMT 46.283539 5.921768 34,975 237 476 64
2018-10-15 23:15:25 GMT 46.292038 5.940455 34,975 237 475 64
2018-10-15 23:15:22 GMT 46.292038 5.940455 34,975 237 475 64
2018-10-15 23:15:19 GMT 46.297119 5.951575 34,975 237 475 0
2018-10-15 23:15:16 GMT 46.300552 5.959145 34,975 237 475 64
2018-10-15 23:15:12 GMT 46.305138 5.969353 34,975 237 475 0
2018-10-15 23:15:09 GMT 46.307980 5.975601 34,975 237 475 64
2018-10-15 23:15:06 GMT 46.312309 5.985146 34,975 237 475 64
2018-10-15 23:15:03 GMT 46.316730 5.994827 34,975 237 475 0
2018-10-15 23:14:59 GMT 46.320282 6.002689 34,975 237 475 64
2018-10-15 23:14:56 GMT 46.324860 6.012737 34,975 237 475 0
2018-10-15 23:14:53 GMT 46.327251 6.018036 34,975 237 475 0
2018-10-15 23:14:49 GMT 46.332092 6.028748 34,975 237 475 0
2018-10-15 23:14:46 GMT 46.336933 6.039459 34,975 237 474 -64
2018-10-15 23:14:43 GMT 46.339005 6.044021 34,975 237 474 -64
2018-10-15 23:14:40 GMT 46.344288 6.055733 34,975 237 474 0
2018-10-15 23:14:37 GMT 46.346695 6.061037 34,975 237 474 0
2018-10-15 23:14:33 GMT 46.350761 6.070015 34,975 237 474 0
2018-10-15 23:14:30 GMT 46.354843 6.078990 34,975 237 474 -64
2018-10-15 23:14:27 GMT 46.358440 6.086975 34,975 237 474 -64
2018-10-15 23:14:23 GMT 46.363586 6.098283 35,000 237 474 -64
2018-10-15 23:14:20 GMT 46.367146 6.106133 35,000 237 474 -64
2018-10-15 23:14:17 GMT 46.370499 6.113548 35,000 237 474 -64
2018-10-15 23:14:14 GMT 46.374313 6.121994 35,000 237 474 0
2018-10-15 23:14:11 GMT 46.377621 6.129341 35,000 237 474 0
2018-10-15 23:14:08 GMT 46.380936 6.136601 35,000 237 474 0
2018-10-15 23:14:05 GMT 46.386280 6.148499 35,000 237 474 0
2018-10-15 23:14:01 GMT 46.389862 6.156430 35,000 237 474 0
2018-10-15 23:13:57 GMT 46.394714 6.167148 35,000 237 474 0
2018-10-15 23:13:54 GMT 46.398289 6.175072 35,000 237 474 0
2018-10-15 23:13:51 GMT 46.401596 6.182419 35,000 237 474 0
2018-10-15 23:13:48 GMT 46.405411 6.190933 35,000 237 474 0
2018-10-15 23:13:45 GMT 46.412582 6.206795 35,025 237 474 0
2018-10-15 23:13:42 GMT 46.412582 6.206795 35,000 237 474 64
2018-10-15 23:13:39 GMT 46.416641 6.215850 35,000 237 474 64
2018-10-15 23:13:36 GMT 46.420670 6.224760 35,000 237 474 0
2018-10-15 23:13:32 GMT 46.427338 6.239616 35,000 237 474 0
2018-10-15 23:13:29 GMT 46.427338 6.239616 35,000 237 474 0
2018-10-15 23:13:26 GMT 46.432178 6.250397 35,000 237 474 0
2018-10-15 23:13:23 GMT 46.435226 6.257183 35,000 237 474 0
2018-10-15 23:13:20 GMT 46.438293 6.264016 35,000 238 474 64
2018-10-15 23:13:17 GMT 46.442188 6.272575 35,000 237 474 64
2018-10-15 23:13:14 GMT 46.450058 6.290142 35,000 238 474 64
2018-10-15 23:13:11 GMT 46.450058 6.290142 35,000 238 474 0
2018-10-15 23:13:08 GMT 46.452801 6.296333 35,000 238 474 0
2018-10-15 23:13:05 GMT 46.458664 6.309368 35,000 238 474 0
2018-10-15 23:12:59 GMT 46.464020 6.321292 35,000 238 474 0
2018-10-15 23:12:56 GMT 46.469795 6.334167 35,000 238 474 0
2018-10-15 23:12:53 GMT 46.471115 6.337169 35,000 238 474 0
2018-10-15 23:12:50 GMT 46.473705 6.342957 35,000 238 474 0
2018-10-15 23:12:47 GMT 46.478302 6.353112 35,000 238 474 0
2018-10-15 23:12:44 GMT 46.482101 6.361687 35,000 238 474 0
2018-10-15 23:12:40 GMT 46.485901 6.370195 35,000 238 474 0
2018-10-15 23:12:37 GMT 46.490707 6.380913 35,000 238 474 64
2018-10-15 23:12:33 GMT 46.494282 6.388893 35,000 238 473 0
2018-10-15 23:12:30 GMT 46.497540 6.396240 35,000 238 473 64
2018-10-15 23:12:27 GMT 46.502892 6.408188 35,000 238 473 64
2018-10-15 23:12:23 GMT 46.506149 6.415535 35,000 238 473 0
2018-10-15 23:12:19 GMT 46.510712 6.425796 35,000 238 473 0
2018-10-15 23:12:16 GMT 46.514576 6.434418 35,000 238 474 0
2018-10-15 23:12:12 GMT 46.519371 6.445198 35,000 238 474 0
2018-10-15 23:12:09 GMT 46.526447 6.461060 35,000 238 473 0
2018-10-15 23:12:06 GMT 46.526447 6.461060 35,000 238 473 64
2018-10-15 23:12:03 GMT 46.529709 6.468469 35,000 238 473 0
2018-10-15 23:12:00 GMT 46.533569 6.477058 35,000 238 473 0
2018-10-15 23:11:57 GMT 46.537582 6.486154 35,000 238 473 0
2018-10-15 23:11:54 GMT 46.541107 6.494059 35,000 238 473 64
2018-10-15 23:11:51 GMT 46.545395 6.503769 35,000 238 473 64
2018-10-15 23:11:48 GMT 46.547699 6.508863 35,000 238 473 64
2018-10-15 23:11:45 GMT 46.552002 6.518577 35,000 238 473 64
2018-10-15 23:11:42 GMT 46.556259 6.528224 35,000 238 473 64
2018-10-15 23:11:39 GMT 46.559265 6.535011 35,000 238 474 0
2018-10-15 23:11:36 GMT 46.562618 6.542496 35,000 238 473 0
2018-10-15 23:11:33 GMT 46.565643 6.549325 35,000 238 473 0
2018-10-15 23:11:30 GMT 46.570450 6.560111 35,000 238 473 0
2018-10-15 23:11:24 GMT 46.577236 6.575455 35,000 238 473 0
2018-10-15 23:11:21 GMT 46.581055 6.584038 35,000 238 473 64
2018-10-15 23:11:18 GMT 46.583084 6.588581 35,000 238 473 0
2018-10-15 23:11:15 GMT 46.587105 6.597633 35,000 238 473 0
2018-10-15 23:11:12 GMT 46.591644 6.607874 35,000 238 473 0
2018-10-15 23:11:07 GMT 46.597160 6.620361 35,000 238 473 0
2018-10-15 23:11:04 GMT 46.599953 6.626678 35,000 238 473 0
2018-10-15 23:11:01 GMT 46.603500 6.634670 35,000 238 473 -64
2018-10-15 23:10:57 GMT 46.608261 6.645389 35,000 238 473 -64
2018-10-15 23:10:54 GMT 46.613083 6.656273 35,000 238 472 -64
2018-10-15 23:10:51 GMT 46.615814 6.662471 35,000 238 472 -64
2018-10-15 23:10:48 GMT 46.623138 6.679001 35,000 238 471 0
2018-10-15 23:10:45 GMT 46.623138 6.679001 35,000 238 471 0
2018-10-15 23:10:42 GMT 46.629654 6.693695 35,000 238 471 0
2018-10-15 23:10:36 GMT 46.633377 6.702209 35,000 238 471 0
2018-10-15 23:10:32 GMT 46.638428 6.713584 35,000 238 471 0
2018-10-15 23:10:29 GMT 46.640671 6.718676 35,000 238 471 0
2018-10-15 23:10:26 GMT 46.644470 6.727250 35,000 238 471 0
2018-10-15 23:10:23 GMT 46.647995 6.735237 35,000 238 471 0
2018-10-15 23:10:20 GMT 46.658524 6.759070 35,000 238 471 0
2018-10-15 23:10:15 GMT 46.658524 6.759070 35,000 238 471 0
2018-10-15 23:10:12 GMT 46.662003 6.766975 35,025 238 471 -64
2018-10-15 23:10:08 GMT 46.665253 6.774411 35,025 238 471 -64
2018-10-15 23:10:05 GMT 46.670242 6.785732 35,025 238 471 0
2018-10-15 23:10:02 GMT 46.673321 6.792641 35,025 238 471 0
2018-10-15 23:09:59 GMT 46.676300 6.799370 35,025 238 471 64
2018-10-15 23:09:56 GMT 46.680023 6.807884 35,025 238 471 0
2018-10-15 23:09:52 GMT 46.686077 6.821548 35,025 238 471 64
2018-10-15 23:09:49 GMT 46.688076 6.826149 35,025 238 471 64
2018-10-15 23:09:46 GMT 46.692127 6.835281 35,025 238 471 64
2018-10-15 23:09:43 GMT 46.695896 6.843796 35,025 238 471 0
2018-10-15 23:09:40 GMT 46.704838 6.864189 35,025 238 471 0
2018-10-15 23:09:35 GMT 46.704838 6.864189 35,025 238 471 0
2018-10-15 23:09:32 GMT 46.708374 6.872216 35,025 238 471 0
2018-10-15 23:09:29 GMT 46.715881 6.889232 35,025 238 471 0
2018-10-15 23:09:26 GMT 46.715881 6.889232 35,025 238 471 0
2018-10-15 23:09:23 GMT 46.718430 6.895020 35,025 238 471 0
2018-10-15 23:09:20 GMT 46.728149 6.917099 35,025 238 471 0
2018-10-15 23:09:16 GMT 46.728149 6.917099 35,025 238 471 0
2018-10-15 23:09:13 GMT 46.730392 6.922258 35,025 238 471 0
2018-10-15 23:09:09 GMT 46.735420 6.933678 35,025 238 471 0
2018-10-15 23:09:06 GMT 46.738953 6.941685 35,025 238 471 0
2018-10-15 23:09:03 GMT 46.742706 6.950192 35,025 238 471 0
2018-10-15 23:09:00 GMT 46.746460 6.958767 35,025 238 471 64
2018-10-15 23:08:57 GMT 46.749432 6.965607 35,025 238 470 128
2018-10-15 23:08:54 GMT 46.753670 6.975220 35,025 238 470 128
2018-10-15 23:08:51 GMT 46.755890 6.980338 35,025 238 470 64
2018-10-15 23:08:48 GMT 46.759674 6.988953 35,025 238 470 64
2018-10-15 23:08:43 GMT 46.766647 7.004856 35,025 238 470 64
2018-10-15 23:08:39 GMT 46.772049 7.017182 35,025 238 471 64
2018-10-15 23:08:36 GMT 46.773605 7.020800 35,025 238 471 64
2018-10-15 23:08:33 GMT 46.777359 7.029374 35,000 238 470 0
2018-10-15 23:08:30 GMT 46.782112 7.040245 35,025 238 471 64
2018-10-15 23:08:27 GMT 46.784317 7.045318 35,025 238 471 64
2018-10-15 23:08:23 GMT 46.788815 7.055557 35,025 238 471 0
2018-10-15 23:08:20 GMT 46.792542 7.064140 35,025 238 471 0
2018-10-15 23:08:17 GMT 46.796539 7.073320 35,025 238 471 0
2018-10-15 23:08:14 GMT 46.802223 7.086388 35,025 238 471 -64
2018-10-15 23:08:08 GMT 46.806702 7.096699 35,000 238 470 0
2018-10-15 23:08:05 GMT 46.809673 7.103485 35,025 238 470 64
2018-10-15 23:08:02 GMT 46.813705 7.112710 35,000 238 470 64
2018-10-15 23:07:59 GMT 46.816910 7.120078 35,000 238 469 0
2018-10-15 23:07:55 GMT 46.821358 7.130333 35,000 238 469 0
2018-10-15 23:07:52 GMT 46.826057 7.141113 35,000 238 469 0
2018-10-15 23:07:48 GMT 46.830250 7.150795 35,025 238 469 0
2018-10-15 23:07:45 GMT 46.836411 7.165029 35,025 238 468 0
2018-10-15 23:07:39 GMT 46.840622 7.174742 35,000 238 468 0
2018-10-15 23:07:36 GMT 46.843826 7.182111 35,000 238 468 64
2018-10-15 23:07:32 GMT 46.848541 7.192963 35,000 238 468 64
2018-10-15 23:07:29 GMT 46.852779 7.202705 35,000 238 468 -64
2018-10-15 23:07:26 GMT 46.857651 7.213998 35,000 238 468 0
2018-10-15 23:07:22 GMT 46.859856 7.219116 35,000 238 468 0
2018-10-15 23:07:19 GMT 46.864929 7.230813 35,025 238 468 -64
2018-10-15 23:07:16 GMT 46.867035 7.235636 35,025 238 468 -64
2018-10-15 23:07:12 GMT 46.874889 7.253864 35,025 238 467 64
2018-10-15 23:07:09 GMT 46.874889 7.253864 35,025 238 467 0
2018-10-15 23:07:06 GMT 46.879036 7.263442 35,025 238 466 128
2018-10-15 23:07:03 GMT 46.883224 7.273090 35,025 238 466 64
2018-10-15 23:07:00 GMT 46.884933 7.277069 35,000 238 466 0
2018-10-15 23:06:57 GMT 46.888138 7.284416 35,000 238 466 0
2018-10-15 23:06:54 GMT 46.891556 7.292387 35,000 238 466 128
2018-10-15 23:06:51 GMT 46.895004 7.300346 35,000 238 466 0
2018-10-15 23:06:48 GMT 46.898911 7.309359 35,000 238 465 192
2018-10-15 23:06:45 GMT 46.901871 7.316208 35,000 238 465 256
2018-10-15 23:06:42 GMT 46.905533 7.324722 35,000 238 465 64
2018-10-15 23:06:39 GMT 46.909431 7.333726 35,000 238 465 256
2018-10-15 23:06:36 GMT 46.913624 7.343374 35,000 238 465 64
2018-10-15 23:06:33 GMT 46.916061 7.349030 35,000 238 466 0
2018-10-15 23:06:30 GMT 46.919487 7.356966 34,975 238 465 128
2018-10-15 23:06:27 GMT 46.926590 7.373474 34,975 238 465 0
2018-10-15 23:06:24 GMT 46.926590 7.373474 34,975 238 465 0
2018-10-15 23:06:21 GMT 46.930058 7.381404 34,975 238 464 64
2018-10-15 23:06:18 GMT 46.933685 7.389925 34,975 238 464 64
2018-10-15 23:06:15 GMT 46.938446 7.400940 34,975 238 464 64
2018-10-15 23:06:12 GMT 46.941044 7.406898 34,975 238 464 64
2018-10-15 23:06:09 GMT 46.944626 7.415222 34,975 238 462 64
2018-10-15 23:06:06 GMT 46.947327 7.421471 34,975 238 464 64
2018-10-15 23:06:03 GMT 46.950771 7.429434 34,975 238 464 64
2018-10-15 23:06:00 GMT 46.953690 7.436234 34,975 238 463 64
2018-10-15 23:05:57 GMT 46.957764 7.445778 34,975 238 462 64
2018-10-15 23:05:54 GMT 46.962132 7.455914 34,975 238 462 64
2018-10-15 23:05:51 GMT 46.964828 7.462182 34,975 238 462 0
2018-10-15 23:05:48 GMT 46.968971 7.471830 34,975 238 462 0
2018-10-15 23:05:45 GMT 46.971161 7.476901 34,975 238 461 0
2018-10-15 23:05:42 GMT 46.974518 7.484711 34,975 238 462 0
2018-10-15 23:05:39 GMT 46.978424 7.493803 34,975 238 461 0
2018-10-15 23:05:36 GMT 46.982056 7.502254 34,975 238 461 64
2018-10-15 23:05:33 GMT 46.988297 7.516846 34,975 239 460 128
2018-10-15 23:05:27 GMT 46.991924 7.525353 34,950 239 460 64
2018-10-15 23:05:24 GMT 46.995071 7.532639 34,950 239 460 128
2018-10-15 23:05:21 GMT 46.998394 7.540424 34,950 239 460 64
2018-10-15 23:05:18 GMT 47.001560 7.547819 34,950 239 460 64
2018-10-15 23:05:14 GMT 47.006077 7.558523 34,975 239 456 0
2018-10-15 23:05:10 GMT 47.010872 7.569791 34,950 239 459 0
2018-10-15 23:05:07 GMT 47.013748 7.576515 34,950 239 458 -64
2018-10-15 23:05:04 GMT 47.017574 7.585496 34,950 239 459 0
2018-10-15 23:05:01 GMT 47.021896 7.595604 34,950 239 459 -64
2018-10-15 23:04:58 GMT 47.024742 7.602328 34,950 239 458 -64
2018-10-15 23:04:54 GMT 47.028580 7.611259 34,975 239 458 -64
2018-10-15 23:04:51 GMT 47.031216 7.617469 34,975 239 458 -64
2018-10-15 23:04:48 GMT 47.035721 7.628082 34,975 239 458 0
2018-10-15 23:04:45 GMT 47.038147 7.633781 34,975 239 457 0
2018-10-15 23:04:42 GMT 47.041920 7.642681 34,975 239 457 0
2018-10-15 23:04:39 GMT 47.044994 7.649935 34,975 239 456 0
2018-10-15 23:04:36 GMT 47.048355 7.657814 34,975 239 456 0
2018-10-15 23:04:33 GMT 47.052628 7.667894 34,975 239 456 0
2018-10-15 23:04:30 GMT 47.055237 7.674091 34,975 239 456 0
2018-10-15 23:04:27 GMT 47.059067 7.682945 34,975 239 456 0
2018-10-15 23:04:24 GMT 47.061172 7.688026 34,975 239 456 0
2018-10-15 23:04:21 GMT 47.065475 7.698106 34,975 239 456 0
2018-10-15 23:04:18 GMT 47.069527 7.707613 34,975 239 455 0
2018-10-15 23:04:15 GMT 47.072800 7.715355 34,975 238 456 64
2018-10-15 23:04:12 GMT 47.075672 7.722051 34,975 238 456 64
2018-10-15 23:04:08 GMT 47.081635 7.736092 34,975 238 456 64
2018-10-15 23:04:05 GMT 47.083099 7.739456 34,975 238 456 64
2018-10-15 23:04:02 GMT 47.087822 7.750573 34,975 238 456 0
2018-10-15 23:03:59 GMT 47.089497 7.754517 34,975 238 456 0
2018-10-15 23:03:56 GMT 47.093307 7.763420 34,975 238 456 0
2018-10-15 23:03:53 GMT 47.097839 7.773994 35,000 238 456 0
2018-10-15 23:03:50 GMT 47.100670 7.780715 35,000 239 457 0
2018-10-15 23:03:47 GMT 47.103325 7.786912 34,975 239 457 0
2018-10-15 23:03:44 GMT 47.110245 7.803177 35,000 239 456 -64
2018-10-15 23:03:41 GMT 47.110245 7.803177 35,000 239 456 -64
2018-10-15 23:03:37 GMT 47.114731 7.813751 35,000 239 456 0
2018-10-15 23:03:34 GMT 47.118080 7.821632 35,000 239 456 0
2018-10-15 23:03:31 GMT 47.121368 7.829407 35,000 239 456 0
2018-10-15 23:03:28 GMT 47.125202 7.838463 35,000 239 457 0
2018-10-15 23:03:24 GMT 47.129208 7.847900 35,000 239 457 0
2018-10-15 23:03:21 GMT 47.133499 7.857971 35,000 239 457 0
2018-10-15 23:03:17 GMT 47.139961 7.873113 35,000 239 457 0
2018-10-15 23:03:14 GMT 47.143295 7.880974 35,000 239 457 -64
2018-10-15 23:03:11 GMT 47.143295 7.880974 35,000 239 457 0
2018-10-15 23:03:08 GMT 47.146866 7.889351 35,000 239 457 0
2018-10-15 23:03:05 GMT 47.151855 7.901161 35,025 239 457 0
2018-10-15 23:03:02 GMT 47.154007 7.906174 35,025 239 457 -64
2018-10-15 23:02:59 GMT 47.157120 7.913452 35,025 239 457 0
2018-10-15 23:02:56 GMT 47.160488 7.921354 35,025 239 457 -64
2018-10-15 23:02:53 GMT 47.163609 7.928678 35,025 238 457 0
2018-10-15 23:02:50 GMT 47.168125 7.939312 35,025 239 458 0
2018-10-15 23:02:46 GMT 47.171448 7.947098 35,025 239 458 0
2018-10-15 23:02:43 GMT 47.174828 7.955017 35,025 239 458 0
2018-10-15 23:02:40 GMT 47.178635 7.963989 35,025 239 458 0
2018-10-15 23:02:37 GMT 47.182709 7.973534 35,025 239 458 0
2018-10-15 23:02:34 GMT 47.184128 7.976898 35,025 239 458 0
2018-10-15 23:02:31 GMT 47.189346 7.989189 35,025 239 458 0
2018-10-15 23:02:28 GMT 47.192005 7.995512 35,025 239 458 64
2018-10-15 23:02:25 GMT 47.195343 8.003403 35,025 239 459 64
2018-10-15 23:02:22 GMT 47.199371 8.012947 35,025 239 459 64
2018-10-15 23:02:19 GMT 47.201317 8.017484 35,025 239 459 64
2018-10-15 23:02:16 GMT 47.205093 8.026543 35,025 239 460 64
2018-10-15 23:02:13 GMT 47.211464 8.041851 35,025 239 459 64
2018-10-15 23:02:07 GMT 47.215000 8.050302 35,025 239 459 64
2018-10-15 23:02:04 GMT 47.218826 8.059502 35,025 239 459 64
2018-10-15 23:02:01 GMT 47.222076 8.067345 35,025 239 459 64
2018-10-15 23:01:58 GMT 47.225151 8.074881 35,025 239 459 64
2018-10-15 23:01:55 GMT 47.228176 8.082205 35,025 240 460 64
2018-10-15 23:01:52 GMT 47.231873 8.091293 35,000 240 460 64
2018-10-15 23:01:49 GMT 47.234940 8.098846 35,000 240 460 64
2018-10-15 23:01:46 GMT 47.240559 8.112558 35,000 240 460 64
2018-10-15 23:01:40 GMT 47.244984 8.123404 35,025 240 460 0
2018-10-15 23:01:37 GMT 47.251965 8.140517 35,025 240 460 0
2018-10-15 23:01:34 GMT 47.251965 8.140517 35,025 240 460 0
2018-10-15 23:01:31 GMT 47.254524 8.146855 35,025 240 460 0
2018-10-15 23:01:28 GMT 47.258484 8.156504 35,025 240 460 64
2018-10-15 23:01:25 GMT 47.261044 8.162842 35,025 240 460 64
2018-10-15 23:01:22 GMT 47.267094 8.177772 35,025 240 460 64
2018-10-15 23:01:16 GMT 47.271744 8.189140 35,025 240 460 64
2018-10-15 23:01:13 GMT 47.274307 8.195526 35,025 240 460 0
2018-10-15 23:01:10 GMT 47.277569 8.203548 35,025 240 460 0
2018-10-15 23:01:07 GMT 47.281059 8.212139 35,025 240 460 0
2018-10-15 23:01:04 GMT 47.284084 8.219604 35,025 240 460 0
2018-10-15 23:01:01 GMT 47.287811 8.228691 35,025 240 460 0
2018-10-15 23:00:58 GMT 47.290649 8.235661 35,025 240 460 64
2018-10-15 23:00:55 GMT 47.294724 8.245789 35,025 240 460 64
2018-10-15 23:00:52 GMT 47.296646 8.250526 35,025 240 460 64
2018-10-15 23:00:49 GMT 47.300381 8.259676 35,025 240 460 64
2018-10-15 23:00:46 GMT 47.304337 8.269395 35,025 240 460 0
2018-10-15 23:00:43 GMT 47.307129 8.276276 35,025 240 460 0
2018-10-15 23:00:39 GMT 47.312389 8.289325 35,025 240 460 64
2018-10-15 23:00:36 GMT 47.315044 8.295875 35,025 240 460 64
2018-10-15 23:00:33 GMT 47.317566 8.302094 35,025 240 460 0
2018-10-15 23:00:30 GMT 47.322350 8.313974 35,025 240 460 0
2018-10-15 23:00:27 GMT 47.325027 8.320496 35,025 240 460 0
2018-10-15 23:00:24 GMT 47.327545 8.326744 35,025 240 460 64
2018-10-15 23:00:21 GMT 47.332455 8.338905 35,025 240 460 64
2018-10-15 23:00:18 GMT 47.334045 8.342949 35,025 240 460 64
2018-10-15 23:00:15 GMT 47.337524 8.351532 35,000 240 460 64
2018-10-15 23:00:12 GMT 47.340740 8.359539 35,000 240 460 128
2018-10-15 23:00:09 GMT 47.344025 8.367599 35,000 240 461 64
2018-10-15 23:00:06 GMT 47.348373 8.378448 35,000 240 460 64
2018-10-15 23:00:02 GMT 47.352097 8.387709 35,000 240 461 64
2018-10-15 22:59:58 GMT 47.359501 8.406090 35,000 240 461 0
2018-10-15 22:59:52 GMT 47.362289 8.412987 35,000 240 461 0
2018-10-15 22:59:49 GMT 47.366016 8.422288 35,000 240 460 64
2018-10-15 22:59:46 GMT 47.369461 8.430880 35,000 240 460 64
2018-10-15 22:59:43 GMT 47.372269 8.437775 35,000 240 460 64
2018-10-15 22:59:40 GMT 47.375469 8.445740 35,000 240 460 64
2018-10-15 22:59:37 GMT 47.378494 8.453275 35,000 240 460 64
2018-10-15 22:59:34 GMT 47.382870 8.464191 35,000 240 460 64
2018-10-15 22:59:31 GMT 47.384964 8.469332 34,975 240 460 64
2018-10-15 22:59:28 GMT 47.389339 8.480248 35,000 240 460 64
2018-10-15 22:59:25 GMT 47.393295 8.490037 35,000 240 460 0
2018-10-15 22:59:22 GMT 47.394882 8.494011 35,000 240 460 0
2018-10-15 22:59:19 GMT 47.398636 8.503281 35,000 240 460 0
2018-10-15 22:59:16 GMT 47.401630 8.510742 35,000 240 460 64
2018-10-15 22:59:13 GMT 47.405773 8.521095 35,000 240 460 64
2018-10-15 22:59:10 GMT 47.408936 8.528961 35,000 240 460 64
2018-10-15 22:59:07 GMT 47.411125 8.534335 35,000 240 460 0
2018-10-15 22:59:04 GMT 47.414795 8.543518 35,000 240 460 0
2018-10-15 22:59:00 GMT 47.418945 8.553842 35,000 240 459 0
2018-10-15 22:58:57 GMT 47.421928 8.561307 35,000 240 459 0
2018-10-15 22:58:54 GMT 47.425690 8.570503 35,000 240 459 0
2018-10-15 22:58:51 GMT 47.430725 8.583138 35,000 240 459 0
2018-10-15 22:58:45 GMT 47.434662 8.592957 35,000 240 459 0
2018-10-15 22:58:42 GMT 47.437134 8.599205 35,000 240 459 0
2018-10-15 22:58:39 GMT 47.441574 8.610191 35,000 240 459 -64
2018-10-15 22:58:36 GMT 47.445667 8.620535 35,000 240 459 -64
2018-10-15 22:58:30 GMT 47.451874 8.636009 35,000 240 459 0
2018-10-15 22:58:27 GMT 47.453934 8.641228 35,025 240 458 0
2018-10-15 22:58:24 GMT 47.457138 8.649193 35,025 240 459 -64
2018-10-15 22:58:21 GMT 47.464233 8.667046 35,025 240 458 -64
2018-10-15 22:58:18 GMT 47.464233 8.667046 35,025 240 458 0
2018-10-15 22:58:15 GMT 47.467438 8.675011 35,025 240 458 0
2018-10-15 22:58:12 GMT 47.470200 8.681946 35,025 240 458 0
2018-10-15 22:58:09 GMT 47.473892 8.691216 35,025 240 458 0
2018-10-15 22:58:06 GMT 47.478115 8.701876 35,025 240 458 0
2018-10-15 22:58:03 GMT 47.480759 8.708450 35,025 240 458 0
2018-10-15 22:58:00 GMT 47.482819 8.713600 35,025 240 458 0
2018-10-15 22:57:57 GMT 47.487377 8.725046 35,025 240 458 0
2018-10-15 22:57:54 GMT 47.489426 8.730187 35,025 240 458 0
2018-10-15 22:57:50 GMT 47.495338 8.744976 35,025 240 459 0
2018-10-15 22:57:47 GMT 47.497009 8.749168 35,025 240 459 0
2018-10-15 22:57:44 GMT 47.500694 8.758428 35,025 240 459 0
2018-10-15 22:57:41 GMT 47.504333 8.767639 35,025 240 459 0
2018-10-15 22:57:38 GMT 47.508270 8.777458 35,025 240 459 64
2018-10-15 22:57:35 GMT 47.512096 8.787020 35,025 240 459 64
2018-10-15 22:57:32 GMT 47.513496 8.790612 35,025 240 459 64
2018-10-15 22:57:29 GMT 47.516521 8.798147 35,025 240 459 64
2018-10-15 22:57:26 GMT 47.520630 8.808495 35,025 240 459 64
2018-10-15 22:57:20 GMT 47.525925 8.821810 35,025 240 458 64
2018-10-15 22:57:17 GMT 47.529556 8.831017 35,025 240 458 64
2018-10-15 22:57:14 GMT 47.533188 8.840191 35,025 240 459 64
2018-10-15 22:57:11 GMT 47.535934 8.847093 35,025 240 459 64
2018-10-15 22:57:08 GMT 47.539612 8.856389 35,025 240 458 128
2018-10-15 22:57:05 GMT 47.543011 8.865051 35,025 240 458 128
2018-10-15 22:57:02 GMT 47.545990 8.872490 35,000 240 458 128
2018-10-15 22:56:59 GMT 47.548737 8.879418 35,000 240 458 64
2018-10-15 22:56:56 GMT 47.552353 8.888626 35,000 240 458 64
2018-10-15 22:56:53 GMT 47.558510 8.904208 35,000 240 459 0
2018-10-15 22:56:47 GMT 47.561737 8.912315 35,000 240 458 64
2018-10-15 22:56:44 GMT 47.564468 8.919279 35,000 241 458 0
2018-10-15 22:56:41 GMT 47.568100 8.928452 35,000 240 458 64
2018-10-15 22:56:38 GMT 47.570618 8.934837 35,000 240 458 64
2018-10-15 22:56:35 GMT 47.574711 8.945195 35,000 240 458 64
2018-10-15 22:56:32 GMT 47.578156 8.953857 35,000 240 458 64
2018-10-15 22:56:29 GMT 47.580597 8.960175 34,975 240 458 0
2018-10-15 22:56:26 GMT 47.583836 8.968224 35,000 240 458 0
2018-10-15 22:56:23 GMT 47.587006 8.976379 35,000 240 458 0
2018-10-15 22:56:20 GMT 47.590851 8.986061 35,000 240 458 0
2018-10-15 22:56:17 GMT 47.593369 8.992447 35,000 240 457 0
2018-10-15 22:56:14 GMT 47.598034 9.004352 35,000 240 457 0
2018-10-15 22:56:11 GMT 47.599274 9.007484 35,000 240 457 0
2018-10-15 22:56:08 GMT 47.603119 9.017166 35,000 240 457 0
2018-10-15 22:56:05 GMT 47.607204 9.027522 35,000 240 457 64
2018-10-15 22:56:02 GMT 47.609253 9.032734 34,975 240 456 64
2018-10-15 22:55:59 GMT 47.612411 9.040787 35,000 240 457 64
2018-10-15 22:55:56 GMT 47.615845 9.049438 35,000 240 457 64
2018-10-15 22:55:53 GMT 47.618519 9.056326 34,975 240 456 64
2018-10-15 22:55:50 GMT 47.623264 9.068369 34,975 240 456 64
2018-10-15 22:55:47 GMT 47.625092 9.073059 34,975 240 455 64
2018-10-15 22:55:44 GMT 47.632015 9.090623 34,975 240 455 64
2018-10-15 22:55:38 GMT 47.635025 9.098259 34,975 240 455 0
2018-10-15 22:55:35 GMT 47.637955 9.105812 34,975 240 455 0
2018-10-15 22:55:32 GMT 47.641838 9.115624 34,975 240 455 0
2018-10-15 22:55:29 GMT 47.644493 9.122385 35,000 240 455 0
2018-10-15 22:55:26 GMT 47.648712 9.133141 34,975 240 455 0
2018-10-15 22:55:23 GMT 47.651047 9.139046 34,975 240 455 0
2018-10-15 22:55:20 GMT 47.657108 9.154569 34,975 240 455 0
2018-10-15 22:55:17 GMT 47.657108 9.154569 34,975 240 455 0
2018-10-15 22:55:14 GMT 47.659996 9.162034 35,000 240 454 0
2018-10-15 22:55:11 GMT 47.663391 9.170626 35,000 240 454 0
2018-10-15 22:55:08 GMT 47.666744 9.179218 35,000 240 454 64
2018-10-15 22:55:05 GMT 47.672611 9.194148 34,975 240 454 64
2018-10-15 22:55:02 GMT 47.672611 9.194148 34,975 240 454 64
2018-10-15 22:54:59 GMT 47.675545 9.201684 34,975 240 453 64
2018-10-15 22:54:56 GMT 47.679108 9.210800 34,975 240 453 64
2018-10-15 22:54:53 GMT 47.682014 9.218234 34,975 240 453 64
2018-10-15 22:54:50 GMT 47.685562 9.227348 34,975 240 453 64
2018-10-15 22:54:47 GMT 47.688251 9.234220 34,975 240 452 0
2018-10-15 22:54:44 GMT 47.691422 9.242249 34,975 240 452 0
2018-10-15 22:54:41 GMT 47.694763 9.250832 34,975 240 452 0
2018-10-15 22:54:38 GMT 47.699158 9.262093 34,975 240 452 64
2018-10-15 22:54:35 GMT 47.701706 9.268588 34,975 240 452 0
2018-10-15 22:54:32 GMT 47.704639 9.276053 34,975 240 452 0
2018-10-15 22:54:29 GMT 47.708221 9.285164 34,975 240 452 0
2018-10-15 22:54:26 GMT 47.710693 9.291481 34,975 240 452 -64
2018-10-15 22:54:22 GMT 47.715763 9.304504 34,975 240 452 0
2018-10-15 22:54:16 GMT 47.721130 9.318329 34,975 241 452 0
2018-10-15 22:54:13 GMT 47.724060 9.325813 34,975 240 451 0
2018-10-15 22:54:10 GMT 47.727821 9.335491 34,975 240 451 0
2018-10-15 22:54:07 GMT 47.730522 9.342323 34,975 240 451 0
2018-10-15 22:54:04 GMT 47.733627 9.350395 34,975 240 452 0
2018-10-15 22:54:01 GMT 47.736759 9.358380 34,975 240 452 0
2018-10-15 22:53:58 GMT 47.740356 9.367493 34,975 240 451 0
2018-10-15 22:53:55 GMT 47.742580 9.373239 34,975 240 451 0
2018-10-15 22:53:52 GMT 47.751518 9.395987 35,000 240 451 0
2018-10-15 22:53:49 GMT 47.751518 9.395987 35,000 240 450 64
2018-10-15 22:53:45 GMT 47.758686 9.414156 35,000 240 450 64
2018-10-15 22:53:41 GMT 47.758686 9.414156 34,975 240 451 64
2018-10-15 22:53:38 GMT 47.760735 9.419227 34,975 240 451 64
2018-10-15 22:53:34 GMT 47.764343 9.428398 34,975 240 451 64
2018-10-15 22:53:31 GMT 47.768188 9.438011 34,975 240 451 64
2018-10-15 22:53:28 GMT 47.771347 9.445989 34,975 239 451 0
2018-10-15 22:53:25 GMT 47.775211 9.455707 34,975 240 451 0
2018-10-15 22:53:21 GMT 47.778854 9.464790 34,975 240 451 -64
2018-10-15 22:53:18 GMT 47.783497 9.476483 34,975 240 451 -64
2018-10-15 22:53:14 GMT 47.786339 9.483525 35,000 240 451 -128
2018-10-15 22:53:11 GMT 47.790386 9.493807 35,000 240 452 -128
2018-10-15 22:53:08 GMT 47.792622 9.499441 35,000 240 452 -128
2018-10-15 22:53:05 GMT 47.796486 9.509160 35,000 240 451 -128
2018-10-15 22:53:02 GMT 47.800442 9.519231 35,025 240 451 -64
2018-10-15 22:52:59 GMT 47.801888 9.522822 35,025 240 450 -64
2018-10-15 22:52:56 GMT 47.805405 9.531944 35,025 241 451 0
2018-10-15 22:52:53 GMT 47.809204 9.541695 35,025 241 450 0
2018-10-15 22:52:50 GMT 47.812267 9.549795 35,025 241 450 0
2018-10-15 22:52:47 GMT 47.814880 9.556664 35,025 241 450 0
2018-10-15 22:52:44 GMT 47.817482 9.563599 35,025 242 451 0
2018-10-15 22:52:41 GMT 47.820229 9.571064 35,025 242 450 0
2018-10-15 22:52:38 GMT 47.823395 9.579796 35,025 243 451 0
2018-10-15 22:52:35 GMT 47.827560 9.591476 35,025 243 451 0
2018-10-15 22:52:32 GMT 47.829212 9.596205 35,025 243 450 0
2018-10-15 22:52:29 GMT 47.832611 9.606135 35,025 242 451 0
2018-10-15 22:52:25 GMT 47.835297 9.613724 35,025 243 451 0
2018-10-15 22:52:22 GMT 47.840153 9.627122 35,050 242 452 0
2018-10-15 22:52:19 GMT 47.841888 9.631783 35,025 241 452 64
2018-10-15 22:52:16 GMT 47.844910 9.639816 35,050 240 451 64
2018-10-15 22:52:13 GMT 47.848297 9.648531 35,025 240 452 64
2018-10-15 22:52:10 GMT 47.851463 9.656419 35,025 239 453 64
2018-10-15 22:52:07 GMT 47.855469 9.666067 35,025 238 454 64
2018-10-15 22:52:04 GMT 47.858322 9.672775 35,025 238 454 0
2018-10-15 22:52:01 GMT 47.862080 9.681772 35,025 238 454 0
2018-10-15 22:51:58 GMT 47.865849 9.690646 35,025 238 454 0
2018-10-15 22:51:55 GMT 47.868027 9.695847 35,025 238 454 0
2018-10-15 22:51:52 GMT 47.871597 9.704292 35,025 238 454 0
2018-10-15 22:51:49 GMT 47.875671 9.713905 35,025 238 454 64
2018-10-15 22:51:46 GMT 47.877777 9.718987 35,025 238 454 64
2018-10-15 22:51:43 GMT 47.881348 9.727432 35,025 238 454 64
2018-10-15 22:51:40 GMT 47.885422 9.737045 35,025 238 454 64
2018-10-15 22:51:37 GMT 47.892338 9.753324 35,025 238 454 64
2018-10-15 22:51:34 GMT 47.892338 9.753324 35,025 238 454 64
2018-10-15 22:51:31 GMT 47.894524 9.758536 35,025 238 454 64
2018-10-15 22:51:28 GMT 47.899040 9.769170 35,025 238 454 64
2018-10-15 22:51:25 GMT 47.901649 9.775438 35,000 238 453 64
2018-10-15 22:51:22 GMT 47.905197 9.783806 35,000 238 454 64
2018-10-15 22:51:19 GMT 47.908539 9.791771 35,000 238 454 64
2018-10-15 22:51:16 GMT 47.912121 9.800227 35,000 238 454 64
2018-10-15 22:51:13 GMT 47.914993 9.807014 35,000 238 454 64
2018-10-15 22:51:10 GMT 47.919292 9.817129 35,000 238 455 64
2018-10-15 22:51:06 GMT 47.923573 9.827341 35,000 238 455 64
2018-10-15 22:51:03 GMT 47.926895 9.835304 35,000 239 455 64
2018-10-15 22:51:00 GMT 47.930237 9.843132 35,000 239 455 64
2018-10-15 22:50:57 GMT 47.932606 9.848891 35,000 239 455 64
2018-10-15 22:50:54 GMT 47.937515 9.860573 35,000 239 455 64
2018-10-15 22:50:50 GMT 47.942093 9.871490 35,000 239 455 64
2018-10-15 22:50:47 GMT 47.943729 9.875441 34,975 239 455 64
2018-10-15 22:50:44 GMT 47.947315 9.883892 34,975 239 455 64
2018-10-15 22:50:41 GMT 47.951569 9.894150 34,975 239 455 64
2018-10-15 22:50:37 GMT 47.955093 9.902664 34,975 239 455 0
2018-10-15 22:50:34 GMT 47.958443 9.910654 34,975 239 455 64
2018-10-15 22:50:31 GMT 47.961548 9.918045 34,975 239 455 64
2018-10-15 22:50:28 GMT 47.968369 9.934456 34,975 239 454 0
2018-10-15 22:50:25 GMT 47.968369 9.934456 34,975 239 454 0
2018-10-15 22:50:22 GMT 47.973244 9.946148 34,975 239 454 0
2018-10-15 22:50:19 GMT 47.975464 9.951485 34,975 239 453 64
2018-10-15 22:50:16 GMT 47.979485 9.961149 34,975 239 454 0
2018-10-15 22:50:13 GMT 47.981857 9.966783 34,975 239 454 0
2018-10-15 22:50:10 GMT 47.985168 9.974693 34,975 239 454 64
2018-10-15 22:50:06 GMT 47.992935 9.993404 34,975 239 453 64
2018-10-15 22:50:03 GMT 47.992935 9.993404 34,975 239 453 64
2018-10-15 22:50:00 GMT 47.996201 10.001266 35,000 239 452 0
2018-10-15 22:49:56 GMT 48.000687 10.012047 34,975 239 453 64
2018-10-15 22:49:53 GMT 48.003036 10.017700 34,950 239 453 64
2018-10-15 22:49:50 GMT 48.008377 10.030518 34,975 239 453 64
2018-10-15 22:49:47 GMT 48.009888 10.034088 34,975 239 453 64
2018-10-15 22:49:44 GMT 48.017654 10.052772 34,975 239 453 0
2018-10-15 22:49:41 GMT 48.017654 10.052772 34,950 239 453 0
2018-10-15 22:49:38 GMT 48.020920 10.060593 34,975 239 453 -64
2018-10-15 22:49:35 GMT 48.023529 10.066841 34,975 239 453 -64
2018-10-15 22:49:32 GMT 48.027054 10.075356 34,975 239 453 -64
2018-10-15 22:49:29 GMT 48.030365 10.083266 34,975 239 453 -64
2018-10-15 22:49:26 GMT 48.033390 10.090590 34,975 239 453 -64
2018-10-15 22:49:23 GMT 48.037163 10.099605 34,975 238 451 -64
2018-10-15 22:49:20 GMT 48.040237 10.107010 34,975 239 452 -64
2018-10-15 22:49:17 GMT 48.043537 10.114957 34,975 239 452 -64
2018-10-15 22:49:14 GMT 48.047077 10.123408 34,975 239 452 -64
2018-10-15 22:49:11 GMT 48.049870 10.130099 34,975 238 451 0
2018-10-15 22:49:08 GMT 48.053192 10.138046 35,000 239 452 0
2018-10-15 22:49:05 GMT 48.057632 10.148689 35,000 239 452 0
2018-10-15 22:49:02 GMT 48.061157 10.157204 35,000 239 452 0
2018-10-15 22:48:59 GMT 48.063511 10.162917 35,000 239 452 0
2018-10-15 22:48:56 GMT 48.066582 10.170241 35,000 239 453 0
2018-10-15 22:48:53 GMT 48.071411 10.181854 35,000 239 453 0
2018-10-15 22:48:50 GMT 48.076447 10.193939 35,000 239 452 0
2018-10-15 22:48:47 GMT 48.076447 10.193939 35,000 239 452 0
2018-10-15 22:48:44 GMT 48.079056 10.200256 35,000 239 452 0
2018-10-15 22:48:41 GMT 48.088577 10.223259 35,000 239 452 0
2018-10-15 22:48:38 GMT 48.088577 10.223259 35,000 239 453 0
2018-10-15 22:48:33 GMT 48.093349 10.234751 35,000 239 453 0
2018-10-15 22:48:29 GMT 48.096634 10.242760 35,000 239 454 -64
2018-10-15 22:48:26 GMT 48.099472 10.249557 35,000 239 453 0
2018-10-15 22:48:22 GMT 48.106243 10.265949 35,000 239 453 0
2018-10-15 22:48:19 GMT 48.107666 10.269333 35,000 239 453 0
2018-10-15 22:48:16 GMT 48.110229 10.275650 35,025 239 453 0
2018-10-15 22:48:12 GMT 48.114948 10.287006 35,025 239 453 0
2018-10-15 22:48:09 GMT 48.118908 10.296654 35,025 239 453 0
2018-10-15 22:48:06 GMT 48.121048 10.301725 35,025 239 454 0
2018-10-15 22:48:02 GMT 48.126450 10.314894 35,025 239 454 64
2018-10-15 22:47:59 GMT 48.129272 10.321724 35,025 239 454 64
2018-10-15 22:47:56 GMT 48.132294 10.329071 35,025 239 454 64
2018-10-15 22:47:53 GMT 48.135818 10.337585 35,025 239 454 64
2018-10-15 22:47:50 GMT 48.139389 10.346163 35,000 239 454 64
2018-10-15 22:47:44 GMT 48.145981 10.362167 35,000 239 456 0
2018-10-15 22:47:41 GMT 48.150467 10.372948 35,000 239 456 0
2018-10-15 22:47:38 GMT 48.152573 10.378098 35,000 239 456 0
2018-10-15 22:47:35 GMT 48.155411 10.384964 35,025 239 456 0
2018-10-15 22:47:32 GMT 48.159576 10.395058 35,025 239 456 0
2018-10-15 22:47:29 GMT 48.163696 10.405039 35,025 239 455 0
2018-10-15 22:47:23 GMT 48.168858 10.417569 35,025 239 456 64
2018-10-15 22:47:20 GMT 48.172623 10.426730 35,025 239 456 64
2018-10-15 22:47:17 GMT 48.176788 10.436871 35,025 239 456 64
2018-10-15 22:47:13 GMT 48.180176 10.445040 35,025 239 456 0
2018-10-15 22:47:10 GMT 48.184799 10.456379 35,025 239 457 0
2018-10-15 22:47:07 GMT 48.186768 10.461097 35,025 239 457 0
2018-10-15 22:47:03 GMT 48.191986 10.473844 35,000 239 457 0
2018-10-15 22:47:00 GMT 48.194595 10.480182 35,025 239 457 0
2018-10-15 22:46:57 GMT 48.198578 10.489901 35,025 239 457 0
2018-10-15 22:46:52 GMT 48.202793 10.500255 35,025 239 458 0
2018-10-15 22:46:49 GMT 48.206799 10.510085 35,025 239 458 0
2018-10-15 22:46:46 GMT 48.210335 10.518686 35,000 239 458 64
2018-10-15 22:46:42 GMT 48.214340 10.528444 35,000 239 458 0
2018-10-15 22:46:38 GMT 48.222115 10.547453 35,000 239 458 0
2018-10-15 22:46:32 GMT 48.225418 10.555548 35,000 239 458 0
2018-10-15 22:46:29 GMT 48.230076 10.566896 35,000 239 458 0
2018-10-15 22:46:26 GMT 48.232315 10.572298 35,000 239 458 0
2018-10-15 22:46:23 GMT 48.235100 10.579256 35,000 239 459 0
2018-10-15 22:46:20 GMT 48.239822 10.590679 35,000 239 459 64
2018-10-15 22:46:16 GMT 48.243622 10.600000 35,000 239 459 64
2018-10-15 22:46:13 GMT 48.247765 10.610263 35,000 239 459 64
2018-10-15 22:46:10 GMT 48.249939 10.615680 35,000 239 459 64
2018-10-15 22:46:07 GMT 48.253723 10.624863 35,000 240 458 0
2018-10-15 22:46:04 GMT 48.255817 10.630068 35,000 239 459 64
2018-10-15 22:46:01 GMT 48.259140 10.638216 35,000 239 459 0
2018-10-15 22:45:58 GMT 48.262894 10.647414 35,000 239 459 0
2018-10-15 22:45:54 GMT 48.267361 10.658401 35,000 239 459 0
2018-10-15 22:45:51 GMT 48.270630 10.666598 35,025 239 459 0
2018-10-15 22:45:48 GMT 48.273972 10.674736 35,000 239 459 0
2018-10-15 22:45:45 GMT 48.277222 10.682725 35,000 239 459 0
2018-10-15 22:45:42 GMT 48.281467 10.693167 35,025 239 459 0
2018-10-15 22:45:39 GMT 48.283859 10.699064 35,025 239 459 0
2018-10-15 22:45:36 GMT 48.287613 10.708273 35,025 239 459 0
2018-10-15 22:45:33 GMT 48.291382 10.717524 35,000 239 459 0
2018-10-15 22:45:30 GMT 48.294689 10.725692 35,025 239 459 0
2018-10-15 22:45:27 GMT 48.297714 10.733137 35,000 239 459 0
2018-10-15 22:45:24 GMT 48.300568 10.740263 35,025 239 459 0
2018-10-15 22:45:21 GMT 48.304047 10.748821 35,025 239 459 0
2018-10-15 22:45:17 GMT 48.308075 10.758714 35,025 239 459 0
2018-10-15 22:45:14 GMT 48.311356 10.766891 35,025 239 459 0
2018-10-15 22:45:11 GMT 48.319107 10.786039 35,025 239 459 0
2018-10-15 22:45:07 GMT 48.319107 10.786039 35,025 239 459 0
2018-10-15 22:45:04 GMT 48.322174 10.793574 35,025 239 459 0
2018-10-15 22:45:01 GMT 48.326614 10.804561 35,025 239 459 0
2018-10-15 22:44:57 GMT 48.330441 10.813944 35,025 239 459 0
2018-10-15 22:44:54 GMT 48.334167 10.823153 35,025 239 459 0
2018-10-15 22:44:49 GMT 48.339333 10.835917 35,025 239 459 0
2018-10-15 22:44:46 GMT 48.342636 10.844140 35,025 239 459 64
2018-10-15 22:44:43 GMT 48.345943 10.852324 35,025 240 458 64
2018-10-15 22:44:40 GMT 48.349182 10.860337 35,025 239 459 64
2018-10-15 22:44:37 GMT 48.353806 10.871817 35,025 239 459 64
2018-10-15 22:44:34 GMT 48.355995 10.877260 35,025 239 459 0
2018-10-15 22:44:30 GMT 48.360001 10.887162 35,025 239 460 0
2018-10-15 22:44:27 GMT 48.364014 10.897099 35,025 239 459 0
2018-10-15 22:44:24 GMT 48.367538 10.905832 35,025 239 459 0
2018-10-15 22:44:21 GMT 48.371033 10.914411 35,025 239 460 0
2018-10-15 22:44:18 GMT 48.376247 10.927277 35,025 239 459 64
2018-10-15 22:44:15 GMT 48.379486 10.935411 35,000 239 459 64
2018-10-15 22:44:12 GMT 48.379486 10.935411 35,025 239 460 64
2018-10-15 22:44:08 GMT 48.384430 10.947594 35,025 239 460 0
2018-10-15 22:44:05 GMT 48.389053 10.959074 35,025 239 460 0
2018-10-15 22:44:02 GMT 48.390774 10.963344 35,025 239 460 0
2018-10-15 22:43:59 GMT 48.393845 10.970933 35,000 239 460 0
2018-10-15 22:43:56 GMT 48.397614 10.980272 35,025 239 460 0
2018-10-15 22:43:53 GMT 48.402054 10.991258 35,025 239 460 0
2018-10-15 22:43:50 GMT 48.404205 10.996540 35,025 239 460 0
2018-10-15 22:43:47 GMT 48.407482 11.004687 35,025 239 459 64
2018-10-15 22:43:43 GMT 48.415237 11.023935 35,025 239 460 0
2018-10-15 22:43:37 GMT 48.417847 11.030414 35,025 239 460 0
2018-10-15 22:43:34 GMT 48.421589 11.039670 35,025 239 460 0
2018-10-15 22:43:31 GMT 48.424896 11.047880 35,025 239 460 64
2018-10-15 22:43:27 GMT 48.430527 11.061859 35,025 239 460 64
2018-10-15 22:43:24 GMT 48.432358 11.066472 35,025 239 460 64
2018-10-15 22:43:21 GMT 48.436340 11.076402 35,000 240 458 0
2018-10-15 22:43:18 GMT 48.439140 11.083398 35,000 239 460 64
2018-10-15 22:43:15 GMT 48.443142 11.093373 35,000 239 459 64
2018-10-15 22:43:12 GMT 48.445934 11.100384 35,000 239 459 64
2018-10-15 22:43:09 GMT 48.448975 11.107882 35,000 239 459 64
2018-10-15 22:43:06 GMT 48.455757 11.124814 35,000 239 459 64
2018-10-15 22:43:03 GMT 48.460182 11.135872 35,000 239 459 64
2018-10-15 22:43:00 GMT 48.460182 11.135872 35,000 239 459 64
2018-10-15 22:42:57 GMT 48.462742 11.142305 35,000 239 459 64
2018-10-15 22:42:54 GMT 48.465775 11.149855 35,000 240 459 64
2018-10-15 22:42:51 GMT 48.469025 11.158062 35,000 240 459 64
2018-10-15 22:42:48 GMT 48.472984 11.167892 35,000 240 459 64
2018-10-15 22:42:45 GMT 48.476616 11.177071 34,975 240 459 64
2018-10-15 22:42:42 GMT 48.478821 11.182533 34,975 240 459 64
2018-10-15 22:42:39 GMT 48.481796 11.190139 34,975 240 457 64
2018-10-15 22:42:36 GMT 48.485321 11.198871 34,975 240 459 64
2018-10-15 22:42:33 GMT 48.488068 11.205838 34,975 240 458 64
2018-10-15 22:42:30 GMT 48.491558 11.214584 34,975 240 457 64
2018-10-15 22:42:26 GMT 48.496628 11.227394 34,975 240 457 64
2018-10-15 22:42:23 GMT 48.498734 11.232605 34,975 240 457 64
2018-10-15 22:42:20 GMT 48.502914 11.243134 34,975 240 458 64
2018-10-15 22:42:17 GMT 48.505692 11.250141 34,975 240 457 64
2018-10-15 22:42:14 GMT 48.509434 11.259468 34,975 240 457 64
2018-10-15 22:42:10 GMT 48.514042 11.271033 34,975 240 457 0
2018-10-15 22:42:06 GMT 48.517960 11.280987 34,975 240 457 0
2018-10-15 22:42:03 GMT 48.520744 11.287946 34,975 240 457 0
2018-10-15 22:42:00 GMT 48.524918 11.298453 34,975 240 457 0
2018-10-15 22:41:57 GMT 48.528149 11.306594 34,975 239 456 0
2018-10-15 22:41:54 GMT 48.531372 11.314650 34,975 239 456 0
2018-10-15 22:41:51 GMT 48.534153 11.321628 34,975 240 455 0
2018-10-15 22:41:48 GMT 48.536015 11.326254 34,975 239 456 0
2018-10-15 22:41:45 GMT 48.540848 11.338454 34,975 240 455 0
2018-10-15 22:41:42 GMT 48.543602 11.345480 34,975 240 455 0
2018-10-15 22:41:39 GMT 48.547279 11.354732 34,975 239 456 0
2018-10-15 22:41:35 GMT 48.552612 11.368103 34,975 240 455 0
2018-10-15 22:41:32 GMT 48.555382 11.375042 34,975 240 455 0
2018-10-15 22:41:29 GMT 48.558609 11.383174 34,975 240 455 0
2018-10-15 22:41:25 GMT 48.563553 11.395710 34,975 240 454 0
2018-10-15 22:41:22 GMT 48.565716 11.401134 34,975 240 454 0
2018-10-15 22:41:19 GMT 48.568275 11.407567 34,975 240 454 0
2018-10-15 22:41:16 GMT 48.571720 11.416240 34,975 240 454 0
2018-10-15 22:41:13 GMT 48.574932 11.424263 34,975 240 454 0
2018-10-15 22:41:10 GMT 48.578888 11.434162 35,000 240 454 0
2018-10-15 22:41:07 GMT 48.582520 11.443345 35,000 240 454 0
2018-10-15 22:41:04 GMT 48.585297 11.450360 35,000 240 455 0
2018-10-15 22:41:01 GMT 48.588058 11.457295 35,000 240 455 0
2018-10-15 22:40:57 GMT 48.592438 11.468353 35,000 240 454 0
2018-10-15 22:40:54 GMT 48.595642 11.476417 35,000 240 454 0
2018-10-15 22:40:51 GMT 48.598396 11.483387 35,000 240 454 0
2018-10-15 22:40:47 GMT 48.602509 11.493812 35,000 240 454 0
2018-10-15 22:40:44 GMT 48.607101 11.505432 35,000 240 455 0
2018-10-15 22:40:41 GMT 48.609421 11.511207 35,000 240 454 0
2018-10-15 22:40:38 GMT 48.612640 11.519382 35,000 240 455 0
2018-10-15 22:40:35 GMT 48.615620 11.526899 35,000 240 455 0
2018-10-15 22:40:32 GMT 48.618599 11.534488 35,000 240 455 0
2018-10-15 22:40:29 GMT 48.622463 11.544318 35,000 240 455 0
2018-10-15 22:40:26 GMT 48.625259 11.551349 35,000 240 454 0
2018-10-15 22:40:23 GMT 48.629608 11.562406 35,000 240 454 0
2018-10-15 22:40:20 GMT 48.632492 11.569660 35,000 240 455 0
2018-10-15 22:40:17 GMT 48.635777 11.578072 35,000 240 455 64
2018-10-15 22:40:11 GMT 48.642620 11.595563 35,000 240 455 0
2018-10-15 22:40:08 GMT 48.644211 11.599591 35,000 240 455 64
2018-10-15 22:40:05 GMT 48.649246 11.612478 35,000 240 455 0
2018-10-15 22:40:02 GMT 48.651234 11.617608 35,000 240 455 0
2018-10-15 22:39:59 GMT 48.654465 11.625789 35,000 240 455 0
2018-10-15 22:39:55 GMT 48.663345 11.648536 35,000 240 455 0
2018-10-15 22:39:52 GMT 48.663345 11.648536 35,000 240 455 0
2018-10-15 22:39:49 GMT 48.666454 11.656494 35,000 240 455 0
2018-10-15 22:39:45 GMT 48.669292 11.663722 35,000 240 455 0
2018-10-15 22:39:41 GMT 48.676834 11.683020 35,000 240 455 0
2018-10-15 22:39:35 GMT 48.680000 11.691116 35,000 240 455 0
2018-10-15 22:39:31 GMT 48.684769 11.703327 35,000 240 455 0
2018-10-15 22:39:25 GMT 48.690521 11.718003 35,000 240 455 0
2018-10-15 22:39:21 GMT 48.695736 11.731375 35,000 240 455 0
2018-10-15 22:39:18 GMT 48.698250 11.737880 35,000 240 455 0
2018-10-15 22:39:15 GMT 48.701649 11.746625 35,000 240 456 0
2018-10-15 22:39:10 GMT 48.707607 11.761876 35,000 240 456 0
2018-10-15 22:39:07 GMT 48.713287 11.776476 35,000 240 455 64
2018-10-15 22:39:04 GMT 48.713287 11.776476 35,000 240 456 0
2018-10-15 22:39:00 GMT 48.717896 11.788186 35,000 240 456 0
2018-10-15 22:38:57 GMT 48.721985 11.798683 35,000 240 456 0
2018-10-15 22:38:54 GMT 48.724037 11.803942 35,000 240 456 0
2018-10-15 22:38:51 GMT 48.731346 11.822590 35,000 240 456 0
2018-10-15 22:38:48 GMT 48.734375 11.830252 35,000 240 456 0
2018-10-15 22:38:44 GMT 48.741219 11.847743 35,000 240 456 0
2018-10-15 22:38:39 GMT 48.741219 11.847743 35,000 240 456 0
2018-10-15 22:38:36 GMT 48.744003 11.854811 35,000 240 456 0
2018-10-15 22:38:33 GMT 48.746059 11.860103 35,000 239 456 0
2018-10-15 22:38:30 GMT 48.750572 11.871667 35,000 240 456 0
2018-10-15 22:38:27 GMT 48.757698 11.889954 35,000 240 454 64
2018-10-15 22:38:23 GMT 48.757698 11.889954 35,000 241 456 0
2018-10-15 22:38:19 GMT 48.761993 11.901010 35,000 240 455 0
2018-10-15 22:38:16 GMT 48.764912 11.908601 35,000 240 454 0
2018-10-15 22:38:13 GMT 48.769196 11.919588 35,000 240 455 0
2018-10-15 22:38:08 GMT 48.773151 11.929707 35,000 240 456 0
2018-10-15 22:38:05 GMT 48.777481 11.940910 35,000 240 455 0
2018-10-15 22:38:02 GMT 48.778599 11.943801 35,000 240 456 0
2018-10-15 22:37:58 GMT 48.784744 11.959630 35,000 240 456 0
2018-10-15 22:37:55 GMT 48.787949 11.967914 35,000 240 456 0
2018-10-15 22:37:52 GMT 48.790005 11.973146 35,000 240 456 0
2018-10-15 22:37:48 GMT 48.794357 11.984253 35,000 240 456 0
2018-10-15 22:37:45 GMT 48.797791 11.992986 35,000 240 456 0
2018-10-15 22:37:42 GMT 48.801502 12.002419 35,000 240 456 64
2018-10-15 22:37:39 GMT 48.804482 12.010008 35,000 240 455 0
2018-10-15 22:37:36 GMT 48.808392 12.019910 35,000 239 456 64
2018-10-15 22:37:33 GMT 48.811371 12.027500 35,000 239 456 64
2018-10-15 22:37:28 GMT 48.815552 12.037917 35,000 239 455 64
2018-10-15 22:37:25 GMT 48.820404 12.050171 35,000 239 455 64
2018-10-15 22:37:19 GMT 48.827106 12.067108 35,000 239 455 0
2018-10-15 22:37:15 GMT 48.830738 12.076143 35,000 239 455 0
2018-10-15 22:37:12 GMT 48.834274 12.085102 35,000 240 454 0
2018-10-15 22:37:09 GMT 48.836555 12.090888 35,000 239 453 0
2018-10-15 22:37:06 GMT 48.840729 12.101300 35,000 240 453 64
2018-10-15 22:37:02 GMT 48.847961 12.119727 35,000 240 450 64
2018-10-15 22:36:56 GMT 48.850800 12.126882 35,000 240 450 64
2018-10-15 22:36:53 GMT 48.855469 12.138766 35,000 240 449 0
2018-10-15 22:36:50 GMT 48.857365 12.143651 35,000 240 448 64
2018-10-15 22:36:46 GMT 48.861603 12.154611 35,000 240 447 0
2018-10-15 22:36:43 GMT 48.864899 12.163274 35,000 241 445 0
2018-10-15 22:36:40 GMT 48.867737 12.170739 35,000 241 444 0
2018-10-15 22:36:37 GMT 48.871189 12.180079 35,000 242 443 0
2018-10-15 22:36:34 GMT 48.874146 12.188134 35,000 242 443 0
2018-10-15 22:36:31 GMT 48.876637 12.195041 35,000 243 441 0
2018-10-15 22:36:26 GMT 48.881153 12.207979 35,000 243 440 0
2018-10-15 22:36:23 GMT 48.884178 12.216652 35,000 243 439 0
2018-10-15 22:36:20 GMT 48.887009 12.224825 35,000 242 438 0
2018-10-15 22:36:15 GMT 48.895306 12.248889 35,000 243 436 0
2018-10-15 22:36:12 GMT 48.895306 12.248889 35,000 243 434 0
2018-10-15 22:36:09 GMT 48.897125 12.254193 34,975 243 430 576
2018-10-15 22:36:05 GMT 48.900703 12.264573 35,000 243 432 128
2018-10-15 22:36:02 GMT 48.903900 12.273771 35,000 243 432 192
2018-10-15 22:35:59 GMT 48.906666 12.281703 34,950 243 433 0
2018-10-15 22:35:56 GMT 48.910156 12.291894 34,950 243 430 576
2018-10-15 22:35:53 GMT 48.912575 12.298833 34,950 243 430 768
2018-10-15 22:35:50 GMT 48.916348 12.309675 34,850 243 430 1024
2018-10-15 22:35:46 GMT 48.918686 12.316519 34,850 243 430 1024
2018-10-15 22:35:43 GMT 48.921421 12.324420 34,825 243 430 960
2018-10-15 22:35:40 GMT 48.925331 12.335695 34,750 243 431 960
2018-10-15 22:35:37 GMT 48.926586 12.339309 34,700 243 437 1344
2018-10-15 22:35:34 GMT 48.929520 12.347838 34,650 243 431 960
2018-10-15 22:35:31 GMT 48.932281 12.355887 34,600 243 431 960
2018-10-15 22:35:28 GMT 48.935852 12.366196 34,600 242 431 960
2018-10-15 22:35:25 GMT 48.937992 12.372412 34,500 243 431 960
2018-10-15 22:35:22 GMT 48.940971 12.380941 34,450 243 431 1024
2018-10-15 22:35:19 GMT 48.943176 12.387296 34,400 243 430 1024
2018-10-15 22:35:15 GMT 48.947113 12.398776 34,325 243 432 1024
2018-10-15 22:35:12 GMT 48.950455 12.408424 34,300 243 432 960
2018-10-15 22:35:09 GMT 48.953449 12.417008 34,250 243 431 960
2018-10-15 22:35:05 GMT 48.956615 12.426260 34,200 243 432 960
2018-10-15 22:35:02 GMT 48.959175 12.433632 34,100 243 433 1088
2018-10-15 22:34:59 GMT 48.961990 12.441735 34,100 243 434 1152
2018-10-15 22:34:55 GMT 48.965134 12.450907 34,025 243 435 1216
2018-10-15 22:34:52 GMT 48.971882 12.470494 33,950 243 437 1472
2018-10-15 22:34:49 GMT 48.971882 12.470494 33,850 243 436 1408
2018-10-15 22:34:45 GMT 48.979111 12.491526 33,675 243 434 1088
2018-10-15 22:34:42 GMT 48.979111 12.491526 33,725 243 435 1280
2018-10-15 22:34:39 GMT 48.981491 12.498357 33,575 243 439 576
2018-10-15 22:34:35 GMT 48.985153 12.508991 33,600 243 438 768
2018-10-15 22:34:32 GMT 48.988129 12.517724 33,575 243 438 640
2018-10-15 22:34:29 GMT 48.991062 12.526149 33,550 243 437 512
2018-10-15 22:34:26 GMT 48.994324 12.535690 33,500 243 436 384
2018-10-15 22:34:23 GMT 48.996742 12.542628 33,500 243 436 448
2018-10-15 22:34:20 GMT 48.999443 12.550579 33,475 243 435 448
2018-10-15 22:34:17 GMT 49.002281 12.558819 33,450 242 436 512
2018-10-15 22:34:14 GMT 49.004471 12.565179 33,425 243 434 832
2018-10-15 22:34:11 GMT 49.007217 12.573219 33,400 243 434 896
2018-10-15 22:34:08 GMT 49.010429 12.582526 33,375 243 434 1344
2018-10-15 22:34:03 GMT 49.014198 12.593440 33,250 243 435 1408
2018-10-15 22:33:59 GMT 49.017925 12.604354 33,150 243 435 1344
2018-10-15 22:33:56 GMT 49.023510 12.620689 33,075 243 432 576
2018-10-15 22:33:53 GMT 49.023510 12.620689 33,025 243 436 960
2018-10-15 22:33:50 GMT 49.029648 12.638573 32,950 243 436 640
2018-10-15 22:33:43 GMT 49.033630 12.650193 32,900 243 435 512
2018-10-15 22:33:40 GMT 49.036358 12.658274 32,875 243 433 512
2018-10-15 22:33:37 GMT 49.038731 12.665140 32,850 243 433 512
2018-10-15 22:33:32 GMT 49.044273 12.681403 32,800 243 432 576
2018-10-15 22:33:29 GMT 49.046413 12.687619 32,775 243 431 576
2018-10-15 22:33:26 GMT 49.048370 12.693401 32,675 243 430 1088
2018-10-15 22:33:23 GMT 49.051533 12.702581 32,725 243 431 832
2018-10-15 22:33:20 GMT 49.054642 12.711745 32,675 243 430 1152
2018-10-15 22:33:17 GMT 49.057400 12.719783 32,625 243 430 1344
2018-10-15 22:33:12 GMT 49.064575 12.740971 32,300 243 433 1600
2018-10-15 22:33:09 GMT 49.064575 12.740971 32,425 243 432 1472
2018-10-15 22:33:06 GMT 49.066944 12.747899 32,100 243 432 1408
2018-10-15 22:33:01 GMT 49.071644 12.761704 32,200 243 433 1472
2018-10-15 22:32:58 GMT 49.074417 12.769846 32,200 243 433 1472
2018-10-15 22:32:55 GMT 49.077187 12.777967 31,950 243 435 1664
2018-10-15 22:32:52 GMT 49.080116 12.786568 31,575 243 436 1536
2018-10-15 22:32:48 GMT 49.083664 12.797030 31,950 243 435 1664
2018-10-15 22:32:45 GMT 49.085861 12.803439 31,850 243 437 1472
2018-10-15 22:32:41 GMT 49.089802 12.814901 31,700 243 437 1472
2018-10-15 22:32:37 GMT 49.093990 12.827116 31,550 243 437 1408
2018-10-15 22:32:31 GMT 49.099529 12.843379 31,475 243 437 1344
2018-10-15 22:32:28 GMT 49.102753 12.852807 31,425 243 438 1280
2018-10-15 22:32:25 GMT 49.104904 12.859145 31,275 243 438 1280
2018-10-15 22:32:20 GMT 49.109711 12.873230 31,225 243 438 1472
2018-10-15 22:32:17 GMT 49.116028 12.891893 31,075 243 439 1792
2018-10-15 22:32:10 GMT 49.118851 12.900118 31,000 243 440 1664
2018-10-15 22:32:06 GMT 49.122437 12.910696 30,850 243 440 1600
2018-10-15 22:32:03 GMT 49.125000 12.918302 30,625 243 441 1536
2018-10-15 22:32:00 GMT 49.128998 12.930113 30,675 243 442 1472
2018-10-15 22:31:57 GMT 49.133793 12.944207 30,600 243 442 1344
2018-10-15 22:31:54 GMT 49.133793 12.944207 30,525 243 442 1024
2018-10-15 22:31:51 GMT 49.136581 12.952529 30,525 243 442 1024
2018-10-15 22:31:48 GMT 49.138962 12.959501 30,475 243 441 896
2018-10-15 22:31:45 GMT 49.142220 12.968999 30,450 243 441 832
2018-10-15 22:31:42 GMT 49.145645 12.979009 30,375 243 440 704
2018-10-15 22:31:39 GMT 49.147991 12.985984 30,375 243 440 704
2018-10-15 22:31:36 GMT 49.152008 12.997742 30,300 243 439 768
2018-10-15 22:31:33 GMT 49.153393 13.001813 30,250 243 436 1088
2018-10-15 22:31:29 GMT 49.157536 13.014101 30,225 243 437 1024
2018-10-15 22:31:26 GMT 49.160294 13.022320 30,175 243 437 1088
2018-10-15 22:31:23 GMT 49.162857 13.029856 30,100 244 436 1024
2018-10-15 22:31:19 GMT 49.166428 13.040490 30,050 244 436 1024
2018-10-15 22:31:16 GMT 49.170090 13.051617 29,975 244 437 1088
2018-10-15 22:31:13 GMT 49.172287 13.058096 29,950 244 437 1088
2018-10-15 22:31:08 GMT 49.177319 13.073225 29,800 243 436 1024
2018-10-15 22:31:02 GMT 49.181602 13.086090 29,775 243 437 1024
2018-10-15 22:30:58 GMT 49.185791 13.098233 29,675 242 435 1024
2018-10-15 22:30:55 GMT 49.188911 13.106906 29,575 241 436 1024
2018-10-15 22:30:52 GMT 49.191422 13.113732 29,500 239 436 960
2018-10-15 22:30:48 GMT 49.195751 13.125120 29,500 240 435 960
2018-10-15 22:30:45 GMT 49.199707 13.135282 29,425 238 436 960
2018-10-15 22:30:42 GMT 49.201767 13.140282 29,425 238 436 960
2018-10-15 22:30:38 GMT 49.206787 13.152514 29,350 237 437 1088
2018-10-15 22:30:35 GMT 49.210327 13.160846 29,300 237 437 1088
2018-10-15 22:30:31 GMT 49.213909 13.168993 29,250 236 438 1152
2018-10-15 22:30:28 GMT 49.218063 13.178241 29,175 235 437 1408
2018-10-15 22:30:25 GMT 49.221039 13.184721 29,125 235 437 1344
2018-10-15 22:30:22 GMT 49.224567 13.192267 28,925 233 437 1280
2018-10-15 22:30:19 GMT 49.228638 13.200707 28,975 234 437 1280
2018-10-15 22:30:16 GMT 49.232529 13.208595 28,900 233 436 1216
2018-10-15 22:30:13 GMT 49.235413 13.214370 28,825 232 436 1216
2018-10-15 22:30:10 GMT 49.239140 13.221540 28,750 230 434 1024
2018-10-15 22:30:07 GMT 49.242920 13.228666 28,750 231 435 1088
2018-10-15 22:30:04 GMT 49.247845 13.237803 28,675 230 434 1024
2018-10-15 22:30:01 GMT 49.250870 13.243296 28,625 230 434 1024
2018-10-15 22:29:57 GMT 49.256180 13.252692 28,550 228 433 1088
2018-10-15 22:29:54 GMT 49.261066 13.260932 28,425 228 432 1152
2018-10-15 22:29:51 GMT 49.264187 13.266208 28,425 227 432 1216
2018-10-15 22:29:47 GMT 49.270340 13.276203 28,375 226 431 1152
2018-10-15 22:29:44 GMT 49.273865 13.281766 28,325 225 429 1024
2018-10-15 22:29:41 GMT 49.278664 13.289193 28,300 225 429 1024
2018-10-15 22:29:38 GMT 49.286484 13.300902 28,175 224 428 960
2018-10-15 22:29:35 GMT 49.286484 13.300902 28,175 224 428 896
2018-10-15 22:29:32 GMT 49.291744 13.308419 28,125 223 426 640
2018-10-15 22:29:28 GMT 49.296661 13.315359 28,100 220 420 1408
2018-10-15 22:29:25 GMT 49.303242 13.324248 28,050 222 423 704
2018-10-15 22:29:21 GMT 49.306732 13.328881 28,025 221 422 896
2018-10-15 22:29:17 GMT 49.317535 13.342679 27,900 220 420 1344
2018-10-15 22:29:14 GMT 49.317535 13.342679 27,800 219 420 1472
2018-10-15 22:29:11 GMT 49.321426 13.347614 27,825 219 419 1472
2018-10-15 22:29:08 GMT 49.326611 13.353810 27,750 218 419 1472
2018-10-15 22:29:05 GMT 49.331223 13.359234 27,625 217 419 1408
2018-10-15 22:29:02 GMT 49.336155 13.364868 27,375 216 418 1216
2018-10-15 22:28:59 GMT 49.339832 13.368988 27,475 216 418 1088
2018-10-15 22:28:56 GMT 49.344543 13.374164 27,450 215 417 896
2018-10-15 22:28:53 GMT 49.349934 13.379902 27,425 215 416 896
2018-10-15 22:28:50 GMT 49.354309 13.384528 26,475 215 414 1216
2018-10-15 22:28:47 GMT 49.359055 13.389517 27,375 215 416 896
2018-10-15 22:28:44 GMT 49.369438 13.400501 26,475 215 414 1216
2018-10-15 22:28:41 GMT 49.369438 13.400501 27,200 215 414 1408
2018-10-15 22:28:37 GMT 49.379539 13.411199 27,075 215 414 1088
2018-10-15 22:28:31 GMT 49.384277 13.416138 27,050 215 412 1024
2018-10-15 22:28:28 GMT 49.388580 13.420715 26,950 215 410 832
2018-10-15 22:28:25 GMT 49.393322 13.425654 26,900 215 410 960
2018-10-15 22:28:22 GMT 49.398628 13.431292 26,875 215 408 1024
2018-10-15 22:28:18 GMT 49.406590 13.439749 26,800 215 408 1152
2018-10-15 22:28:14 GMT 49.411240 13.444730 26,750 215 408 1024
2018-10-15 22:28:10 GMT 49.416878 13.450663 26,650 215 406 960
2018-10-15 22:28:07 GMT 49.420834 13.454927 26,625 215 406 1024
2018-10-15 22:28:04 GMT 49.430004 13.464636 26,200 215 405 1408
2018-10-15 22:27:58 GMT 49.435913 13.470973 26,475 215 405 1536
2018-10-15 22:27:55 GMT 49.440811 13.476177 26,350 215 404 1600
2018-10-15 22:27:52 GMT 49.445068 13.480731 26,275 215 405 1536
2018-10-15 22:27:49 GMT 49.448685 13.484561 25,925 215 404 1472
2018-10-15 22:27:46 GMT 49.454582 13.490840 26,175 215 404 1472
2018-10-15 22:27:43 GMT 49.458527 13.495042 26,025 215 403 1472
2018-10-15 22:27:40 GMT 49.462730 13.499525 25,950 215 403 1536
2018-10-15 22:27:37 GMT 49.468323 13.505522 25,900 215 403 1536
2018-10-15 22:27:34 GMT 49.472275 13.509695 25,800 215 403 1472
2018-10-15 22:27:30 GMT 49.478466 13.516301 25,725 215 402 1216
2018-10-15 22:27:27 GMT 49.483749 13.521857 25,675 215 403 1088
2018-10-15 22:27:24 GMT 49.486679 13.524965 25,600 215 402 1024
2018-10-15 22:27:21 GMT 49.492172 13.530820 25,550 215 401 1088
2018-10-15 22:27:18 GMT 49.497711 13.536746 25,500 215 400 1216
2018-10-15 22:27:13 GMT 49.505184 13.544732 25,400 215 399 1216
2018-10-15 22:27:06 GMT 49.514603 13.554744 24,550 215 398 1152
2018-10-15 22:27:03 GMT 49.519409 13.559875 25,100 215 395 1152
2018-10-15 22:27:00 GMT 49.526138 13.567031 25,150 215 395 1152
2018-10-15 22:26:56 GMT 49.529999 13.571085 25,100 215 395 1280
2018-10-15 22:26:53 GMT 49.534470 13.575921 25,050 215 395 1344
2018-10-15 22:26:50 GMT 49.538982 13.580735 24,975 215 394 1408
2018-10-15 22:26:46 GMT 49.545036 13.587193 24,875 215 394 1472
2018-10-15 22:26:43 GMT 49.549129 13.591573 24,800 215 393 1472
2018-10-15 22:26:40 GMT 49.554291 13.597027 24,725 215 393 1472
2018-10-15 22:26:36 GMT 49.561798 13.605050 24,575 215 392 1536
2018-10-15 22:26:32 GMT 49.565376 13.608869 24,350 215 391 1856
2018-10-15 22:26:29 GMT 49.570126 13.613991 24,250 215 391 1856
2018-10-15 22:26:25 GMT 49.576859 13.621168 24,350 215 391 1856
2018-10-15 22:26:22 GMT 49.581253 13.625866 24,225 215 391 1984
2018-10-15 22:26:16 GMT 49.589119 13.634404 24,050 216 392 1856
2018-10-15 22:26:12 GMT 49.595776 13.641531 23,925 215 391 1728
2018-10-15 22:26:08 GMT 49.602154 13.648360 23,800 215 391 1600
2018-10-15 22:26:05 GMT 49.605644 13.652072 23,625 215 390 1472
2018-10-15 22:26:01 GMT 49.611328 13.658246 23,625 215 390 1472
2018-10-15 22:25:57 GMT 49.617966 13.665330 23,525 215 390 1664
2018-10-15 22:25:54 GMT 49.622311 13.670036 23,475 215 390 1664
2018-10-15 22:25:50 GMT 49.627712 13.675826 23,350 215 388 1728
2018-10-15 22:25:46 GMT 49.633713 13.682243 23,200 215 388 1728
2018-10-15 22:25:43 GMT 49.639023 13.687953 23,200 215 388 1728
2018-10-15 22:25:40 GMT 49.643143 13.692362 22,750 215 380 1344
2018-10-15 22:25:37 GMT 49.647217 13.696685 22,975 215 388 1472
2018-10-15 22:25:34 GMT 49.651268 13.701065 22,875 215 387 1216
2018-10-15 22:25:31 GMT 49.660950 13.711371 22,825 215 385 960
2018-10-15 22:25:24 GMT 49.666534 13.717396 22,725 215 382 1216
2018-10-15 22:25:21 GMT 49.671204 13.722430 22,675 215 382 1216
2018-10-15 22:25:17 GMT 49.677612 13.729296 22,625 215 377 1984
2018-10-15 22:25:14 GMT 49.680454 13.732316 22,400 215 378 1600
2018-10-15 22:25:11 GMT 49.685623 13.737970 22,425 215 378 1664
2018-10-15 22:25:06 GMT 49.693584 13.746495 22,300 215 378 1728
2018-10-15 22:25:03 GMT 49.697800 13.751124 22,200 215 377 1792
2018-10-15 22:25:00 GMT 49.700546 13.754088 22,125 215 377 1856
2018-10-15 22:24:56 GMT 49.706955 13.760954 21,875 215 377 1984
2018-10-15 22:24:53 GMT 49.710983 13.765291 21,875 215 377 1984
2018-10-15 22:24:50 GMT 49.714920 13.769483 21,825 215 377 1920
2018-10-15 22:24:46 GMT 49.722492 13.777672 21,600 215 377 1856
2018-10-15 22:24:39 GMT 49.730732 13.786506 21,475 215 375 1856
2018-10-15 22:24:36 GMT 49.735016 13.791167 21,375 215 369 1664
2018-10-15 22:24:33 GMT 49.740742 13.797343 21,250 216 374 1920
2018-10-15 22:24:29 GMT 49.744743 13.801649 21,000 215 374 1984
2018-10-15 22:24:26 GMT 49.749817 13.807142 21,050 216 374 1920
2018-10-15 22:24:23 GMT 49.754101 13.811670 20,875 215 373 2112
2018-10-15 22:24:19 GMT 49.760944 13.819093 20,850 215 373 2048
2018-10-15 22:24:16 GMT 49.765228 13.823770 20,700 215 373 2112
2018-10-15 22:24:11 GMT 49.772186 13.831281 20,525 215 373 2176
2018-10-15 22:24:08 GMT 49.774910 13.834237 20,475 215 373 2176
2018-10-15 22:24:02 GMT 49.782776 13.842699 20,225 215 373 1920
2018-10-15 22:23:59 GMT 49.787567 13.847905 20,175 215 373 1856
2018-10-15 22:23:56 GMT 49.796326 13.857323 20,000 215 372 1600
2018-10-15 22:23:53 GMT 49.796326 13.857323 19,875 215 369 1600
2018-10-15 22:23:49 GMT 49.806198 13.867999 19,825 215 369 1664
2018-10-15 22:23:43 GMT 49.815598 13.878182 19,625 216 367 1984
2018-10-15 22:23:36 GMT 49.820438 13.883378 19,475 215 366 2176
2018-10-15 22:23:32 GMT 49.825420 13.888797 19,350 215 366 2240
2018-10-15 22:23:29 GMT 49.829887 13.893622 19,225 216 365 2368
2018-10-15 22:23:26 GMT 49.834030 13.898139 19,125 216 365 2496
2018-10-15 22:23:23 GMT 49.837570 13.902011 18,975 215 366 2624
2018-10-15 22:23:20 GMT 49.841385 13.906093 18,975 215 366 2624
2018-10-15 22:23:17 GMT 49.846710 13.911872 18,725 216 366 2624
2018-10-15 22:23:13 GMT 49.851746 13.917365 18,575 216 366 2496
2018-10-15 22:23:10 GMT 49.856186 13.922207 18,350 216 366 2176
2018-10-15 22:23:07 GMT 49.860893 13.927324 18,325 216 366 2112
2018-10-15 22:23:02 GMT 49.868317 13.935362 18,125 216 365 2112
2018-10-15 22:22:58 GMT 49.872437 13.939795 18,025 216 365 2048
2018-10-15 22:22:55 GMT 49.875961 13.943674 17,950 216 365 1984
2018-10-15 22:22:52 GMT 49.882629 13.950929 17,825 216 363 1984
2018-10-15 22:22:49 GMT 49.884247 13.952637 17,750 216 363 2048
2018-10-15 22:22:46 GMT 49.890381 13.959359 17,600 216 361 2112
2018-10-15 22:22:41 GMT 49.895920 13.965358 17,450 216 360 2112
2018-10-15 22:22:38 GMT 49.900269 13.970128 17,325 216 360 2112
2018-10-15 22:22:35 GMT 49.904022 13.974176 17,250 216 360 2112
2018-10-15 22:22:32 GMT 49.908966 13.979597 17,100 216 358 2048
2018-10-15 22:22:28 GMT 49.916801 13.988045 16,975 215 357 1984
2018-10-15 22:22:22 GMT 49.921967 13.993691 16,625 216 355 2048
2018-10-15 22:22:15 GMT 49.931698 14.004302 16,550 215 353 2176
2018-10-15 22:22:11 GMT 49.937191 14.010241 16,475 216 353 2240
2018-10-15 22:22:07 GMT 49.941696 14.015158 16,250 216 351 2176
2018-10-15 22:22:04 GMT 49.945709 14.019520 16,175 216 350 2112
2018-10-15 22:21:59 GMT 49.952507 14.026943 16,000 216 349 1984
2018-10-15 22:21:56 GMT 49.958931 14.033921 15,850 216 348 1920
2018-10-15 22:21:50 GMT 49.964584 14.040094 15,725 216 345 2240
2018-10-15 22:21:46 GMT 49.975689 14.052256 15,475 216 345 2496
2018-10-15 22:21:42 GMT 49.975689 14.052256 15,375 216 345 2560
2018-10-15 22:21:39 GMT 49.978203 14.054928 15,300 216 345 2560
2018-10-15 22:21:35 GMT 49.983509 14.060793 15,150 216 344 2432
2018-10-15 22:21:32 GMT 49.987095 14.064727 15,025 216 342 2368
2018-10-15 22:21:29 GMT 49.991238 14.069255 14,950 216 342 2368
2018-10-15 22:21:26 GMT 49.996170 14.074715 14,750 216 342 2560
2018-10-15 22:21:23 GMT 50.000034 14.078979 14,625 216 342 2688
2018-10-15 22:21:19 GMT 50.003860 14.083172 14,500 216 341 2880
2018-10-15 22:21:15 GMT 50.013489 14.093752 14,275 216 341 2432
2018-10-15 22:21:12 GMT 50.013489 14.093752 14,025 216 339 2432
2018-10-15 22:21:09 GMT 50.016769 14.097411 14,000 216 341 2304
2018-10-15 22:21:06 GMT 50.021439 14.102542 13,925 216 339 2496
2018-10-15 22:21:02 GMT 50.026337 14.108004 12,975 216 339 3136
2018-10-15 22:20:59 GMT 50.030136 14.112155 13,625 216 339 3008
2018-10-15 22:20:55 GMT 50.035091 14.117654 13,375 216 339 3072
2018-10-15 22:20:52 GMT 50.039658 14.122708 13,200 216 339 2944
2018-10-15 22:20:49 GMT 50.042908 14.126322 13,100 216 339 2816
2018-10-15 22:20:46 GMT 50.047302 14.131237 12,900 216 339 2816
2018-10-15 22:20:43 GMT 50.051880 14.136296 12,800 216 338 2688
2018-10-15 22:20:39 GMT 50.055450 14.140272 12,675 216 338 2688
2018-10-15 22:20:34 GMT 50.061676 14.147138 12,475 216 337 2496
2018-10-15 22:20:31 GMT 50.066299 14.152270 12,275 216 336 2304
2018-10-15 22:20:25 GMT 50.077286 14.164485 12,000 216 334 2432
2018-10-15 22:20:22 GMT 50.077286 14.164485 11,975 216 333 2368
2018-10-15 22:20:17 GMT 50.083740 14.171640 11,875 216 332 2240
2018-10-15 22:20:12 GMT 50.091187 14.179861 11,600 216 328 1792
2018-10-15 22:20:08 GMT 50.094864 14.183928 11,550 216 327 1728
2018-10-15 22:20:01 GMT 50.103008 14.192851 11,275 216 322 1600
2018-10-15 22:19:58 GMT 50.106583 14.196793 11,250 216 319 1344
2018-10-15 22:19:53 GMT 50.113251 14.204135 11,150 216 315 1088
2018-10-15 22:19:50 GMT 50.117348 14.208514 11,075 215 310 960
2018-10-15 22:19:41 GMT 50.128010 14.220169 10,925 215 298 960
2018-10-15 22:19:38 GMT 50.130432 14.222741 10,900 215 294 1088
2018-10-15 22:19:34 GMT 50.135422 14.228162 10,800 215 288 1408
2018-10-15 22:19:31 GMT 50.138714 14.231749 10,750 215 285 1600
2018-10-15 22:19:27 GMT 50.143604 14.236945 10,725 215 284 1664
2018-10-15 22:19:21 GMT 50.148582 14.242364 10,475 215 278 2432
2018-10-15 22:19:18 GMT 50.152866 14.246966 10,325 215 276 2752
2018-10-15 22:19:13 GMT 50.158222 14.252682 9,975 215 275 3392
2018-10-15 22:19:10 GMT 50.161156 14.255874 9,900 215 275 3520
2018-10-15 22:19:04 GMT 50.170349 14.265675 9,425 215 277 3968
2018-10-15 22:19:01 GMT 50.170349 14.265675 9,375 215 278 3840
2018-10-15 22:18:58 GMT 50.174004 14.269533 9,250 215 279 3712
2018-10-15 22:18:55 GMT 50.177399 14.273170 8,975 215 280 3328
2018-10-15 22:18:50 GMT 50.181263 14.277253 8,800 215 279 2880
2018-10-15 22:18:47 GMT 50.184292 14.280445 8,725 215 279 2624
2018-10-15 22:18:44 GMT 50.188107 14.284528 8,500 215 278 2304
2018-10-15 22:18:41 GMT 50.192158 14.288907 8,425 216 276 2048
2018-10-15 22:18:37 GMT 50.195709 14.292924 8,100 226 265 1152
2018-10-15 22:18:34 GMT 50.198502 14.296176 8,200 219 270 1344
2018-10-15 22:18:30 GMT 50.202351 14.301156 8,125 226 264 1152
2018-10-15 22:18:27 GMT 50.205414 14.306223 8,050 232 264 1344
2018-10-15 22:18:24 GMT 50.207199 14.309765 8,000 238 261 1600
2018-10-15 22:18:20 GMT 50.210999 14.320173 7,800 249 258 2368
2018-10-15 22:18:16 GMT 50.211960 14.323787 7,725 252 257 2432
2018-10-15 22:18:13 GMT 50.212646 14.327184 7,650 256 258 2432
2018-10-15 22:18:09 GMT 50.213791 14.335351 7,475 264 256 2688
2018-10-15 22:18:05 GMT 50.214222 14.342058 7,350 270 257 2944
2018-10-15 22:18:01 GMT 50.214066 14.349879 7,100 277 256 3072
2018-10-15 22:17:57 GMT 50.213470 14.357396 6,875 285 257 3328
2018-10-15 22:17:53 GMT 50.212173 14.364995 6,650 289 258 3584
2018-10-15 22:17:45 GMT 50.208496 14.378654 6,175 301 262 3776
2018-10-15 22:17:42 GMT 50.207054 14.382440 6,025 306 264 3648
2018-10-15 22:17:38 GMT 50.203468 14.389937 5,725 314 267 3008
2018-10-15 22:17:33 GMT 50.199047 14.397063 5,475 321 267 2560
2018-10-15 22:17:28 GMT 50.193787 14.403293 5,275 332 265 1664
2018-10-15 22:17:25 GMT 50.191040 14.405606 5,000 334 263 1472
2018-10-15 22:17:22 GMT 50.188431 14.407413 5,150 340 260 1280
2018-10-15 22:17:15 GMT 50.179401 14.411019 5,025 356 248 384
2018-10-15 22:17:12 GMT 50.176701 14.411242 5,000 0 244 320
2018-10-15 22:17:09 GMT 50.171722 14.410882 4,975 9 234 960
2018-10-15 22:17:04 GMT 50.167831 14.409870 4,900 19 226 960
2018-10-15 22:17:01 GMT 50.165451 14.408714 4,875 21 225 960
2018-10-15 22:16:57 GMT 50.161240 14.405823 4,825 29 219 896
2018-10-15 22:16:52 GMT 50.156616 14.401052 4,750 42 208 896
2018-10-15 22:16:47 GMT 50.153008 14.395356 4,650 54 198 896
2018-10-15 22:16:44 GMT 50.151749 14.392387 4,600 60 193 896
2018-10-15 22:16:41 GMT 50.150757 14.389777 4,600 63 190 960
2018-10-15 22:16:38 GMT 50.149200 14.384862 4,525 64 184 960
2018-10-15 22:16:31 GMT 50.146862 14.376947 4,425 64 176 1472
2018-10-15 22:16:26 GMT 50.144909 14.370563 4,275 64 175 1984
2018-10-15 22:16:20 GMT 50.143044 14.364550 4,100 64 175 1984
2018-10-15 22:16:17 GMT 50.141510 14.359420 3,950 64 175 1856
2018-10-15 22:16:11 GMT 50.139740 14.353563 3,800 65 175 1728
2018-10-15 22:16:00 GMT 50.136250 14.341909 3,525 65 171 1536
2018-10-15 22:15:55 GMT 50.134552 14.336219 3,425 64 169 1600
2018-10-15 22:15:52 GMT 50.133175 14.331665 3,300 64 167 1664
2018-10-15 22:15:49 GMT 50.132721 14.330075 3,250 64 167 1664
2018-10-15 22:15:40 GMT 50.129425 14.319161 2,975 65 165 1600
2018-10-15 22:15:33 GMT 50.127029 14.310954 2,800 65 162 1536
2018-10-15 22:15:29 GMT 50.126099 14.307837 2,725 65 160 1472
2018-10-15 22:15:22 GMT 50.124161 14.301091 2,550 65 157 1600
2018-10-15 22:15:19 GMT 50.123119 14.297593 2,450 65 154 1920
We lost coverage of the aircraft here for a total of 65 minutes
2018-10-15 21:10:05 GMT 50.100998 14.223536 1,150 65 135 -704
2018-10-15 21:10:00 GMT 50.099659 14.219055 1,200 64 135 -704
2018-10-15 21:09:53 GMT 50.097656 14.212374 1,300 64 137 -768
2018-10-15 21:09:50 GMT 50.096329 14.208069 1,350 65 137 -768
2018-10-15 21:09:44 GMT 50.095093 14.203949 1,400 65 137 -768
2018-10-15 21:09:39 GMT 50.094040 14.200263 1,450 64 138 -704
2018-10-15 21:09:33 GMT 50.092022 14.193742 1,550 65 138 -704
2018-10-15 21:09:27 GMT 50.090561 14.188770 1,600 65 138 -704
2018-10-15 21:09:22 GMT 50.089279 14.184506 1,675 64 138 -640
2018-10-15 21:09:19 GMT 50.088409 14.181615 1,700 64 139 -640
2018-10-15 21:09:11 GMT 50.086441 14.175110 1,775 64 139 -704
2018-10-15 21:09:08 GMT 50.085506 14.171992 1,825 64 139 -704
2018-10-15 21:08:59 GMT 50.082806 14.162936 1,950 64 140 -832
2018-10-15 21:08:51 GMT 50.080803 14.156329 2,050 64 141 -832
2018-10-15 21:08:48 GMT 50.079922 14.153360 2,075 64 141 -832
2018-10-15 21:08:41 GMT 50.077881 14.146704 2,175 65 142 -832
2018-10-15 21:08:38 GMT 50.076920 14.143307 2,225 65 142 -768
2018-10-15 21:08:30 GMT 50.075031 14.137177 2,325 64 143 -768
2018-10-15 21:08:27 GMT 50.074219 14.134417 2,350 65 144 -768
2018-10-15 21:08:19 GMT 50.071793 14.126394 2,450 64 145 -704
2018-10-15 21:08:16 GMT 50.070969 14.123720 2,500 65 146 -640
2018-10-15 21:08:09 GMT 50.068909 14.116709 2,575 64 149 -704
2018-10-15 21:07:56 GMT 50.065109 14.104349 2,725 64 158 -768
2018-10-15 21:07:45 GMT 50.061440 14.092119 2,875 65 170 -704
2018-10-15 21:07:38 GMT 50.059113 14.084473 2,950 64 178 -1152
2018-10-15 21:07:35 GMT 50.058060 14.080931 3,000 65 180 -1088
2018-10-15 21:07:27 GMT 50.055542 14.072402 3,150 64 184 -1280
2018-10-15 21:07:24 GMT 50.054306 14.068282 3,225 64 185 -1344
2018-10-15 21:07:17 GMT 50.051662 14.059679 3,375 64 193 -1344
2018-10-15 21:07:14 GMT 50.050545 14.055968 3,425 64 195 -1280
2018-10-15 21:07:07 GMT 50.047798 14.046911 3,550 64 204 -896
2018-10-15 21:07:03 GMT 50.046310 14.042012 3,600 65 210 -576
2018-10-15 21:06:53 GMT 50.041580 14.026361 3,750 64 216 -832
2018-10-15 21:06:41 GMT 50.036999 14.011057 3,850 64 225 -320
2018-10-15 21:06:30 GMT 50.032150 13.995064 3,875 65 239 -192
2018-10-15 21:06:21 GMT 50.027161 13.978512 3,950 65 250 -768
2018-10-15 21:06:10 GMT 50.022263 13.962322 4,100 64 258 -1152
2018-10-15 21:06:02 GMT 50.017494 13.946847 4,250 65 266 -1152
2018-10-15 21:05:50 GMT 50.011002 13.923508 4,525 68 272 -1984
2018-10-15 21:05:42 GMT 50.008415 13.913294 4,775 72 277 -1664
2018-10-15 21:05:39 GMT 50.006878 13.906539 4,775 72 277 -1664
2018-10-15 21:05:29 GMT 50.003666 13.887313 5,075 80 287 -1984
2018-10-15 21:05:22 GMT 50.001617 13.865934 5,400 82 295 -1984
2018-10-15 21:05:18 GMT 50.001617 13.865934 5,450 82 295 -1984
2018-10-15 21:05:11 GMT 50.000061 13.849206 5,775 81 303 -1728
2018-10-15 21:05:08 GMT 49.999283 13.841039 5,775 81 308 -1792
2018-10-15 21:05:04 GMT 49.998505 13.832871 5,900 81 315 -1600
2018-10-15 21:04:58 GMT 49.997406 13.820945 6,050 81 321 -1600
2018-10-15 21:04:52 GMT 49.996078 13.806273 6,200 82 327 -3392
2018-10-15 21:04:48 GMT 49.995163 13.796298 6,400 82 327 -3712
2018-10-15 21:04:40 GMT 49.993610 13.779082 6,875 81 325 -4160
2018-10-15 21:04:36 GMT 49.992912 13.771659 7,075 81 325 -3648
2018-10-15 21:04:30 GMT 49.991470 13.755922 7,450 81 325 -2944
2018-10-15 21:04:27 GMT 49.990494 13.745530 7,675 81 327 -2368
2018-10-15 21:04:20 GMT 49.989285 13.732613 7,850 81 337 0
2018-10-15 21:04:15 GMT 49.988251 13.721129 7,950 81 334 -512
2018-10-15 21:04:12 GMT 49.987469 13.713016 8,000 81 335 -64
2018-10-15 21:04:05 GMT 49.985653 13.693345 8,000 81 337 0
2018-10-15 21:03:59 GMT 49.984722 13.683472 8,000 81 336 -64
2018-10-15 21:03:54 GMT 49.983650 13.671743 8,000 81 337 -64
2018-10-15 21:03:49 GMT 49.982437 13.658969 8,000 81 338 -64
2018-10-15 21:03:44 GMT 49.981201 13.645670 8,025 81 336 -128
2018-10-15 21:03:38 GMT 49.980194 13.634973 8,025 81 336 -384
2018-10-15 21:03:35 GMT 49.979324 13.625288 8,050 81 337 -704
2018-10-15 21:03:28 GMT 49.977997 13.611049 8,125 81 338 -1024
2018-10-15 21:03:22 GMT 49.974152 13.569561 8,300 81 338 -1024
2018-10-15 21:03:12 GMT 49.974152 13.569561 8,425 81 338 -960
2018-10-15 21:03:08 GMT 49.973362 13.560766 8,475 81 337 -896
2018-10-15 21:03:01 GMT 49.971825 13.544435 8,575 81 335 -832
2018-10-15 21:02:51 GMT 49.969265 13.516672 8,775 81 335 -1408
2018-10-15 21:02:47 GMT 49.968845 13.512070 8,825 81 337 -1600
2018-10-15 21:02:41 GMT 49.967403 13.496704 9,100 81 339 -2048
2018-10-15 21:02:37 GMT 49.966644 13.488537 9,100 81 339 -2048
2018-10-15 21:02:32 GMT 49.965263 13.473618 9,325 81 342 -2112
2018-10-15 21:02:27 GMT 49.964005 13.460108 9,500 81 342 -2112
2018-10-15 21:02:20 GMT 49.962749 13.446672 9,700 81 343 -2048
2018-10-15 21:02:17 GMT 49.962051 13.438729 9,800 81 345 -2048
2018-10-15 21:02:07 GMT 49.959629 13.413193 10,150 81 347 -1472
2018-10-15 21:02:03 GMT 49.958885 13.405250 10,225 81 347 -1280
2018-10-15 21:01:59 GMT 49.957813 13.394190 10,325 81 347 -896
2018-10-15 21:01:54 GMT 49.956604 13.381570 10,400 81 350 -896
2018-10-15 21:01:49 GMT 49.955338 13.368843 10,550 81 353 -896
2018-10-15 21:01:45 GMT 49.954510 13.360340 10,550 81 357 -960
2018-10-15 21:01:42 GMT 49.953690 13.351786 10,550 81 357 -960
2018-10-15 21:01:38 GMT 49.952553 13.340520 10,650 81 360 -960
2018-10-15 21:01:32 GMT 49.951157 13.326416 10,725 81 364 -1024
2018-10-15 21:01:28 GMT 49.950130 13.316024 10,875 81 371 -1088
2018-10-15 21:01:22 GMT 49.948746 13.302058 10,875 81 371 -1088
2018-10-15 21:01:19 GMT 49.947666 13.290933 10,950 81 374 -1088
2018-10-15 21:01:13 GMT 49.945385 13.267476 11,100 81 383 -1280
2018-10-15 21:01:08 GMT 49.944763 13.260787 11,200 81 387 -1600
2018-10-15 21:00:59 GMT 49.942451 13.236595 11,400 81 388 -1600
2018-10-15 21:00:55 GMT 49.941753 13.229543 11,475 81 389 -1600
2018-10-15 21:00:52 GMT 49.940590 13.217444 11,550 81 389 -1408
2018-10-15 21:00:47 GMT 49.939453 13.205566 11,650 81 389 -1408
2018-10-15 21:00:42 GMT 49.938168 13.192502 11,900 81 390 -1408
2018-10-15 21:00:38 GMT 49.937099 13.181293 11,875 81 391 -1408
2018-10-15 21:00:35 GMT 49.936295 13.173041 11,925 81 391 -1408
2018-10-15 21:00:28 GMT 49.934212 13.151748 12,100 81 392 -1472
2018-10-15 21:00:24 GMT 49.933327 13.142840 12,200 81 392 -1472
2018-10-15 21:00:21 GMT 49.932404 13.133432 12,300 81 396 -1408
2018-10-15 21:00:15 GMT 49.930893 13.117893 12,375 81 395 -1344
2018-10-15 21:00:12 GMT 49.929882 13.107135 12,625 81 398 -1408
2018-10-15 21:00:07 GMT 49.928532 13.093402 12,625 81 398 -1408
2018-10-15 21:00:04 GMT 49.927742 13.085014 12,675 81 399 -1408
2018-10-15 20:59:56 GMT 49.925674 13.063828 12,875 81 401 -1536
2018-10-15 20:59:52 GMT 49.923798 13.044458 13,250 81 402 -1600
2018-10-15 20:59:49 GMT 49.923798 13.044458 13,400 81 400 -1600
2018-10-15 20:59:46 GMT 49.922852 13.034684 13,150 81 403 -1600
2018-10-15 20:59:43 GMT 49.921921 13.024942 13,225 81 402 -1600
2018-10-15 20:59:37 GMT 49.920525 13.010411 13,425 81 402 -1600
2018-10-15 20:59:34 GMT 49.919586 13.000729 13,425 81 401 -1536
2018-10-15 20:59:31 GMT 49.918571 12.990368 13,550 81 399 -1536
2018-10-15 20:59:28 GMT 49.917892 12.983671 13,650 81 398 -1536
2018-10-15 20:59:25 GMT 49.917080 12.975299 13,650 81 398 -1536
2018-10-15 20:59:22 GMT 49.916103 12.965055 13,775 81 396 -1472
2018-10-15 20:59:15 GMT 49.914093 12.944858 13,950 81 391 -1408
2018-10-15 20:59:09 GMT 49.912750 12.931799 14,100 81 387 -1600
2018-10-15 20:59:06 GMT 49.911804 12.922452 14,150 81 388 -1984
2018-10-15 20:59:02 GMT 49.910934 12.913706 14,275 81 392 -1600
2018-10-15 20:58:58 GMT 49.909492 12.899063 14,425 81 389 -2368
2018-10-15 20:58:54 GMT 49.908329 12.887854 14,550 81 392 -1600
2018-10-15 20:58:51 GMT 49.906651 12.871226 14,650 81 394 -1856
2018-10-15 20:58:48 GMT 49.906651 12.871226 14,725 81 395 -2048
2018-10-15 20:58:45 GMT 49.906139 12.865881 14,900 81 396 -2368
2018-10-15 20:58:41 GMT 49.903721 12.841978 15,025 81 398 -2432
2018-10-15 20:58:38 GMT 49.903721 12.841978 15,100 81 398 -2432
2018-10-15 20:58:34 GMT 49.902969 12.834706 15,225 81 399 -2432
2018-10-15 20:58:30 GMT 49.901688 12.822057 15,375 81 400 -2624
2018-10-15 20:58:27 GMT 49.899574 12.801448 15,675 80 401 -2880
2018-10-15 20:58:23 GMT 49.899574 12.801448 16,075 80 401 -2944
2018-10-15 20:58:18 GMT 49.898319 12.788680 15,925 81 401 -3008
2018-10-15 20:58:14 GMT 49.897064 12.776666 16,150 81 402 -2752
2018-10-15 20:58:10 GMT 49.895966 12.765752 16,350 81 404 -2176
2018-10-15 20:58:07 GMT 49.895233 12.758452 16,550 81 404 -2048
2018-10-15 20:58:04 GMT 49.894318 12.749188 16,875 81 409 -3136
2018-10-15 20:58:01 GMT 49.893494 12.741249 16,650 81 407 -2176
2018-10-15 20:57:58 GMT 49.892487 12.730841 16,700 81 408 -2304
2018-10-15 20:57:55 GMT 49.891521 12.721500 16,875 81 409 -3136
2018-10-15 20:57:48 GMT 49.889786 12.704243 17,250 81 409 -3136
2018-10-15 20:57:45 GMT 49.888824 12.694331 17,625 80 399 -2368
2018-10-15 20:57:40 GMT 49.887085 12.677211 17,650 81 409 -2880
2018-10-15 20:57:37 GMT 49.886444 12.670850 17,750 81 410 -2816
2018-10-15 20:57:34 GMT 49.885391 12.660442 17,925 81 410 -2816
2018-10-15 20:57:31 GMT 49.884541 12.651722 18,050 81 410 -3200
2018-10-15 20:57:26 GMT 49.883148 12.638108 18,275 81 410 -3328
2018-10-15 20:57:23 GMT 49.882305 12.629378 18,450 81 409 -4032
2018-10-15 20:57:20 GMT 49.881470 12.621435 18,625 81 407 -4416
2018-10-15 20:57:17 GMT 49.880630 12.612738 19,225 81 405 -4544
2018-10-15 20:57:14 GMT 49.879532 12.602330 19,025 80 400 -4032
2018-10-15 20:57:10 GMT 49.878536 12.592633 19,175 81 402 -4352
2018-10-15 20:57:06 GMT 49.877380 12.581225 19,550 80 399 -3584
2018-10-15 20:57:03 GMT 49.876190 12.569660 19,850 80 399 -2880
2018-10-15 20:56:59 GMT 49.875324 12.561307 20,000 80 400 -2368
2018-10-15 20:56:55 GMT 49.872986 12.538581 20,225 80 401 -2176
2018-10-15 20:56:52 GMT 49.872986 12.538581 21,025 80 414 -2496
2018-10-15 20:56:49 GMT 49.872437 12.533521 20,350 81 402 -2112
2018-10-15 20:56:46 GMT 49.871693 12.526196 20,450 81 403 -2112
2018-10-15 20:56:43 GMT 49.869736 12.506821 20,700 80 405 -2368
2018-10-15 20:56:37 GMT 49.868820 12.498249 20,950 80 406 -2368
2018-10-15 20:56:33 GMT 49.867596 12.485962 21,100 80 407 -2432
2018-10-15 20:56:26 GMT 49.865616 12.466953 21,250 80 408 -2368
2018-10-15 20:56:23 GMT 49.864475 12.455898 21,375 80 409 -2368
2018-10-15 20:56:17 GMT 49.862778 12.439270 21,600 80 410 -2176
2018-10-15 20:56:14 GMT 49.861221 12.424453 21,750 80 411 -2112
2018-10-15 20:56:11 GMT 49.861221 12.424453 21,800 80 412 -2112
2018-10-15 20:56:08 GMT 49.859848 12.411443 22,650 80 416 -2880
2018-10-15 20:56:05 GMT 49.859299 12.405805 22,025 80 414 -2368
2018-10-15 20:56:00 GMT 49.857819 12.392133 22,250 80 415 -2688
2018-10-15 20:55:57 GMT 49.856781 12.382098 22,500 80 415 -2816
2018-10-15 20:55:54 GMT 49.856049 12.375304 22,450 80 415 -2752
2018-10-15 20:55:50 GMT 49.854748 12.362811 22,675 80 415 -2816
2018-10-15 20:55:47 GMT 49.853485 12.350946 22,825 80 415 -2816
2018-10-15 20:55:44 GMT 49.851700 12.334105 23,050 80 410 -1024
2018-10-15 20:55:41 GMT 49.851700 12.334105 23,175 80 415 -2688
2018-10-15 20:55:38 GMT 49.850883 12.326586 23,450 80 416 -2880
2018-10-15 20:55:34 GMT 49.849686 12.315312 23,375 80 416 -2752
2018-10-15 20:55:29 GMT 49.848129 12.300279 23,750 80 415 -3136
2018-10-15 20:55:26 GMT 49.847065 12.290212 23,800 80 415 -3200
2018-10-15 20:55:23 GMT 49.846390 12.284016 23,900 80 414 -3264
2018-10-15 20:55:19 GMT 49.844009 12.261104 24,275 80 413 -3136
2018-10-15 20:55:13 GMT 49.843323 12.254743 24,425 80 413 -2880
2018-10-15 20:55:10 GMT 49.842133 12.242962 24,675 80 414 -2368
2018-10-15 20:55:07 GMT 49.841480 12.236765 25,100 80 415 -3136
2018-10-15 20:55:03 GMT 49.840164 12.224242 24,900 80 414 -2304
2018-10-15 20:54:58 GMT 49.838745 12.210581 25,025 80 415 -2368
2018-10-15 20:54:55 GMT 49.837646 12.199884 25,225 80 415 -3008
2018-10-15 20:54:48 GMT 49.834900 12.173141 25,675 80 412 -3328
2018-10-15 20:54:42 GMT 49.833984 12.164389 25,825 80 410 -2496
2018-10-15 20:54:39 GMT 49.832977 12.154565 26,025 80 410 -2176
2018-10-15 20:54:36 GMT 49.832108 12.146470 26,225 80 409 -1408
2018-10-15 20:54:32 GMT 49.831009 12.136062 26,250 80 420 -1664
2018-10-15 20:54:28 GMT 49.829544 12.121895 26,325 80 410 -896
2018-10-15 20:54:25 GMT 49.828583 12.113169 26,350 80 411 -896
2018-10-15 20:54:21 GMT 49.827469 12.102777 26,400 80 411 -960
2018-10-15 20:54:18 GMT 49.826569 12.094068 26,450 80 411 -960
2018-10-15 20:54:15 GMT 49.825562 12.084816 26,500 80 412 -1152
2018-10-15 20:54:12 GMT 49.824371 12.073830 26,550 80 413 -1280
2018-10-15 20:54:08 GMT 49.823364 12.064868 26,975 80 415 -1728
2018-10-15 20:54:04 GMT 49.821835 12.050592 26,800 80 416 -2048
2018-10-15 20:54:01 GMT 49.821323 12.045544 26,875 80 417 -2112
2018-10-15 20:53:58 GMT 49.820206 12.035448 26,950 80 417 -2112
2018-10-15 20:53:54 GMT 49.819088 12.024833 27,125 80 418 -1792
2018-10-15 20:53:51 GMT 49.817734 12.012177 27,200 80 421 -1600
2018-10-15 20:53:48 GMT 49.817139 12.006539 27,275 80 422 -1472
2018-10-15 20:53:45 GMT 49.815781 11.993878 27,400 80 426 -1152
2018-10-15 20:53:42 GMT 49.814804 11.984928 27,400 80 426 -1152
2018-10-15 20:53:38 GMT 49.813549 11.973390 27,475 80 427 -1152
2018-10-15 20:53:34 GMT 49.812523 11.963666 27,525 80 430 -1088
2018-10-15 20:53:31 GMT 49.810318 11.943584 33,600 80 434 -1024
2018-10-15 20:53:27 GMT 49.810318 11.943584 27,650 80 436 -1088
2018-10-15 20:53:24 GMT 49.808029 11.922479 27,750 80 441 -1536
2018-10-15 20:53:21 GMT 49.808029 11.922479 28,325 80 444 -2560
2018-10-15 20:53:17 GMT 49.807030 11.913114 27,925 80 443 -2368
2018-10-15 20:53:13 GMT 49.805309 11.897154 28,075 80 444 -2688
2018-10-15 20:53:09 GMT 49.804192 11.887133 28,150 80 444 -2624
2018-10-15 20:53:06 GMT 49.802982 11.875850 28,350 80 445 -2624
2018-10-15 20:53:02 GMT 49.801529 11.862488 28,550 80 445 -2752
2018-10-15 20:52:59 GMT 49.800522 11.853308 28,575 80 445 -2816
2018-10-15 20:52:56 GMT 49.799816 11.847048 28,725 80 447 -1984
2018-10-15 20:52:52 GMT 49.798138 11.831756 29,025 80 445 -2880
2018-10-15 20:52:48 GMT 49.796997 11.821000 29,075 80 446 -2624
2018-10-15 20:52:44 GMT 49.795532 11.807628 29,350 80 448 -1664
2018-10-15 20:52:41 GMT 49.794525 11.798883 29,425 80 448 -1472
2018-10-15 20:52:38 GMT 49.793484 11.789369 29,500 80 453 -3712
2018-10-15 20:52:35 GMT 49.792374 11.779368 29,600 80 453 -2112
2018-10-15 20:52:32 GMT 49.791183 11.768381 29,675 80 454 -2304
2018-10-15 20:52:29 GMT 49.790180 11.759602 29,750 80 454 -2432
2018-10-15 20:52:25 GMT 49.788967 11.748616 31,675 80 448 -2240
2018-10-15 20:52:22 GMT 49.786697 11.728194 30,650 80 454 -3584
2018-10-15 20:52:19 GMT 49.786697 11.728194 30,225 80 453 -3712
2018-10-15 20:52:16 GMT 49.785431 11.716622 30,400 80 453 -3840
2018-10-15 20:52:13 GMT 49.784687 11.709867 30,725 80 448 -3456
2018-10-15 20:52:10 GMT 49.782543 11.690864 30,925 80 449 -3904
2018-10-15 20:52:07 GMT 49.782543 11.690864 31,750 80 457 -1984
2018-10-15 20:52:02 GMT 49.780701 11.674058 31,400 80 447 -3072
2018-10-15 20:51:59 GMT 49.779659 11.664660 31,475 80 447 -2880
2018-10-15 20:51:56 GMT 49.778259 11.651446 31,550 80 447 -2688
2018-10-15 20:51:53 GMT 49.777470 11.644543 31,675 80 447 -2560
2018-10-15 20:51:49 GMT 49.775887 11.629771 31,875 80 448 -2176
2018-10-15 20:51:46 GMT 49.775467 11.625688 32,025 80 450 -1600
2018-10-15 20:51:43 GMT 49.774025 11.612920 32,125 80 454 -1280
2018-10-15 20:51:40 GMT 49.773235 11.605497 32,125 80 454 -1280
2018-10-15 20:51:36 GMT 49.771866 11.593250 32,175 80 454 -1280
2018-10-15 20:51:33 GMT 49.770813 11.583598 32,375 80 457 -1984
2018-10-15 20:51:27 GMT 49.768391 11.561774 32,575 80 459 -1920
2018-10-15 20:51:24 GMT 49.767647 11.555464 32,700 80 459 -1856
2018-10-15 20:51:21 GMT 49.766579 11.545889 32,925 80 460 -1472
2018-10-15 20:51:18 GMT 49.765179 11.533492 32,825 80 460 -1408
2018-10-15 20:51:15 GMT 49.764248 11.525252 32,875 80 460 -1472
2018-10-15 20:51:11 GMT 49.762852 11.512781 33,050 80 462 -1344
2018-10-15 20:51:08 GMT 49.761612 11.501746 33,050 80 462 -1408
2018-10-15 20:51:04 GMT 49.760284 11.489965 33,125 80 462 -1408
2018-10-15 20:51:01 GMT 49.758522 11.474180 33,275 80 462 -1472
2018-10-15 20:50:58 GMT 49.758133 11.470522 33,300 80 451 -1984
2018-10-15 20:50:55 GMT 49.756805 11.458740 33,375 80 459 -1600
2018-10-15 20:50:51 GMT 49.755478 11.446887 33,975 79 450 -1344
2018-10-15 20:50:48 GMT 49.754520 11.438549 33,575 80 460 -1536
2018-10-15 20:50:45 GMT 49.753216 11.426895 33,650 80 459 -1600
2018-10-15 20:50:42 GMT 49.752274 11.418698 33,750 80 458 -1600
2018-10-15 20:50:38 GMT 49.750763 11.405543 33,850 80 457 -1600
2018-10-15 20:50:35 GMT 49.749493 11.394084 33,875 80 456 -1600
2018-10-15 20:50:32 GMT 49.748699 11.387032 33,975 80 455 -1600
2018-10-15 20:50:28 GMT 49.746872 11.370633 34,100 80 454 -1536
2018-10-15 20:50:25 GMT 49.746002 11.363278 34,150 80 451 -1472
2018-10-15 20:50:22 GMT 49.744995 11.354298 34,200 79 450 -1344
2018-10-15 20:50:19 GMT 49.743027 11.336806 34,350 79 451 -1408
2018-10-15 20:50:13 GMT 49.741905 11.327275 34,475 80 452 -2240
2018-10-15 20:50:10 GMT 49.740829 11.317797 34,725 80 450 -1408
2018-10-15 20:50:06 GMT 49.739296 11.304338 34,600 80 458 -1024
2018-10-15 20:50:03 GMT 49.737946 11.292386 34,650 80 449 -1536
2018-10-15 20:50:00 GMT 49.737076 11.284838 34,800 80 450 -1664
2018-10-15 20:49:56 GMT 49.735245 11.268865 34,900 80 451 -1984
2018-10-15 20:49:53 GMT 49.734467 11.261926 35,525 80 456 -1536
2018-10-15 20:49:50 GMT 49.733322 11.251735 34,950 80 452 -2176
2018-10-15 20:49:46 GMT 49.732128 11.240869 35,125 80 452 -2048
2018-10-15 20:49:43 GMT 49.730824 11.229364 35,300 80 453 -1600
2018-10-15 20:49:40 GMT 49.729660 11.218674 35,950 80 454 -1536
2018-10-15 20:49:34 GMT 49.727646 11.200778 35,475 80 458 -1152
2018-10-15 20:49:30 GMT 49.726044 11.186467 35,600 80 457 -1408
2018-10-15 20:49:24 GMT 49.724262 11.170646 35,775 80 458 -1152
2018-10-15 20:49:21 GMT 49.723343 11.162398 35,775 79 459 -960
2018-10-15 20:49:18 GMT 49.722015 11.150689 35,825 79 458 -896
2018-10-15 20:49:14 GMT 49.720505 11.137752 35,925 77 458 -576
2018-10-15 20:49:11 GMT 49.719360 11.128861 35,925 77 459 -512
2018-10-15 20:49:08 GMT 49.717976 11.119278 35,975 74 457 0
2018-10-15 20:49:05 GMT 49.716202 11.108551 36,000 74 458 -64
2018-10-15 20:49:02 GMT 49.714577 11.099086 36,000 74 457 -64
2018-10-15 20:48:59 GMT 49.712391 11.087284 36,000 73 456 0
2018-10-15 20:48:53 GMT 49.709885 11.073641 36,000 74 456 0
2018-10-15 20:48:50 GMT 49.708107 11.064272 36,000 73 456 0
2018-10-15 20:48:47 GMT 49.705673 11.051017 36,000 74 456 0
2018-10-15 20:48:43 GMT 49.703453 11.039033 36,000 74 456 0
2018-10-15 20:48:40 GMT 49.702335 11.033020 36,000 74 456 0
2018-10-15 20:48:37 GMT 49.700241 11.021663 36,000 73 456 0
2018-10-15 20:48:34 GMT 49.698486 11.012421 36,000 73 456 0
2018-10-15 20:48:31 GMT 49.696980 11.004292 36,000 73 456 0
2018-10-15 20:48:28 GMT 49.695007 10.993628 36,000 73 456 0
2018-10-15 20:48:24 GMT 49.692444 10.979606 36,000 73 456 0
2018-10-15 20:48:21 GMT 49.690842 10.971005 36,000 74 456 0
2018-10-15 20:48:18 GMT 49.688965 10.961031 36,000 73 456 0
2018-10-15 20:48:15 GMT 49.684982 10.939636 36,000 74 457 0
2018-10-15 20:48:11 GMT 49.684982 10.939636 36,000 74 457 0
2018-10-15 20:48:08 GMT 49.683380 10.930963 36,000 74 457 0
2018-10-15 20:48:04 GMT 49.680817 10.916941 36,000 74 457 0
2018-10-15 20:48:01 GMT 49.678825 10.906306 36,000 73 456 0
2018-10-15 20:47:58 GMT 49.677708 10.900293 36,000 73 455 0
2018-10-15 20:47:55 GMT 49.675461 10.888319 36,000 73 456 0
2018-10-15 20:47:52 GMT 49.673985 10.880325 36,000 74 457 0
2018-10-15 20:47:49 GMT 49.672123 10.870304 36,000 73 456 0
2018-10-15 20:47:45 GMT 49.669876 10.858323 36,000 73 456 0
2018-10-15 20:47:42 GMT 49.668228 10.849577 36,000 74 457 0
2018-10-15 20:47:38 GMT 49.665977 10.837567 36,000 72 444 64
2018-10-15 20:47:35 GMT 49.664116 10.827546 36,000 73 457 0
2018-10-15 20:47:32 GMT 49.661789 10.814927 36,000 73 457 0
2018-10-15 20:47:28 GMT 49.659878 10.804905 36,000 73 457 64
2018-10-15 20:47:25 GMT 49.658295 10.796294 36,000 74 456 0
2018-10-15 20:47:22 GMT 49.656155 10.784863 36,000 73 457 64
2018-10-15 20:47:19 GMT 49.654758 10.777514 36,000 73 457 64
2018-10-15 20:47:16 GMT 49.653259 10.769493 36,000 74 457 0
2018-10-15 20:47:13 GMT 49.651546 10.760218 36,000 74 457 0
2018-10-15 20:47:10 GMT 49.647545 10.738839 36,000 74 457 0
2018-10-15 20:47:07 GMT 49.647545 10.738839 36,000 74 457 0
2018-10-15 20:47:02 GMT 49.645294 10.726776 36,000 74 457 0
2018-10-15 20:46:59 GMT 49.643074 10.714788 36,000 74 456 0
2018-10-15 20:46:56 GMT 49.641129 10.704153 36,000 74 455 0
2018-10-15 20:46:52 GMT 49.639160 10.693456 36,000 74 454 0
2018-10-15 20:46:49 GMT 49.637466 10.684204 36,000 74 454 0
2018-10-15 20:46:45 GMT 49.635159 10.671585 36,000 74 452 0
2018-10-15 20:46:39 GMT 49.631294 10.650503 36,000 74 450 0
2018-10-15 20:46:36 GMT 49.628265 10.634043 36,000 74 449 0
2018-10-15 20:46:33 GMT 49.628265 10.634043 36,000 74 448 0
2018-10-15 20:46:30 GMT 49.626595 10.624819 36,000 74 447 0
2018-10-15 20:46:27 GMT 49.624786 10.615106 36,000 74 447 0
2018-10-15 20:46:23 GMT 49.622963 10.605221 36,000 73 445 64
2018-10-15 20:46:19 GMT 49.619934 10.589302 36,000 73 444 64
2018-10-15 20:46:16 GMT 49.618774 10.583249 36,000 72 443 64
2018-10-15 20:46:13 GMT 49.616364 10.571667 36,000 68 441 0
2018-10-15 20:46:08 GMT 49.613068 10.558584 36,000 66 441 0
2018-10-15 20:46:05 GMT 49.609772 10.547670 36,000 26 426 0
2018-10-15 20:46:02 GMT 49.607182 10.540046 36,000 60 438 0
2018-10-15 20:45:58 GMT 49.603226 10.529727 36,000 54 436 64
2018-10-15 20:45:55 GMT 49.596130 10.513916 36,000 28 427 0
2018-10-15 20:45:52 GMT 49.596130 10.513916 36,000 46 433 0
2018-10-15 20:45:48 GMT 49.592331 10.506905 36,000 46 432 0
2018-10-15 20:45:45 GMT 49.586609 10.497075 36,000 40 431 0
2018-10-15 20:45:42 GMT 49.583588 10.492449 36,000 41 432 0
2018-10-15 20:45:39 GMT 49.579205 10.486227 36,000 38 430 0
2018-10-15 20:45:36 GMT 49.574615 10.480307 36,000 38 430 0
2018-10-15 20:45:33 GMT 49.569939 10.474870 36,000 36 430 0
2018-10-15 20:45:30 GMT 49.565781 10.470477 36,000 30 428 0
2018-10-15 20:45:27 GMT 49.558582 10.463587 36,000 28 427 0
2018-10-15 20:45:23 GMT 49.553043 10.458984 36,000 25 426 0
2018-10-15 20:45:20 GMT 49.547318 10.454827 36,000 22 425 0
2018-10-15 20:45:17 GMT 49.542336 10.451561 36,000 19 423 0
2018-10-15 20:45:14 GMT 49.536804 10.448432 36,000 17 423 0
2018-10-15 20:45:11 GMT 49.531208 10.445697 36,000 13 422 0
2018-10-15 20:45:08 GMT 49.523575 10.442653 36,000 8 421 0
2018-10-15 20:45:05 GMT 49.520325 10.441565 36,000 8 421 0
2018-10-15 20:45:02 GMT 49.512959 10.439610 36,000 3 419 -64
2018-10-15 20:44:57 GMT 49.504673 10.438274 36,000 3 419 -64
2018-10-15 20:44:54 GMT 49.497692 10.437754 36,025 355 418 -64
2018-10-15 20:44:51 GMT 49.487778 10.437879 36,025 304 423 64
2018-10-15 20:44:48 GMT 49.487778 10.437879 36,025 354 417 -64
2018-10-15 20:44:45 GMT 49.481258 10.438571 36,025 355 417 -64
2018-10-15 20:44:42 GMT 49.473907 10.439903 36,025 350 416 -128
2018-10-15 20:44:38 GMT 49.469421 10.440987 36,025 349 415 0
2018-10-15 20:44:35 GMT 49.460960 10.443693 36,025 347 416 0
2018-10-15 20:44:29 GMT 49.449463 10.448432 36,025 342 417 64
2018-10-15 20:44:26 GMT 49.445927 10.450225 36,025 337 417 0
2018-10-15 20:44:23 GMT 49.438293 10.454648 36,025 337 417 0
2018-10-15 20:44:20 GMT 49.434906 10.456816 36,025 336 418 0
2018-10-15 20:44:16 GMT 49.427444 10.462309 36,025 331 418 0
2018-10-15 20:44:13 GMT 49.417007 10.471309 36,025 329 419 0
2018-10-15 20:44:10 GMT 49.417007 10.471309 36,025 327 419 0
2018-10-15 20:44:07 GMT 49.411476 10.476837 36,025 322 419 0
2018-10-15 20:44:04 GMT 49.408451 10.480090 36,025 323 420 0
2018-10-15 20:44:01 GMT 49.401855 10.487859 36,025 320 419 64
2018-10-15 20:43:58 GMT 49.397465 10.493533 36,025 316 420 64
2018-10-15 20:43:55 GMT 49.393616 10.498986 36,025 316 420 64
2018-10-15 20:43:51 GMT 49.389038 10.505821 36,025 314 421 64
2018-10-15 20:43:48 GMT 49.385101 10.512296 36,025 312 421 128
2018-10-15 20:43:45 GMT 49.381264 10.519048 36,025 305 423 128
2018-10-15 20:43:42 GMT 49.376633 10.528001 36,000 305 423 128
2018-10-15 20:43:39 GMT 49.373116 10.535600 36,000 305 423 128
2018-10-15 20:43:35 GMT 49.370041 10.542720 36,000 298 424 0
2018-10-15 20:43:32 GMT 49.367157 10.549833 36,000 294 424 0
2018-10-15 20:43:29 GMT 49.364365 10.557644 36,000 292 424 0
2018-10-15 20:43:26 GMT 49.361023 10.567932 36,000 294 424 0
2018-10-15 20:43:23 GMT 49.358505 10.576665 36,000 284 425 0
2018-10-15 20:43:18 GMT 49.355473 10.588652 36,000 285 425 0
2018-10-15 20:43:15 GMT 49.353191 10.599638 36,000 286 425 0
2018-10-15 20:43:12 GMT 49.351517 10.608962 36,000 282 425 64
2018-10-15 20:43:06 GMT 49.349377 10.624574 36,000 278 426 64
2018-10-15 20:43:03 GMT 49.348480 10.633498 36,000 278 426 64
2018-10-15 20:43:00 GMT 49.347839 10.642499 36,000 275 426 64
2018-10-15 20:42:57 GMT 49.347374 10.653341 36,000 273 426 64
2018-10-15 20:42:54 GMT 49.347233 10.660424 36,000 270 428 0
2018-10-15 20:42:48 GMT 49.347565 10.679204 36,000 265 428 0
2018-10-15 20:42:45 GMT 49.347977 10.686176 36,000 241 427 -128
2018-10-15 20:42:42 GMT 49.348583 10.694034 36,000 262 428 0
2018-10-15 20:42:37 GMT 49.350266 10.709205 36,000 254 429 64
2018-10-15 20:42:34 GMT 49.354111 10.731671 36,000 253 428 64
2018-10-15 20:42:31 GMT 49.354111 10.731671 36,000 252 428 0
2018-10-15 20:42:25 GMT 49.357864 10.747516 36,000 244 428 -64
2018-10-15 20:42:22 GMT 49.359650 10.754066 36,000 244 428 -64
2018-10-15 20:42:19 GMT 49.361618 10.760475 36,000 244 427 -64
2018-10-15 20:42:16 GMT 49.365063 10.770794 36,000 239 427 -64
2018-10-15 20:42:13 GMT 49.367569 10.777517 36,000 238 427 -64
2018-10-15 20:42:10 GMT 49.370178 10.784137 36,000 238 426 -64
2018-10-15 20:42:07 GMT 49.373585 10.792405 36,000 238 426 -64
2018-10-15 20:42:03 GMT 49.379215 10.805993 36,000 238 428 -64
2018-10-15 20:41:59 GMT 49.381638 10.811920 36,000 238 428 -64
2018-10-15 20:41:56 GMT 49.386387 10.823412 36,000 238 428 -64
2018-10-15 20:41:53 GMT 49.389782 10.831580 36,000 238 431 -64
2018-10-15 20:41:50 GMT 49.393433 10.840407 36,000 238 430 -64
2018-10-15 20:41:47 GMT 49.396362 10.847520 36,000 239 430 -64
2018-10-15 20:41:43 GMT 49.404099 10.866253 36,025 238 435 -64
2018-10-15 20:41:40 GMT 49.404099 10.866253 36,025 238 435 -64
2018-10-15 20:41:37 GMT 49.406158 10.871253 36,025 238 436 -64
2018-10-15 20:41:34 GMT 49.410267 10.881308 36,000 238 440 64
2018-10-15 20:41:30 GMT 49.413292 10.888608 36,025 238 440 64
2018-10-15 20:41:27 GMT 49.417007 10.897592 36,000 238 443 64
2018-10-15 20:41:24 GMT 49.420486 10.906043 36,000 238 448 64
2018-10-15 20:41:21 GMT 49.424469 10.915762 36,000 238 448 64
2018-10-15 20:41:18 GMT 49.426987 10.921960 36,000 238 448 64
2018-10-15 20:41:15 GMT 49.433868 10.938671 36,000 238 454 64
2018-10-15 20:41:12 GMT 49.436234 10.944479 36,000 238 454 64
2018-10-15 20:41:09 GMT 49.436234 10.944479 35,975 238 454 64
2018-10-15 20:41:06 GMT 49.440525 10.954928 35,975 238 459 -64
2018-10-15 20:41:02 GMT 49.445087 10.966137 35,975 238 459 -128
2018-10-15 20:40:59 GMT 49.448593 10.974691 36,000 238 459 -64
2018-10-15 20:40:56 GMT 49.450348 10.978979 36,000 238 459 0
2018-10-15 20:40:53 GMT 49.453720 10.987268 36,025 238 459 0
2018-10-15 20:40:50 GMT 49.461868 11.007217 36,025 238 459 0
2018-10-15 20:40:47 GMT 49.461868 11.007217 36,000 238 459 0
2018-10-15 20:40:43 GMT 49.466827 11.019361 36,025 238 459 0
2018-10-15 20:40:40 GMT 49.472462 11.033168 36,025 238 459 0
2018-10-15 20:40:37 GMT 49.472462 11.033168 36,025 238 459 0
2018-10-15 20:40:33 GMT 49.477020 11.044303 36,025 238 459 0
2018-10-15 20:40:30 GMT 49.481583 11.055438 36,025 238 460 0
2018-10-15 20:40:24 GMT 49.487354 11.069542 36,025 239 459 64
2018-10-15 20:40:21 GMT 49.493595 11.084908 36,025 238 460 0
2018-10-15 20:40:18 GMT 49.493595 11.084908 36,025 238 460 0
2018-10-15 20:40:15 GMT 49.502014 11.105588 36,025 238 460 0
2018-10-15 20:40:11 GMT 49.502014 11.105588 36,025 238 460 64
2018-10-15 20:40:08 GMT 49.504623 11.112020 36,000 238 460 64
2018-10-15 20:40:05 GMT 49.509933 11.125068 36,025 238 460 64
2018-10-15 20:40:02 GMT 49.511608 11.129150 36,000 238 460 64
2018-10-15 20:39:59 GMT 49.520645 11.151412 36,000 238 460 0
2018-10-15 20:39:56 GMT 49.520645 11.151412 36,000 238 460 0
2018-10-15 20:39:52 GMT 49.522877 11.156913 36,000 238 460 0
2018-10-15 20:39:48 GMT 49.527649 11.168687 36,000 238 460 -64
2018-10-15 20:39:45 GMT 49.530807 11.176421 36,025 238 460 0
2018-10-15 20:39:42 GMT 49.533920 11.184082 36,000 238 460 0
2018-10-15 20:39:39 GMT 49.542068 11.204103 36,025 238 460 -64
2018-10-15 20:39:35 GMT 49.542068 11.204103 36,025 238 460 0
2018-10-15 20:39:32 GMT 49.545639 11.212993 36,025 238 460 0
2018-10-15 20:39:29 GMT 49.549759 11.223040 36,000 239 459 -128
2018-10-15 20:39:24 GMT 49.554291 11.234243 36,025 239 459 -128
2018-10-15 20:39:21 GMT 49.557930 11.243245 36,025 238 460 -128
2018-10-15 20:39:17 GMT 49.561752 11.252674 36,050 238 460 -64
2018-10-15 20:39:13 GMT 49.566074 11.263288 36,050 238 460 0
2018-10-15 20:39:09 GMT 49.571823 11.277466 36,050 240 458 64
2018-10-15 20:39:06 GMT 49.577808 11.292164 36,050 239 459 64
2018-10-15 20:39:03 GMT 49.577808 11.292164 36,050 239 459 64
2018-10-15 20:39:00 GMT 49.581390 11.301072 36,050 239 459 64
2018-10-15 20:38:56 GMT 49.585693 11.311654 36,050 239 459 64
2018-10-15 20:38:52 GMT 49.590004 11.322302 36,050 239 459 0
2018-10-15 20:38:49 GMT 49.594116 11.332397 36,050 239 459 0
2018-10-15 20:38:46 GMT 49.597919 11.341825 36,025 239 459 0
2018-10-15 20:38:42 GMT 49.602814 11.354009 36,025 239 459 0
2018-10-15 20:38:39 GMT 49.605789 11.361309 36,025 239 459 0
2018-10-15 20:38:35 GMT 49.609863 11.371428 36,025 239 459 0
2018-10-15 20:38:31 GMT 49.613892 11.381475 36,025 239 459 64
2018-10-15 20:38:28 GMT 49.617237 11.389779 36,025 239 459 64
2018-10-15 20:38:25 GMT 49.620773 11.398687 36,025 239 459 64
2018-10-15 20:38:21 GMT 49.624870 11.408782 36,025 239 459 64
2018-10-15 20:38:18 GMT 49.632706 11.428383 36,025 239 459 64
2018-10-15 20:38:15 GMT 49.632706 11.428383 36,025 239 458 64
2018-10-15 20:38:11 GMT 49.640049 11.446789 36,000 239 459 0
2018-10-15 20:38:05 GMT 49.643631 11.455697 36,000 239 459 64
2018-10-15 20:38:02 GMT 49.647728 11.465792 36,000 239 458 64
2018-10-15 20:37:59 GMT 49.650055 11.471678 36,000 239 459 64
2018-10-15 20:37:56 GMT 49.653168 11.479340 36,000 239 459 64
2018-10-15 20:37:52 GMT 49.658432 11.492494 36,000 239 458 64
2018-10-15 20:37:49 GMT 49.661789 11.500830 36,000 239 459 64
2018-10-15 20:37:46 GMT 49.665298 11.509624 36,000 239 457 64
2018-10-15 20:37:42 GMT 49.668911 11.518645 36,000 239 458 64
2018-10-15 20:37:39 GMT 49.676010 11.536295 35,975 239 458 64
2018-10-15 20:37:36 GMT 49.679169 11.544029 35,975 239 458 64
2018-10-15 20:37:33 GMT 49.682457 11.552272 35,975 239 458 64
2018-10-15 20:37:27 GMT 49.685760 11.560581 35,975 239 458 64
2018-10-15 20:37:23 GMT 49.694092 11.581325 35,975 239 458 64
2018-10-15 20:37:19 GMT 49.694092 11.581325 35,975 239 457 64
2018-10-15 20:37:16 GMT 49.697662 11.590215 35,975 239 457 64
2018-10-15 20:37:13 GMT 49.701187 11.599033 35,975 239 457 64
2018-10-15 20:37:10 GMT 49.704483 11.607272 35,975 239 457 64
2018-10-15 20:37:06 GMT 49.709599 11.620120 35,975 239 456 0
2018-10-15 20:37:02 GMT 49.713924 11.630958 35,975 239 455 64
2018-10-15 20:36:59 GMT 49.720734 11.647965 35,975 239 455 64
2018-10-15 20:36:56 GMT 49.720734 11.647965 35,975 239 455 64
2018-10-15 20:36:53 GMT 49.724495 11.657459 35,975 239 455 64
2018-10-15 20:36:49 GMT 49.729156 11.669215 35,975 239 455 64
2018-10-15 20:36:45 GMT 49.735016 11.683960 35,950 239 452 0
2018-10-15 20:36:38 GMT 49.739227 11.694585 35,950 239 452 0
2018-10-15 20:36:35 GMT 49.744141 11.706972 35,950 239 453 64
2018-10-15 20:36:32 GMT 49.747166 11.714544 35,950 239 453 64
2018-10-15 20:36:29 GMT 49.752518 11.728128 35,950 239 452 0
2018-10-15 20:36:26 GMT 49.752518 11.728128 35,950 239 453 0
2018-10-15 20:36:23 GMT 49.756474 11.738075 35,950 239 452 0
2018-10-15 20:36:20 GMT 49.759033 11.744533 35,950 239 452 0
2018-10-15 20:36:17 GMT 49.762299 11.752841 35,950 239 452 0
2018-10-15 20:36:14 GMT 49.766235 11.762743 35,975 239 452 0
2018-10-15 20:36:11 GMT 49.770905 11.774523 35,950 239 452 0
2018-10-15 20:36:08 GMT 49.772278 11.777994 35,950 239 452 -64
2018-10-15 20:36:05 GMT 49.779053 11.795085 35,975 239 451 -64
2018-10-15 20:35:59 GMT 49.782963 11.804958 35,975 239 451 -64
2018-10-15 20:35:56 GMT 49.787525 11.816464 35,975 239 451 -64
2018-10-15 20:35:53 GMT 49.789478 11.821438 35,975 239 451 -64
2018-10-15 20:35:50 GMT 49.793392 11.831310 35,975 239 451 64
2018-10-15 20:35:46 GMT 49.796604 11.839402 35,975 239 450 0
2018-10-15 20:35:43 GMT 49.800110 11.848321 35,975 239 451 0
2018-10-15 20:35:40 GMT 49.804470 11.859296 35,975 239 450 0
2018-10-15 20:35:37 GMT 49.805923 11.862921 35,975 239 450 0
2018-10-15 20:35:34 GMT 49.809639 11.872286 35,975 239 450 0
2018-10-15 20:35:31 GMT 49.812424 11.879329 35,975 239 450 0
2018-10-15 20:35:27 GMT 49.817738 11.892774 35,975 239 451 0
2018-10-15 20:35:24 GMT 49.820068 11.898699 35,975 239 451 0
2018-10-15 20:35:21 GMT 49.823322 11.906878 35,975 239 451 0
2018-10-15 20:35:16 GMT 49.828632 11.920314 35,975 239 451 0
2018-10-15 20:35:12 GMT 49.834396 11.934911 35,975 239 451 64
2018-10-15 20:35:09 GMT 49.836731 11.940838 35,975 239 451 64
2018-10-15 20:35:06 GMT 49.840897 11.951390 35,975 239 451 64
2018-10-15 20:35:03 GMT 49.842503 11.955500 35,975 239 451 64
2018-10-15 20:35:00 GMT 49.845947 11.964260 35,975 239 451 64
2018-10-15 20:34:57 GMT 49.849392 11.973093 35,975 239 451 64
2018-10-15 20:34:54 GMT 49.853767 11.984154 35,975 239 451 0
2018-10-15 20:34:49 GMT 49.857727 11.994175 35,975 239 451 64
2018-10-15 20:34:46 GMT 49.861450 12.003677 35,975 239 451 64
2018-10-15 20:34:43 GMT 49.864883 12.012393 35,950 239 451 64
2018-10-15 20:34:40 GMT 49.868153 12.020602 35,950 239 451 64
2018-10-15 20:34:37 GMT 49.871132 12.028248 35,975 239 451 64
2018-10-15 20:34:33 GMT 49.876255 12.041238 35,950 239 451 64
2018-10-15 20:34:30 GMT 49.878754 12.047665 35,950 239 451 64
2018-10-15 20:34:27 GMT 49.883377 12.059351 35,950 239 451 0
2018-10-15 20:34:22 GMT 49.888275 12.071806 35,950 239 452 0
2018-10-15 20:34:19 GMT 49.890381 12.077155 35,950 239 450 0
2018-10-15 20:34:16 GMT 49.893356 12.084744 35,950 239 451 -64
2018-10-15 20:34:13 GMT 49.897530 12.095353 35,950 239 451 -64
2018-10-15 20:34:10 GMT 49.900772 12.103609 35,950 239 451 0
2018-10-15 20:34:07 GMT 49.904045 12.111907 35,975 239 452 -64
2018-10-15 20:34:03 GMT 49.907730 12.121317 35,975 240 454 -64
2018-10-15 20:34:00 GMT 49.911209 12.130135 35,975 239 456 0
2018-10-15 20:33:57 GMT 49.914230 12.137724 35,975 239 451 -64
2018-10-15 20:33:54 GMT 49.918671 12.149000 35,975 239 452 -64
2018-10-15 20:33:51 GMT 49.921410 12.156075 35,975 239 454 -64
2018-10-15 20:33:48 GMT 49.924667 12.164315 35,975 239 452 -64
2018-10-15 20:33:45 GMT 49.927002 12.170250 35,975 239 452 -64
2018-10-15 20:33:42 GMT 49.930954 12.180349 36,000 239 452 -64
2018-10-15 20:33:39 GMT 49.934372 12.189114 35,975 239 452 -64
2018-10-15 20:33:35 GMT 49.939240 12.201505 35,975 239 452 -64
2018-10-15 20:33:31 GMT 49.942978 12.211015 36,000 239 454 -64
2018-10-15 20:33:28 GMT 49.946869 12.220989 36,000 239 453 -64
2018-10-15 20:33:24 GMT 49.950600 12.230530 36,000 239 453 -64
2018-10-15 20:33:21 GMT 49.953827 12.238770 36,000 239 453 -64
2018-10-15 20:33:18 GMT 49.957306 12.247660 36,000 239 453 -64
2018-10-15 20:33:15 GMT 49.961025 12.257253 36,000 239 453 0
2018-10-15 20:33:12 GMT 49.963539 12.263711 36,025 239 456 0
2018-10-15 20:33:09 GMT 49.966564 12.271506 36,025 240 454 -64
2018-10-15 20:33:06 GMT 49.972988 12.288134 36,025 240 454 -64
2018-10-15 20:32:59 GMT 49.977833 12.300605 36,025 239 456 0
2018-10-15 20:32:56 GMT 49.979927 12.305949 36,025 239 456 0
2018-10-15 20:32:53 GMT 49.983582 12.315457 36,025 239 456 0
2018-10-15 20:32:50 GMT 49.987934 12.326660 36,025 239 461 64
2018-10-15 20:32:47 GMT 49.990997 12.334611 36,025 239 457 0
2018-10-15 20:32:44 GMT 49.993561 12.341260 36,025 239 456 0
2018-10-15 20:32:38 GMT 50.000732 12.359768 36,025 240 457 -64
2018-10-15 20:32:35 GMT 50.003017 12.365706 36,025 240 457 0
2018-10-15 20:32:32 GMT 50.006287 12.374147 36,025 239 457 0
2018-10-15 20:32:26 GMT 50.012558 12.390351 36,025 240 458 0
2018-10-15 20:32:23 GMT 50.016266 12.399878 36,050 240 458 0
2018-10-15 20:32:20 GMT 50.021118 12.412527 36,025 240 458 64
2018-10-15 20:32:16 GMT 50.024662 12.421603 36,025 240 458 64
2018-10-15 20:32:13 GMT 50.026989 12.427616 36,025 240 460 64
2018-10-15 20:32:10 GMT 50.030228 12.435945 36,025 239 459 0
2018-10-15 20:32:07 GMT 50.033508 12.444392 36,025 239 459 0
2018-10-15 20:32:04 GMT 50.037186 12.454015 36,025 239 459 0
2018-10-15 20:32:01 GMT 50.045197 12.474614 36,025 240 460 64
2018-10-15 20:31:58 GMT 50.045197 12.474614 36,025 240 460 0
2018-10-15 20:31:55 GMT 50.047714 12.481119 36,025 240 460 0
2018-10-15 20:31:52 GMT 50.050323 12.487841 36,050 240 460 -64
2018-10-15 20:31:49 GMT 50.053802 12.496876 36,050 240 460 64
2018-10-15 20:31:46 GMT 50.057713 12.506970 36,050 240 460 64
2018-10-15 20:31:43 GMT 50.060600 12.514467 36,025 240 460 64
2018-10-15 20:31:40 GMT 50.064556 12.524637 36,025 239 462 64
2018-10-15 20:31:37 GMT 50.069958 12.538592 36,025 239 462 64
2018-10-15 20:31:34 GMT 50.069958 12.538592 36,025 239 462 0
2018-10-15 20:31:31 GMT 50.075264 12.552325 36,025 239 462 0
2018-10-15 20:31:28 GMT 50.076473 12.555517 36,025 240 462 0
2018-10-15 20:31:24 GMT 50.080673 12.566480 36,025 240 462 0
2018-10-15 20:31:21 GMT 50.084198 12.575587 36,025 240 462 -64
2018-10-15 20:31:18 GMT 50.087952 12.585345 36,050 240 462 0
2018-10-15 20:31:15 GMT 50.091000 12.593227 36,050 240 462 -64
2018-10-15 20:31:11 GMT 50.095413 12.604715 36,050 240 462 0
2018-10-15 20:31:08 GMT 50.098679 12.613270 36,050 240 462 0
2018-10-15 20:31:05 GMT 50.101753 12.621287 36,050 240 462 0
2018-10-15 20:31:02 GMT 50.105709 12.631531 36,050 240 462 0
2018-10-15 20:30:59 GMT 50.108501 12.638880 36,050 240 463 0
2018-10-15 20:30:56 GMT 50.111530 12.646748 36,050 240 463 0
2018-10-15 20:30:53 GMT 50.115692 12.657696 36,050 240 462 64
2018-10-15 20:30:50 GMT 50.119171 12.666875 36,050 240 462 64
2018-10-15 20:30:47 GMT 50.122238 12.674826 36,050 240 462 64
2018-10-15 20:30:44 GMT 50.128281 12.690655 36,050 240 463 0
2018-10-15 20:30:41 GMT 50.128281 12.690655 36,025 240 463 0
2018-10-15 20:30:37 GMT 50.133175 12.703610 36,025 240 464 64
2018-10-15 20:30:34 GMT 50.135502 12.709623 36,025 240 464 64
2018-10-15 20:30:31 GMT 50.139221 12.719349 36,025 240 464 64
2018-10-15 20:30:27 GMT 50.145401 12.735684 36,025 240 464 64
2018-10-15 20:30:24 GMT 50.147141 12.740093 36,025 240 464 64
2018-10-15 20:30:21 GMT 50.150162 12.748116 36,025 240 464 64
2018-10-15 20:30:18 GMT 50.153893 12.757874 36,000 240 464 64
2018-10-15 20:30:14 GMT 50.157623 12.767631 36,000 240 463 64
2018-10-15 20:30:10 GMT 50.162270 12.779772 36,000 240 463 64
2018-10-15 20:30:07 GMT 50.164627 12.785918 36,000 240 463 0
2018-10-15 20:30:04 GMT 50.169296 12.798205 36,000 240 463 64
2018-10-15 20:30:01 GMT 50.171631 12.804276 36,000 240 463 0
2018-10-15 20:29:58 GMT 50.175842 12.815263 36,000 240 463 0
2018-10-15 20:29:55 GMT 50.178635 12.822563 36,000 240 463 0
2018-10-15 20:29:52 GMT 50.181450 12.829879 36,000 240 463 0
2018-10-15 20:29:49 GMT 50.188751 12.848872 36,000 240 462 0
2018-10-15 20:29:45 GMT 50.188751 12.848872 36,000 240 461 -64
2018-10-15 20:29:42 GMT 50.197186 12.870780 36,025 239 460 -64
2018-10-15 20:29:34 GMT 50.200676 12.879911 36,025 239 462 -128
2018-10-15 20:29:31 GMT 50.203949 12.888336 36,025 239 461 -64
2018-10-15 20:29:28 GMT 50.207977 12.898672 36,025 239 461 -64
2018-10-15 20:29:24 GMT 50.212688 12.910866 36,025 239 461 -64
2018-10-15 20:29:21 GMT 50.215988 12.919199 36,025 239 460 -64
2018-10-15 20:29:18 GMT 50.218830 12.926454 36,050 239 460 -64
2018-10-15 20:29:15 GMT 50.222626 12.936185 36,050 239 460 0
2018-10-15 20:29:12 GMT 50.226196 12.945219 36,050 239 460 0
2018-10-15 20:29:09 GMT 50.228760 12.951797 36,050 239 459 0
2018-10-15 20:29:06 GMT 50.233429 12.963650 36,050 239 460 0
2018-10-15 20:29:03 GMT 50.235638 12.969286 36,050 239 459 0
2018-10-15 20:29:00 GMT 50.242538 12.986707 36,050 239 459 0
2018-10-15 20:28:57 GMT 50.242538 12.986707 36,050 239 459 0
2018-10-15 20:28:54 GMT 50.245834 12.995091 36,050 239 459 0
2018-10-15 20:28:51 GMT 50.248947 13.002970 36,050 239 459 0
2018-10-15 20:28:48 GMT 50.253002 13.013157 36,050 239 458 64
2018-10-15 20:28:45 GMT 50.255081 13.018510 36,050 239 459 64
2018-10-15 20:28:42 GMT 50.260300 13.031809 36,050 239 458 64
2018-10-15 20:28:39 GMT 50.262405 13.037208 36,025 239 458 64
2018-10-15 20:28:36 GMT 50.268677 13.053565 36,025 240 459 64
2018-10-15 20:28:33 GMT 50.268677 13.053565 36,025 240 459 128
2018-10-15 20:28:30 GMT 50.276230 13.073656 36,025 241 459 128
2018-10-15 20:28:27 GMT 50.276230 13.073656 36,000 242 459 128
2018-10-15 20:28:23 GMT 50.279297 13.082187 36,000 242 459 128
2018-10-15 20:28:19 GMT 50.285355 13.099340 36,000 243 459 128
2018-10-15 20:28:16 GMT 50.286472 13.102607 36,000 245 455 -64
2018-10-15 20:28:13 GMT 50.290009 13.113296 35,975 244 459 64
2018-10-15 20:28:09 GMT 50.294060 13.125990 35,975 244 458 64
2018-10-15 20:28:06 GMT 50.296463 13.133577 35,975 244 458 0
2018-10-15 20:28:03 GMT 50.301975 13.151303 35,975 244 458 0
2018-10-15 20:27:57 GMT 50.304211 13.158281 35,975 244 457 0
2018-10-15 20:27:54 GMT 50.308537 13.172162 35,975 245 457 0
2018-10-15 20:27:50 GMT 50.311066 13.180341 35,975 245 457 0
2018-10-15 20:27:46 GMT 50.315460 13.194291 35,975 245 457 0
2018-10-15 20:27:42 GMT 50.318172 13.203117 35,975 245 455 -64
2018-10-15 20:27:38 GMT 50.322876 13.218215 35,975 245 455 -64
2018-10-15 20:27:34 GMT 50.325623 13.227094 36,000 245 454 0
2018-10-15 20:27:31 GMT 50.328369 13.235996 35,975 245 452 0
2018-10-15 20:27:28 GMT 50.331070 13.244761 36,000 245 454 0
2018-10-15 20:27:25 GMT 50.334980 13.257380 36,000 245 454 -64
2018-10-15 20:27:21 GMT 50.338120 13.267365 36,000 245 452 0
2018-10-15 20:27:18 GMT 50.340683 13.275677 36,000 245 453 -64
2018-10-15 20:27:15 GMT 50.343174 13.283807 36,000 245 453 -64
2018-10-15 20:27:12 GMT 50.345901 13.292590 36,000 245 453 -64
2018-10-15 20:27:09 GMT 50.348618 13.301326 36,000 245 452 0
2018-10-15 20:27:06 GMT 50.351925 13.312015 36,000 245 452 0
2018-10-15 20:27:03 GMT 50.354065 13.318919 36,000 245 452 0
2018-10-15 20:27:00 GMT 50.357941 13.331403 36,000 245 452 0
2018-10-15 20:26:56 GMT 50.362976 13.347666 36,000 245 451 0
2018-10-15 20:26:50 GMT 50.366032 13.357668 36,000 245 451 0
2018-10-15 20:26:47 GMT 50.368790 13.366458 36,000 245 451 0
2018-10-15 20:26:44 GMT 50.371262 13.374553 36,000 245 451 0
2018-10-15 20:26:41 GMT 50.374557 13.385178 36,000 245 450 0
2018-10-15 20:26:37 GMT 50.378448 13.397755 36,000 245 449 0
2018-10-15 20:26:34 GMT 50.382523 13.410837 36,000 245 449 0
2018-10-15 20:26:28 GMT 50.388515 13.430118 36,000 245 450 0
2018-10-15 20:26:25 GMT 50.388515 13.430118 36,000 245 449 0
2018-10-15 20:26:22 GMT 50.391399 13.439471 36,000 245 449 0
2018-10-15 20:26:18 GMT 50.395451 13.452610 36,000 245 449 0
2018-10-15 20:26:15 GMT 50.398544 13.462516 36,025 245 449 64
2018-10-15 20:26:12 GMT 50.400478 13.468793 36,000 245 449 -64
2018-10-15 20:26:07 GMT 50.406464 13.488103 36,000 245 449 64
2018-10-15 20:26:03 GMT 50.408936 13.496198 36,000 245 449 64
2018-10-15 20:25:57 GMT 50.414536 13.514297 36,000 245 449 64
2018-10-15 20:25:54 GMT 50.417049 13.522314 36,025 245 449 -64
2018-10-15 20:25:51 GMT 50.422623 13.540505 35,975 245 450 -64
2018-10-15 20:25:47 GMT 50.422623 13.540505 36,000 245 446 -64
2018-10-15 20:25:43 GMT 50.425919 13.551202 36,000 245 450 64
2018-10-15 20:25:40 GMT 50.434616 13.579318 35,975 245 450 -64
2018-10-15 20:25:35 GMT 50.434616 13.579318 36,000 245 449 64
2018-10-15 20:25:32 GMT 50.437256 13.588009 36,000 245 449 128
2018-10-15 20:25:29 GMT 50.439880 13.596593 36,000 245 450 64
2018-10-15 20:25:26 GMT 50.441303 13.601148 36,000 245 450 0
2018-10-15 20:25:23 GMT 50.445541 13.615030 35,975 245 450 -64
2018-10-15 20:25:20 GMT 50.447449 13.621265 35,975 245 450 -64
2018-10-15 20:25:17 GMT 50.450291 13.630619 36,000 245 449 -64
2018-10-15 20:25:13 GMT 50.453934 13.642490 36,000 245 449 0
2018-10-15 20:25:10 GMT 50.456223 13.650007 36,000 245 448 0
2018-10-15 20:25:06 GMT 50.460392 13.663578 36,000 245 447 0
2018-10-15 20:25:02 GMT 50.464211 13.676197 36,000 245 446 64
2018-10-15 20:24:59 GMT 50.465931 13.681764 36,000 245 446 -64
2018-10-15 20:24:53 GMT 50.470867 13.697947 35,975 245 446 -64
2018-10-15 20:24:50 GMT 50.474808 13.710793 36,000 245 447 -128
2018-10-15 20:24:47 GMT 50.476181 13.715346 36,000 245 449 -64
2018-10-15 20:24:44 GMT 50.479614 13.726550 36,000 245 447 -64
2018-10-15 20:24:41 GMT 50.482269 13.735360 36,025 245 447 -64
2018-10-15 20:24:38 GMT 50.485291 13.745270 36,025 245 447 -64
2018-10-15 20:24:35 GMT 50.487213 13.751558 36,025 245 447 -64
2018-10-15 20:24:31 GMT 50.490791 13.763419 36,025 245 447 -64
2018-10-15 20:24:28 GMT 50.494373 13.775222 36,025 245 447 64
2018-10-15 20:24:25 GMT 50.496098 13.780938 36,025 245 447 64
2018-10-15 20:24:21 GMT 50.499680 13.792741 36,025 245 448 0
2018-10-15 20:24:18 GMT 50.502522 13.802094 36,000 245 449 0
2018-10-15 20:24:15 GMT 50.506107 13.813971 36,000 245 450 -64
2018-10-15 20:24:12 GMT 50.507828 13.819613 36,000 245 452 -256
2018-10-15 20:24:09 GMT 50.511086 13.830377 36,025 245 453 -256
2018-10-15 20:24:03 GMT 50.516052 13.846676 36,050 245 454 0
2018-10-15 20:24:00 GMT 50.518955 13.856284 36,050 245 454 0
2018-10-15 20:23:57 GMT 50.521236 13.863781 36,050 245 454 0
2018-10-15 20:23:53 GMT 50.524933 13.875877 36,050 245 456 0
2018-10-15 20:23:50 GMT 50.527615 13.884789 36,050 245 456 0
2018-10-15 20:23:47 GMT 50.530106 13.893007 36,050 245 455 0
2018-10-15 20:23:44 GMT 50.533199 13.903124 36,050 245 455 0
2018-10-15 20:23:41 GMT 50.536270 13.913368 36,050 245 455 64
2018-10-15 20:23:38 GMT 50.539856 13.925097 36,050 245 455 64
2018-10-15 20:23:35 GMT 50.541687 13.931098 36,050 245 455 0
2018-10-15 20:23:32 GMT 50.544743 13.941205 36,050 245 455 0
2018-10-15 20:23:29 GMT 50.546310 13.946348 36,050 245 455 0
2018-10-15 20:23:26 GMT 50.551495 13.963475 36,050 245 456 0
2018-10-15 20:23:20 GMT 50.557312 13.982626 36,050 245 456 0
2018-10-15 20:23:17 GMT 50.557312 13.982626 36,050 245 456 0
2018-10-15 20:23:14 GMT 50.560524 13.993316 36,050 245 456 64
2018-10-15 20:23:11 GMT 50.563087 14.001704 36,050 245 456 64
2018-10-15 20:23:08 GMT 50.566132 14.011833 36,050 245 456 64
2018-10-15 20:23:05 GMT 50.571945 14.030987 36,050 245 456 64
2018-10-15 20:23:02 GMT 50.571945 14.030987 36,050 245 456 64
2018-10-15 20:22:59 GMT 50.573822 14.037347 36,050 245 457 64
2018-10-15 20:22:56 GMT 50.576538 14.046317 36,025 245 454 128
2018-10-15 20:22:53 GMT 50.578857 14.053971 36,025 245 455 64
2018-10-15 20:22:50 GMT 50.581940 14.064133 36,025 245 456 64
2018-10-15 20:22:47 GMT 50.584034 14.071185 36,025 245 456 128
2018-10-15 20:22:44 GMT 50.587921 14.083967 36,025 245 456 64
2018-10-15 20:22:41 GMT 50.590969 14.094123 36,025 245 455 128
2018-10-15 20:22:35 GMT 50.595577 14.109415 36,025 245 454 64
2018-10-15 20:22:32 GMT 50.597721 14.116467 36,000 245 454 128
2018-10-15 20:22:29 GMT 50.603867 14.136732 36,000 245 454 64
2018-10-15 20:22:26 GMT 50.603867 14.136732 36,000 245 454 128
2018-10-15 20:22:23 GMT 50.606552 14.145693 36,000 245 454 0
2018-10-15 20:22:20 GMT 50.609024 14.153932 36,000 245 454 64
2018-10-15 20:22:16 GMT 50.613464 14.168605 36,000 245 454 0
2018-10-15 20:22:13 GMT 50.615364 14.174887 36,000 245 454 0
2018-10-15 20:22:10 GMT 50.618622 14.185725 36,000 245 453 0
2018-10-15 20:22:06 GMT 50.620880 14.193396 36,000 245 453 0
2018-10-15 20:22:03 GMT 50.626442 14.211780 36,000 245 453 0
2018-10-15 20:22:00 GMT 50.626442 14.211780 36,000 245 451 0
2018-10-15 20:21:57 GMT 50.629486 14.221946 36,000 245 452 0
2018-10-15 20:21:54 GMT 50.632496 14.232046 36,000 245 451 0
2018-10-15 20:21:51 GMT 50.634266 14.237836 36,000 245 451 0
2018-10-15 20:21:48 GMT 50.637039 14.247244 36,000 245 451 -64
2018-10-15 20:21:45 GMT 50.640427 14.258664 36,000 245 451 -64
2018-10-15 20:21:42 GMT 50.643482 14.268865 36,000 245 450 -64
2018-10-15 20:21:39 GMT 50.645344 14.275100 36,000 245 450 0
2018-10-15 20:21:36 GMT 50.648743 14.286532 36,000 245 450 0
2018-10-15 20:21:33 GMT 50.650818 14.293502 36,000 245 450 0
2018-10-15 20:21:30 GMT 50.652878 14.300368 36,000 245 450 0
2018-10-15 20:21:27 GMT 50.656082 14.311138 36,000 245 449 64
2018-10-15 20:21:24 GMT 50.658463 14.319305 36,000 245 449 64
2018-10-15 20:21:21 GMT 50.661125 14.328176 36,000 245 449 0
2018-10-15 20:21:18 GMT 50.664871 14.340844 36,000 246 448 64
2018-10-15 20:21:14 GMT 50.667458 14.349629 36,000 246 449 0
2018-10-15 20:21:11 GMT 50.669876 14.357869 36,000 246 449 0
2018-10-15 20:21:08 GMT 50.675262 14.376130 36,000 246 449 0
2018-10-15 20:21:02 GMT 50.677689 14.384444 36,000 246 450 0
2018-10-15 20:20:59 GMT 50.683098 14.402695 36,000 245 449 0
2018-10-15 20:20:56 GMT 50.683098 14.402695 36,000 245 449 0
2018-10-15 20:20:53 GMT 50.685013 14.409089 36,000 245 449 0
2018-10-15 20:20:50 GMT 50.687984 14.419098 36,000 245 449 0
2018-10-15 20:20:47 GMT 50.690777 14.428558 36,000 246 448 0
2018-10-15 20:20:43 GMT 50.693756 14.438633 36,000 246 448 64
2018-10-15 20:20:40 GMT 50.697853 14.452591 36,000 246 447 0
2018-10-15 20:20:37 GMT 50.703232 14.470776 36,000 246 447 0
2018-10-15 20:20:33 GMT 50.703232 14.470776 36,000 246 447 0
2018-10-15 20:20:30 GMT 50.705860 14.479599 36,000 246 447 0
2018-10-15 20:20:27 GMT 50.708496 14.488443 36,000 245 446 0
2018-10-15 20:20:23 GMT 50.711819 14.499817 36,000 246 446 0
2018-10-15 20:20:20 GMT 50.714615 14.509201 36,000 246 446 0
2018-10-15 20:20:17 GMT 50.717361 14.518585 36,000 246 445 0
2018-10-15 20:20:14 GMT 50.719940 14.527340 36,000 246 444 0
2018-10-15 20:20:11 GMT 50.724747 14.543597 36,000 246 444 64
2018-10-15 20:20:08 GMT 50.724747 14.543597 36,000 246 443 0
2018-10-15 20:20:05 GMT 50.727650 14.553604 36,000 246 443 0
2018-10-15 20:20:02 GMT 50.730392 14.562912 36,000 246 442 0
2018-10-15 20:19:59 GMT 50.733513 14.573517 36,000 246 441 0
2018-10-15 20:19:56 GMT 50.737934 14.588470 36,000 246 441 0
2018-10-15 20:19:53 GMT 50.737934 14.588470 36,000 245 439 64
2018-10-15 20:19:50 GMT 50.741226 14.599568 36,000 246 438 64
2018-10-15 20:19:47 GMT 50.742451 14.603882 36,000 246 437 64
2018-10-15 20:19:44 GMT 50.745392 14.613821 36,000 246 437 128
2018-10-15 20:19:41 GMT 50.747944 14.622345 36,000 245 437 192
2018-10-15 20:19:38 GMT 50.751900 14.635696 35,975 245 436 320
2018-10-15 20:19:35 GMT 50.753391 14.640808 35,950 245 436 64
2018-10-15 20:19:32 GMT 50.756332 14.650640 35,950 245 436 0
2018-10-15 20:19:29 GMT 50.758141 14.656754 35,950 245 436 0
2018-10-15 20:19:26 GMT 50.761585 14.668350 35,950 245 435 0
2018-10-15 20:19:23 GMT 50.763062 14.673280 35,950 245 434 0
2018-10-15 20:19:20 GMT 50.765587 14.681931 35,950 245 434 0
2018-10-15 20:19:17 GMT 50.768463 14.691690 35,950 246 434 0
2018-10-15 20:19:14 GMT 50.770798 14.699559 35,950 246 434 0
2018-10-15 20:19:11 GMT 50.773865 14.710025 35,950 246 434 0
2018-10-15 20:19:08 GMT 50.776016 14.717407 35,950 246 433 0
2018-10-15 20:19:05 GMT 50.778854 14.727173 35,950 246 433 0
2018-10-15 20:19:02 GMT 50.781509 14.736303 35,950 246 433 0
2018-10-15 20:18:59 GMT 50.783138 14.741821 35,950 246 433 0
2018-10-15 20:18:56 GMT 50.786163 14.752274 35,950 246 433 0
2018-10-15 20:18:53 GMT 50.788284 14.759612 35,950 246 433 0
2018-10-15 20:18:50 GMT 50.790985 14.768817 35,950 246 433 64
2018-10-15 20:18:47 GMT 50.793846 14.778519 35,950 246 433 0
2018-10-15 20:18:44 GMT 50.796497 14.787674 35,950 246 434 -128
2018-10-15 20:18:41 GMT 50.798676 14.795021 35,950 246 434 -128
2018-10-15 20:18:38 GMT 50.801853 14.806061 35,950 246 434 -128
2018-10-15 20:18:35 GMT 50.803299 14.810981 35,975 246 433 0
2018-10-15 20:18:32 GMT 50.810120 14.834215 35,975 246 433 -64
2018-10-15 20:18:28 GMT 50.810120 14.834215 35,975 246 433 0
2018-10-15 20:18:25 GMT 50.812977 14.843979 35,975 246 433 0
2018-10-15 20:18:22 GMT 50.817123 14.858044 35,975 246 434 0
2018-10-15 20:18:16 GMT 50.819588 14.866562 35,975 246 434 0
2018-10-15 20:18:12 GMT 50.825733 14.887466 35,975 246 434 -64
2018-10-15 20:18:09 GMT 50.825733 14.887466 35,975 246 434 -64
2018-10-15 20:18:06 GMT 50.828201 14.895976 35,975 246 434 -64
2018-10-15 20:18:03 GMT 50.831085 14.905930 35,975 246 434 -64
2018-10-15 20:18:00 GMT 50.833237 14.913272 35,975 246 434 -64
2018-10-15 20:17:57 GMT 50.835159 14.919953 35,975 246 435 -64
2018-10-15 20:17:54 GMT 50.838593 14.931756 35,975 246 435 -64
2018-10-15 20:17:51 GMT 50.840561 14.938437 35,975 246 436 -64
2018-10-15 20:17:48 GMT 50.845917 14.956995 36,000 246 436 -128
2018-10-15 20:17:45 GMT 50.845917 14.956995 36,000 246 437 -128
2018-10-15 20:17:42 GMT 50.848778 14.966965 36,000 246 437 -128
2018-10-15 20:17:39 GMT 50.851479 14.976273 36,000 246 443 -128
2018-10-15 20:17:35 GMT 50.854504 14.986725 36,025 246 437 -64
2018-10-15 20:17:32 GMT 50.856503 14.993515 36,025 246 437 0
2018-10-15 20:17:29 GMT 50.859856 15.005264 36,025 246 439 0
2018-10-15 20:17:26 GMT 50.862396 15.014005 36,025 246 438 0
2018-10-15 20:17:22 GMT 50.864929 15.022736 36,000 246 438 64
2018-10-15 20:17:19 GMT 50.867432 15.031375 36,000 246 438 0
2018-10-15 20:17:16 GMT 50.869957 15.040131 36,000 246 439 0
2018-10-15 20:17:13 GMT 50.873032 15.050735 36,000 246 440 64
2018-10-15 20:17:10 GMT 50.875900 15.060697 36,000 246 440 64
2018-10-15 20:17:07 GMT 50.876953 15.064409 36,000 246 440 64
2018-10-15 20:17:04 GMT 50.880066 15.075098 36,000 246 440 128
2018-10-15 20:17:01 GMT 50.882202 15.082550 36,000 246 444 0
2018-10-15 20:16:58 GMT 50.886017 15.095734 35,975 246 443 0
2018-10-15 20:16:55 GMT 50.890137 15.110061 36,000 246 443 -192
2018-10-15 20:16:49 GMT 50.893791 15.122681 36,000 246 443 -64
2018-10-15 20:16:45 GMT 50.897053 15.133972 36,025 246 444 64
2018-10-15 20:16:42 GMT 50.898869 15.140228 36,025 246 444 64
2018-10-15 20:16:39 GMT 50.901939 15.150986 36,000 246 444 64
2018-10-15 20:16:36 GMT 50.904144 15.158535 36,000 246 445 64
2018-10-15 20:16:30 GMT 50.911110 15.182495 36,000 246 446 128
2018-10-15 20:16:27 GMT 50.911110 15.182495 36,000 246 445 64
2018-10-15 20:16:23 GMT 50.914600 15.194473 36,000 246 445 64
2018-10-15 20:16:20 GMT 50.917511 15.204484 35,975 246 445 -64
2018-10-15 20:16:17 GMT 50.920513 15.214615 35,975 246 445 -64
2018-10-15 20:16:14 GMT 50.922729 15.222226 36,000 245 446 0
2018-10-15 20:16:11 GMT 50.925308 15.230942 36,000 245 445 0
2018-10-15 20:16:08 GMT 50.928680 15.242268 36,000 245 444 0
2018-10-15 20:16:05 GMT 50.930740 15.249172 36,000 245 444 0
2018-10-15 20:16:02 GMT 50.933361 15.258026 36,000 245 443 0
2018-10-15 20:15:59 GMT 50.939896 15.279755 36,000 245 441 -64
2018-10-15 20:15:55 GMT 50.939896 15.279755 36,000 245 441 -64
2018-10-15 20:15:52 GMT 50.941368 15.284805 36,000 245 439 0
2018-10-15 20:15:49 GMT 50.945480 15.298388 36,000 245 439 0
2018-10-15 20:15:43 GMT 50.949795 15.312653 36,000 245 439 -64
2018-10-15 20:15:40 GMT 50.952393 15.321400 36,000 245 439 -64
2018-10-15 20:15:37 GMT 50.955826 15.332831 36,025 251 447 64
2018-10-15 20:15:34 GMT 50.957756 15.339355 36,000 245 438 -64
2018-10-15 20:15:31 GMT 50.960175 15.347307 36,000 245 437 -64
2018-10-15 20:15:28 GMT 50.963470 15.358441 36,000 246 437 0
2018-10-15 20:15:22 GMT 50.967590 15.372620 36,025 247 438 -64
2018-10-15 20:15:19 GMT 50.970837 15.383835 36,000 246 438 -64
2018-10-15 20:15:15 GMT 50.974548 15.396893 36,025 247 438 0
2018-10-15 20:15:12 GMT 50.976467 15.403824 36,025 247 439 -64
2018-10-15 20:15:09 GMT 50.978851 15.412631 36,000 248 439 0
2018-10-15 20:15:06 GMT 50.981827 15.424062 36,025 250 441 0
2018-10-15 20:15:02 GMT 50.984253 15.433638 36,025 250 441 0
2018-10-15 20:14:59 GMT 50.986244 15.441971 36,025 250 441 0
2018-10-15 20:14:56 GMT 50.988480 15.451660 36,000 251 443 64
2018-10-15 20:14:52 GMT 50.991413 15.464706 36,000 251 445 -64
2018-10-15 20:14:49 GMT 50.993881 15.475769 36,000 251 446 -192
2018-10-15 20:14:46 GMT 50.995605 15.483671 36,025 251 447 -320
2018-10-15 20:14:43 GMT 50.997372 15.491714 36,025 251 448 -64
2018-10-15 20:14:40 GMT 50.999279 15.500259 36,025 251 448 0
2018-10-15 20:14:37 GMT 51.001923 15.512250 36,050 251 448 64
2018-10-15 20:14:34 GMT 51.005985 15.530548 36,050 251 448 64
2018-10-15 20:14:31 GMT 51.005985 15.530548 36,025 251 448 64
2018-10-15 20:14:28 GMT 51.007286 15.536499 36,025 251 448 64
2018-10-15 20:14:25 GMT 51.010033 15.549011 36,025 251 447 64
2018-10-15 20:14:22 GMT 51.011337 15.554962 36,025 251 447 64
2018-10-15 20:14:19 GMT 51.013386 15.564270 36,025 251 447 64
2018-10-15 20:14:16 GMT 51.015667 15.574799 36,025 251 447 64
2018-10-15 20:14:13 GMT 51.017120 15.581508 36,025 251 447 128
2018-10-15 20:14:10 GMT 51.019547 15.592643 36,025 251 447 128
2018-10-15 20:14:07 GMT 51.021580 15.601959 36,000 251 447 128
2018-10-15 20:14:04 GMT 51.023720 15.611877 36,000 251 447 128
2018-10-15 20:14:00 GMT 51.026745 15.625687 36,000 251 447 128
2018-10-15 20:13:55 GMT 51.029774 15.639572 36,000 251 447 64
2018-10-15 20:13:52 GMT 51.032043 15.650099 35,975 251 447 128
2018-10-15 20:13:49 GMT 51.033920 15.658784 35,975 251 447 64
2018-10-15 20:13:45 GMT 51.038910 15.681870 35,950 251 447 64
2018-10-15 20:13:42 GMT 51.038910 15.681870 35,975 251 447 64
2018-10-15 20:13:39 GMT 51.040649 15.689813 35,950 251 446 64
2018-10-15 20:13:36 GMT 51.044724 15.708371 35,950 251 446 0
2018-10-15 20:13:33 GMT 51.044724 15.708371 35,950 251 446 0
2018-10-15 20:13:30 GMT 51.046719 15.717468 35,950 251 445 0
2018-10-15 20:13:27 GMT 51.048431 15.725370 35,950 251 445 0
2018-10-15 20:13:24 GMT 51.050308 15.733981 35,950 251 444 0
2018-10-15 20:13:21 GMT 51.052460 15.743854 35,950 251 444 0
2018-10-15 20:13:18 GMT 51.054886 15.754914 35,950 251 443 0
2018-10-15 20:13:12 GMT 51.058365 15.770651 35,950 251 443 -64
2018-10-15 20:13:09 GMT 51.060917 15.782471 35,950 251 442 -64
2018-10-15 20:13:06 GMT 51.062393 15.789061 35,950 251 442 -64
2018-10-15 20:13:03 GMT 51.065140 15.801458 35,950 251 441 -64
2018-10-15 20:12:57 GMT 51.069294 15.820389 35,975 251 440 -64
2018-10-15 20:12:53 GMT 51.071156 15.828781 35,975 251 440 -64
2018-10-15 20:12:49 GMT 51.076324 15.852203 35,975 251 440 -64
2018-10-15 20:12:46 GMT 51.076324 15.852203 35,975 251 440 -64
2018-10-15 20:12:43 GMT 51.078465 15.861969 35,975 251 440 -64
2018-10-15 20:12:39 GMT 51.080750 15.872349 35,975 251 440 -64
2018-10-15 20:12:36 GMT 51.085682 15.895081 36,000 252 439 -64
2018-10-15 20:12:32 GMT 51.085682 15.895081 36,000 251 438 -64
2018-10-15 20:12:29 GMT 51.087387 15.902858 36,000 251 440 -64
2018-10-15 20:12:26 GMT 51.089405 15.912018 36,000 251 439 -64
2018-10-15 20:12:23 GMT 51.091778 15.923004 36,000 251 438 -64
2018-10-15 20:12:20 GMT 51.094025 15.933442 36,000 251 438 0
2018-10-15 20:12:16 GMT 51.095737 15.941238 36,000 252 438 0
2018-10-15 20:12:13 GMT 51.098648 15.954895 36,000 252 438 0
2018-10-15 20:12:10 GMT 51.101257 15.966921 36,000 252 438 -64
2018-10-15 20:12:07 GMT 51.102253 15.971680 36,000 252 439 64
2018-10-15 20:12:04 GMT 51.104507 15.982138 36,000 252 439 64
2018-10-15 20:12:00 GMT 51.106842 15.993124 36,000 252 439 64
2018-10-15 20:11:57 GMT 51.108398 16.000324 36,000 252 439 0
2018-10-15 20:11:54 GMT 51.110027 16.008148 36,000 252 439 0
2018-10-15 20:11:50 GMT 51.113251 16.023113 36,000 252 438 -64
2018-10-15 20:11:47 GMT 51.115311 16.032913 36,000 252 438 -64
2018-10-15 20:11:44 GMT 51.117645 16.043825 36,000 252 437 64
2018-10-15 20:11:40 GMT 51.119431 16.052362 36,000 252 438 64
2018-10-15 20:11:37 GMT 51.121994 16.064386 36,000 252 437 64
2018-10-15 20:11:34 GMT 51.123482 16.071243 36,000 252 437 64
2018-10-15 20:11:30 GMT 51.125809 16.082153 35,975 252 437 64
2018-10-15 20:11:27 GMT 51.127762 16.091259 35,975 252 437 0
2018-10-15 20:11:23 GMT 51.130692 16.104843 35,975 251 438 -64
2018-10-15 20:11:20 GMT 51.132202 16.111897 35,975 251 438 -64
2018-10-15 20:11:17 GMT 51.134628 16.122955 35,975 251 438 0
2018-10-15 20:11:14 GMT 51.136841 16.133270 36,000 251 438 0
2018-10-15 20:11:10 GMT 51.139114 16.143742 36,000 251 438 0
2018-10-15 20:11:07 GMT 51.141357 16.154099 36,000 252 437 0
2018-10-15 20:11:04 GMT 51.143326 16.163191 36,000 252 437 0
2018-10-15 20:11:01 GMT 51.145546 16.173477 36,000 252 437 0
2018-10-15 20:10:58 GMT 51.146942 16.179966 36,000 252 437 0
2018-10-15 20:10:55 GMT 51.149048 16.189692 36,000 252 437 0
2018-10-15 20:10:52 GMT 51.150879 16.198227 36,000 251 438 0
2018-10-15 20:10:49 GMT 51.155464 16.219559 36,000 251 438 0
2018-10-15 20:10:45 GMT 51.155464 16.219559 36,000 251 438 0
2018-10-15 20:10:42 GMT 51.157047 16.226730 36,000 252 437 0
2018-10-15 20:10:39 GMT 51.159420 16.237717 36,000 252 437 -64
2018-10-15 20:10:34 GMT 51.162632 16.252670 36,000 252 437 0
2018-10-15 20:10:30 GMT 51.166077 16.268822 36,000 252 437 64
2018-10-15 20:10:27 GMT 51.169521 16.284866 35,975 252 437 64
2018-10-15 20:10:24 GMT 51.169521 16.284866 36,000 252 437 64
2018-10-15 20:10:20 GMT 51.171341 16.293541 35,975 252 437 64
2018-10-15 20:10:17 GMT 51.173813 16.305197 35,975 252 437 0
2018-10-15 20:10:14 GMT 51.177933 16.324718 35,975 252 437 -64
2018-10-15 20:10:11 GMT 51.177933 16.324718 35,975 252 437 -64
2018-10-15 20:10:08 GMT 51.179668 16.333160 35,975 252 438 -64
2018-10-15 20:10:04 GMT 51.182281 16.345505 35,975 252 438 -64
2018-10-15 20:10:00 GMT 51.184570 16.356638 36,000 252 437 -64
2018-10-15 20:09:57 GMT 51.187023 16.368332 36,000 252 437 -64
2018-10-15 20:09:53 GMT 51.191528 16.389820 36,000 252 437 -64
2018-10-15 20:09:50 GMT 51.191528 16.389820 36,000 252 437 -64
2018-10-15 20:09:47 GMT 51.193314 16.398209 36,000 252 436 -64
2018-10-15 20:09:42 GMT 51.196430 16.413193 36,000 252 436 0
2018-10-15 20:09:39 GMT 51.198059 16.420975 36,000 252 436 0
2018-10-15 20:09:36 GMT 51.200226 16.431316 36,000 252 436 0
2018-10-15 20:09:33 GMT 51.202698 16.442970 36,000 252 435 0
2018-10-15 20:09:30 GMT 51.203922 16.448822 36,000 252 436 0
2018-10-15 20:09:27 GMT 51.205856 16.457891 36,000 252 436 0
2018-10-15 20:09:24 GMT 51.207787 16.467056 36,000 252 436 -64
2018-10-15 20:09:21 GMT 51.209557 16.475449 36,000 252 437 -128
2018-10-15 20:09:18 GMT 51.211212 16.483204 36,025 252 437 -64
2018-10-15 20:09:12 GMT 51.215748 16.504669 36,025 252 437 -64
2018-10-15 20:09:09 GMT 51.217392 16.512526 36,025 252 437 -64
2018-10-15 20:09:06 GMT 51.218903 16.519726 36,025 252 437 -64
2018-10-15 20:09:02 GMT 51.221382 16.531448 36,025 252 438 0
2018-10-15 20:08:59 GMT 51.224266 16.545105 36,050 252 438 0
2018-10-15 20:08:56 GMT 51.228363 16.564713 36,050 252 439 0
2018-10-15 20:08:52 GMT 51.228363 16.564713 36,025 252 440 64
2018-10-15 20:08:48 GMT 51.230804 16.576513 36,050 252 440 64
2018-10-15 20:08:45 GMT 51.232590 16.584976 36,025 252 440 64
2018-10-15 20:08:42 GMT 51.234924 16.596186 36,025 252 441 64
2018-10-15 20:08:39 GMT 51.236710 16.604647 36,025 252 440 64
2018-10-15 20:08:36 GMT 51.238495 16.613184 36,025 252 441 128
2018-10-15 20:08:32 GMT 51.241398 16.627045 36,000 252 441 128
2018-10-15 20:08:29 GMT 51.243164 16.635603 36,000 252 442 64
2018-10-15 20:08:26 GMT 51.244843 16.643448 36,000 252 442 64
2018-10-15 20:08:23 GMT 51.247009 16.654011 36,000 252 443 0
2018-10-15 20:08:20 GMT 51.248383 16.660538 36,000 252 443 0
2018-10-15 20:08:17 GMT 51.250427 16.670456 36,000 252 443 64
2018-10-15 20:08:14 GMT 51.254574 16.690292 36,000 252 442 0
2018-10-15 20:08:11 GMT 51.254574 16.690292 36,000 252 442 64
2018-10-15 20:08:08 GMT 51.256622 16.700134 36,000 252 443 -64
2018-10-15 20:08:04 GMT 51.259506 16.714020 36,000 252 442 64
2018-10-15 20:08:00 GMT 51.261833 16.725235 36,000 252 441 0
2018-10-15 20:07:57 GMT 51.263325 16.732559 36,000 252 442 0
2018-10-15 20:07:54 GMT 51.265606 16.743698 36,000 252 443 -64
2018-10-15 20:07:51 GMT 51.269703 16.763458 36,000 252 443 -64
2018-10-15 20:07:47 GMT 51.269703 16.763458 36,000 252 443 -64
2018-10-15 20:07:44 GMT 51.273972 16.784065 36,000 252 442 -64
2018-10-15 20:07:41 GMT 51.273972 16.784065 36,000 252 442 -64
2018-10-15 20:07:37 GMT 51.276672 16.797131 36,000 252 442 -64
2018-10-15 20:07:34 GMT 51.278320 16.805075 36,000 252 442 0
2018-10-15 20:07:31 GMT 51.280746 16.816952 36,000 252 441 -64
2018-10-15 20:07:27 GMT 51.283081 16.828159 36,000 252 441 -64
2018-10-15 20:07:23 GMT 51.285297 16.838684 36,000 252 441 0
2018-10-15 20:07:20 GMT 51.287201 16.847904 36,000 252 441 -64
2018-10-15 20:07:17 GMT 51.288986 16.856441 36,000 252 441 -64
2018-10-15 20:07:13 GMT 51.292786 16.874702 36,025 252 441 -64
2018-10-15 20:07:10 GMT 51.293816 16.879501 36,025 252 441 -64
2018-10-15 20:07:07 GMT 51.295864 16.889420 36,025 252 441 -64
2018-10-15 20:07:04 GMT 51.298191 16.900635 36,025 252 441 -64
2018-10-15 20:07:01 GMT 51.299835 16.908480 36,025 252 441 -64
2018-10-15 20:06:58 GMT 51.303131 16.924290 36,025 252 441 -64
2018-10-15 20:06:52 GMT 51.305740 16.936762 36,025 252 441 -64
2018-10-15 20:06:48 GMT 51.307644 16.946030 36,025 252 441 0
2018-10-15 20:06:45 GMT 51.312252 16.968384 36,025 252 442 64
2018-10-15 20:06:42 GMT 51.312252 16.968384 36,025 252 441 64
2018-10-15 20:06:38 GMT 51.316406 16.988798 36,025 252 441 64
2018-10-15 20:06:32 GMT 51.317917 16.996147 36,025 252 442 64
2018-10-15 20:06:29 GMT 51.320351 17.007980 36,025 252 441 64
2018-10-15 20:06:24 GMT 51.325333 17.032372 36,000 252 442 64
2018-10-15 20:06:21 GMT 51.325333 17.032372 36,000 252 442 64
2018-10-15 20:06:18 GMT 51.327347 17.042318 36,000 252 442 0
2018-10-15 20:06:15 GMT 51.329132 17.051004 36,000 252 442 64
2018-10-15 20:06:12 GMT 51.330315 17.056961 36,000 252 442 0
2018-10-15 20:06:09 GMT 51.332500 17.067490 36,000 252 442 0
2018-10-15 20:06:06 GMT 51.335060 17.080078 36,000 252 442 0
2018-10-15 20:06:02 GMT 51.336960 17.089382 36,000 252 442 0
2018-10-15 20:05:58 GMT 51.339249 17.100664 36,000 252 441 0
2018-10-15 20:05:55 GMT 51.341534 17.111816 36,000 253 441 0
2018-10-15 20:05:52 GMT 51.343277 17.120485 36,000 253 442 0
2018-10-15 20:05:48 GMT 51.347946 17.143572 36,000 253 442 0
2018-10-15 20:05:45 GMT 51.347946 17.143572 36,000 253 442 0
2018-10-15 20:05:42 GMT 51.349586 17.151566 36,000 253 442 -64
2018-10-15 20:05:39 GMT 51.351868 17.162781 36,000 253 442 0
2018-10-15 20:05:35 GMT 51.353714 17.172075 36,000 253 441 0
2018-10-15 20:05:32 GMT 51.355869 17.182617 36,000 253 441 64
2018-10-15 20:05:28 GMT 51.358150 17.193909 36,000 253 441 64
2018-10-15 20:05:25 GMT 51.359875 17.202454 36,000 253 440 64
2018-10-15 20:05:22 GMT 51.362156 17.213669 36,000 253 440 64
2018-10-15 20:05:19 GMT 51.364388 17.224808 36,000 253 440 0
2018-10-15 20:05:16 GMT 51.366257 17.234060 36,000 253 440 0
2018-10-15 20:05:13 GMT 51.367767 17.241409 36,000 253 440 -64
2018-10-15 20:05:09 GMT 51.370285 17.253880 36,000 252 439 0
2018-10-15 20:05:06 GMT 51.372723 17.265701 36,000 253 440 0
2018-10-15 20:05:03 GMT 51.374588 17.275036 36,000 252 439 0
2018-10-15 20:05:00 GMT 51.375656 17.280273 36,000 252 438 0
2018-10-15 20:04:57 GMT 51.377792 17.290773 36,000 252 438 0
2018-10-15 20:04:53 GMT 51.380219 17.302628 36,000 253 438 64
2018-10-15 20:04:50 GMT 51.382324 17.313044 36,000 253 436 0
2018-10-15 20:04:46 GMT 51.384453 17.323532 36,000 253 437 0
2018-10-15 20:04:43 GMT 51.386177 17.332077 36,000 253 437 0
2018-10-15 20:04:39 GMT 51.389622 17.349014 36,000 253 437 0
2018-10-15 20:04:36 GMT 51.390411 17.352982 36,000 253 437 0
2018-10-15 20:04:33 GMT 51.392761 17.364708 36,000 253 436 0
2018-10-15 20:04:29 GMT 51.395535 17.378616 36,000 253 434 0
2018-10-15 20:04:26 GMT 51.396698 17.384304 36,000 253 434 0
2018-10-15 20:04:23 GMT 51.398838 17.394867 36,000 253 433 0
2018-10-15 20:04:20 GMT 51.400909 17.405165 36,000 253 432 0
2018-10-15 20:04:17 GMT 51.401958 17.410431 36,000 253 429 64
2018-10-15 20:04:14 GMT 51.404022 17.420753 36,000 253 431 0
2018-10-15 20:04:11 GMT 51.406101 17.431107 36,000 253 430 64
2018-10-15 20:04:08 GMT 51.408463 17.442726 36,000 253 430 64
2018-10-15 20:04:05 GMT 51.410011 17.450485 36,000 253 428 64
2018-10-15 20:04:02 GMT 51.411301 17.456978 36,000 253 428 0
2018-10-15 20:03:59 GMT 51.416428 17.482588 36,000 253 427 0
2018-10-15 20:03:55 GMT 51.416428 17.482588 36,000 253 426 0
2018-10-15 20:03:52 GMT 51.418251 17.491608 36,000 253 426 0
2018-10-15 20:03:49 GMT 51.419136 17.496033 36,000 253 424 0
2018-10-15 20:03:46 GMT 51.421555 17.508087 36,000 253 422 0
2018-10-15 20:03:40 GMT 51.425491 17.527870 36,000 253 416 128
2018-10-15 20:03:36 GMT 51.427280 17.536621 36,000 253 414 320
2018-10-15 20:03:33 GMT 51.429291 17.546799 36,000 253 419 64
2018-10-15 20:03:29 GMT 51.431053 17.555542 36,000 253 419 64
2018-10-15 20:03:26 GMT 51.433704 17.568817 36,000 253 417 64
2018-10-15 20:03:22 GMT 51.435471 17.577604 36,000 253 417 64
2018-10-15 20:03:18 GMT 51.438313 17.592087 36,000 253 416 128
2018-10-15 20:03:12 GMT 51.441433 17.607651 35,975 253 415 256
2018-10-15 20:03:09 GMT 51.442829 17.614517 35,950 253 414 384
2018-10-15 20:03:05 GMT 51.447392 17.637482 35,900 253 414 640
2018-10-15 20:03:02 GMT 51.447392 17.637482 35,900 253 414 640
2018-10-15 20:02:59 GMT 51.448883 17.645008 35,875 253 414 704
2018-10-15 20:02:55 GMT 51.451630 17.658615 35,825 253 414 704
2018-10-15 20:02:51 GMT 51.454002 17.670517 35,775 253 414 640
2018-10-15 20:02:46 GMT 51.456097 17.681046 35,750 253 414 640
2018-10-15 20:02:43 GMT 51.458797 17.694855 35,700 253 415 704
2018-10-15 20:02:40 GMT 51.460148 17.701492 35,675 253 415 768
2018-10-15 20:02:37 GMT 51.461517 17.708551 35,650 253 415 768
2018-10-15 20:02:34 GMT 51.463852 17.720352 35,575 253 416 960
2018-10-15 20:02:31 GMT 51.465595 17.729187 35,550 253 416 960
2018-10-15 20:02:28 GMT 51.467178 17.737274 35,475 253 417 960
2018-10-15 20:02:23 GMT 51.469875 17.751083 35,400 253 417 960
2018-10-15 20:02:20 GMT 51.471359 17.758657 35,350 253 417 960
2018-10-15 20:02:16 GMT 51.476028 17.782412 35,225 253 418 960
2018-10-15 20:02:13 GMT 51.476028 17.782412 35,225 253 418 960
2018-10-15 20:02:10 GMT 51.477402 17.789389 35,200 253 418 960
2018-10-15 20:02:07 GMT 51.481979 17.812653 35,100 253 419 1024
2018-10-15 20:02:02 GMT 51.481979 17.812653 35,075 253 419 960
2018-10-15 20:01:59 GMT 51.483719 17.821531 35,025 253 419 1024
2018-10-15 20:01:53 GMT 51.488964 17.848053 34,875 253 421 1024
2018-10-15 20:01:50 GMT 51.488964 17.848053 34,875 253 420 960
2018-10-15 20:01:47 GMT 51.490173 17.854342 34,825 253 420 960
2018-10-15 20:01:44 GMT 51.492325 17.865179 34,800 253 421 960
2018-10-15 20:01:41 GMT 51.494549 17.876587 34,550 253 422 960
2018-10-15 20:01:38 GMT 51.495804 17.882847 34,600 253 422 960
2018-10-15 20:01:34 GMT 51.497807 17.893066 34,625 253 422 960
2018-10-15 20:01:31 GMT 51.502045 17.914658 34,525 253 422 960
2018-10-15 20:01:28 GMT 51.502045 17.914658 34,275 253 423 960
2018-10-15 20:01:23 GMT 51.504410 17.926867 34,450 253 423 960
2018-10-15 20:01:19 GMT 51.506886 17.939529 34,350 253 423 960
2018-10-15 20:01:16 GMT 51.508392 17.947206 34,325 253 423 960
2018-10-15 20:01:13 GMT 51.510654 17.958679 34,275 253 424 960
2018-10-15 20:01:09 GMT 51.512985 17.970734 34,225 253 424 960
2018-10-15 20:01:06 GMT 51.514149 17.976532 33,975 253 424 896
2018-10-15 20:01:02 GMT 51.517365 17.993156 34,100 253 424 1216
2018-10-15 20:00:58 GMT 51.519653 18.004662 34,025 253 425 1088
2018-10-15 20:00:54 GMT 51.521988 18.016836 33,950 253 425 1024
2018-10-15 20:00:51 GMT 51.524017 18.027115 33,875 253 426 1024
2018-10-15 20:00:48 GMT 51.525600 18.035202 33,850 253 426 1088
2018-10-15 20:00:45 GMT 51.526932 18.041925 33,825 253 426 1088
2018-10-15 20:00:42 GMT 51.531048 18.063049 33,700 253 427 1088
2018-10-15 20:00:38 GMT 51.531048 18.063049 33,650 253 427 1088
2018-10-15 20:00:35 GMT 51.533295 18.074661 33,600 253 427 1088
2018-10-15 20:00:32 GMT 51.534439 18.080601 33,325 253 429 1088
2018-10-15 20:00:28 GMT 51.537189 18.094711 33,475 253 428 1216
2018-10-15 20:00:25 GMT 51.538696 18.102499 33,450 253 428 1280
2018-10-15 20:00:22 GMT 51.540684 18.112793 33,350 253 429 1216
2018-10-15 20:00:17 GMT 51.543823 18.129074 33,250 253 429 1024
2018-10-15 20:00:13 GMT 51.545975 18.139988 33,175 253 430 1088
2018-10-15 20:00:10 GMT 51.547440 18.147781 33,150 253 430 1152
2018-10-15 20:00:07 GMT 51.548969 18.155594 33,050 253 430 1152
2018-10-15 20:00:04 GMT 51.551109 18.166656 33,025 253 430 1152
2018-10-15 20:00:01 GMT 51.553207 18.177696 32,950 253 431 896
2018-10-15 19:59:58 GMT 51.555206 18.188095 32,900 253 431 896
2018-10-15 19:59:55 GMT 51.556698 18.195877 32,825 253 431 960
2018-10-15 19:59:51 GMT 51.558559 18.205643 32,700 253 431 960
2018-10-15 19:59:46 GMT 51.563679 18.232269 32,675 253 430 1280
2018-10-15 19:59:43 GMT 51.563679 18.232269 32,375 253 430 1536
2018-10-15 19:59:40 GMT 51.564564 18.236847 32,425 253 432 1600
2018-10-15 19:59:36 GMT 51.567169 18.250580 32,550 253 432 1600
2018-10-15 19:59:33 GMT 51.568752 18.259048 32,425 253 433 1600
2018-10-15 19:59:30 GMT 51.570618 18.268814 32,350 253 433 576
2018-10-15 19:59:26 GMT 51.573547 18.283920 32,250 253 434 832
2018-10-15 19:59:23 GMT 51.575272 18.293053 32,200 253 433 512
2018-10-15 19:59:20 GMT 51.576805 18.300858 32,175 253 433 512
2018-10-15 19:59:17 GMT 51.578064 18.307528 32,125 253 431 1088
2018-10-15 19:59:14 GMT 51.580578 18.320465 32,125 253 432 768
2018-10-15 19:59:10 GMT 51.582672 18.331604 32,075 253 432 768
2018-10-15 19:59:07 GMT 51.583923 18.338112 32,025 253 431 960
2018-10-15 19:59:03 GMT 51.587128 18.354889 32,000 253 431 1152
2018-10-15 19:59:00 GMT 51.588409 18.361568 31,925 253 432 1408
2018-10-15 19:58:57 GMT 51.590820 18.374100 31,800 253 432 1408
2018-10-15 19:58:53 GMT 51.592541 18.383102 31,700 253 433 1344
2018-10-15 19:58:50 GMT 51.595055 18.396301 31,650 253 433 1344
2018-10-15 19:58:46 GMT 51.596558 18.404104 31,600 253 433 1408
2018-10-15 19:58:43 GMT 51.598068 18.411972 31,525 253 433 1344
2018-10-15 19:58:40 GMT 51.600643 18.425522 31,400 253 435 1216
2018-10-15 19:58:37 GMT 51.602463 18.435059 31,400 253 435 1216
2018-10-15 19:58:32 GMT 51.604843 18.447454 31,275 253 435 960
2018-10-15 19:58:29 GMT 51.606834 18.457947 31,225 253 434 768
2018-10-15 19:58:26 GMT 51.608871 18.468536 31,200 253 434 640
2018-10-15 19:58:23 GMT 51.609741 18.473141 31,175 253 434 640
2018-10-15 19:58:20 GMT 51.612396 18.486872 31,125 253 433 640
2018-10-15 19:58:16 GMT 51.615772 18.504562 31,075 253 432 704
2018-10-15 19:58:13 GMT 51.615772 18.504562 31,075 253 432 704
2018-10-15 19:58:10 GMT 51.618256 18.517679 31,000 253 430 832
2018-10-15 19:58:07 GMT 51.619495 18.524170 30,950 254 430 1280
2018-10-15 19:58:03 GMT 51.624298 18.549524 30,875 254 430 1152
2018-10-15 19:57:59 GMT 51.624298 18.549524 30,875 254 430 1152
2018-10-15 19:57:56 GMT 51.626060 18.558731 30,825 254 430 1280
2018-10-15 19:57:53 GMT 51.627411 18.565826 30,725 254 430 1536
2018-10-15 19:57:50 GMT 51.629227 18.575592 30,650 254 430 1600
2018-10-15 19:57:47 GMT 51.631599 18.588028 30,550 254 431 1664
2018-10-15 19:57:42 GMT 51.633785 18.599854 30,450 254 432 1408
2018-10-15 19:57:38 GMT 51.635883 18.610916 30,350 254 432 1088
2018-10-15 19:57:35 GMT 51.638626 18.625389 30,275 254 432 832
2018-10-15 19:57:30 GMT 51.641094 18.638382 30,250 254 431 1600
2018-10-15 19:57:27 GMT 51.642975 18.648327 30,150 254 431 1280
2018-10-15 19:57:20 GMT 51.648453 18.677673 30,000 254 431 1088
2018-10-15 19:57:14 GMT 51.650803 18.690121 29,925 254 431 1088
2018-10-15 19:57:09 GMT 51.653091 18.702517 29,675 254 431 1536
2018-10-15 19:57:06 GMT 51.656410 18.720169 29,750 254 431 1536
2018-10-15 19:57:03 GMT 51.656410 18.720169 29,700 254 431 1536
2018-10-15 19:56:59 GMT 51.659317 18.735846 29,575 254 431 1728
2018-10-15 19:56:56 GMT 51.660416 18.741711 29,525 254 432 1728
2018-10-15 19:56:53 GMT 51.661903 18.749542 29,425 254 433 1216
2018-10-15 19:56:50 GMT 51.664467 18.763351 29,325 254 433 1216
2018-10-15 19:56:46 GMT 51.666046 18.771820 29,250 254 433 1024
2018-10-15 19:56:43 GMT 51.668610 18.785629 29,200 254 432 960
2018-10-15 19:56:37 GMT 51.670990 18.798201 29,125 254 432 960
2018-10-15 19:56:34 GMT 51.673553 18.811934 29,100 254 431 960
2018-10-15 19:56:31 GMT 51.674377 18.816538 29,050 254 431 1088
2018-10-15 19:56:26 GMT 51.677963 18.835526 28,950 254 431 960
2018-10-15 19:56:22 GMT 51.679642 18.844746 28,825 254 429 832
2018-10-15 19:56:16 GMT 51.685364 18.875328 28,775 254 429 768
2018-10-15 19:56:13 GMT 51.685364 18.875328 28,725 254 426 768
2018-10-15 19:56:07 GMT 51.688751 18.893589 28,675 254 426 832
2018-10-15 19:56:04 GMT 51.689941 18.900047 28,650 254 426 832
2018-10-15 19:56:01 GMT 51.692322 18.913038 28,625 254 425 832
2018-10-15 19:55:54 GMT 51.696026 18.933029 28,500 254 423 832
2018-10-15 19:55:50 GMT 51.698181 18.944588 28,475 254 423 832
2018-10-15 19:55:45 GMT 51.701294 18.961288 28,350 254 422 1216
2018-10-15 19:55:42 GMT 51.702824 18.969650 28,300 254 421 1216
2018-10-15 19:55:39 GMT 51.703896 18.975372 28,275 254 421 1216
2018-10-15 19:55:34 GMT 51.707432 18.994598 28,150 254 421 1216
2018-10-15 19:55:31 GMT 51.709076 19.003527 28,075 254 421 1216
2018-10-15 19:55:28 GMT 51.710175 19.009392 28,050 254 420 1216
2018-10-15 19:55:25 GMT 51.712189 19.020155 27,900 254 420 1280
2018-10-15 19:55:21 GMT 51.714787 19.034195 27,900 254 420 1280
2018-10-15 19:55:18 GMT 51.715813 19.039917 27,825 254 420 1152
2018-10-15 19:55:13 GMT 51.718643 19.055267 27,750 254 419 896
2018-10-15 19:55:10 GMT 51.720657 19.066105 27,675 254 418 896
2018-10-15 19:55:04 GMT 51.724377 19.086227 27,050 254 415 1472
2018-10-15 19:55:00 GMT 51.725353 19.091492 27,550 254 416 1152
2018-10-15 19:54:57 GMT 51.727203 19.101662 27,500 254 416 1152
2018-10-15 19:54:52 GMT 51.730728 19.120665 27,325 254 415 1280
2018-10-15 19:54:49 GMT 51.732193 19.128830 27,300 254 415 1344
2018-10-15 19:54:43 GMT 51.735443 19.146423 27,150 254 415 1536
2018-10-15 19:54:40 GMT 51.736542 19.152212 27,100 254 415 1536
2018-10-15 19:54:36 GMT 51.738693 19.164165 27,000 254 415 1408
2018-10-15 19:54:29 GMT 51.742172 19.183094 26,875 254 414 1088
2018-10-15 19:54:26 GMT 51.744720 19.196930 26,775 254 412 896
2018-10-15 19:54:22 GMT 51.746567 19.206923 26,725 254 411 960
2018-10-15 19:54:18 GMT 51.748772 19.218903 26,650 254 410 1088
2018-10-15 19:54:14 GMT 51.750366 19.227707 26,600 254 410 1280
2018-10-15 19:54:11 GMT 51.752171 19.237671 26,350 254 409 1536
2018-10-15 19:54:07 GMT 51.754669 19.251387 26,425 254 409 1472
2018-10-15 19:54:04 GMT 51.755905 19.258291 26,375 254 409 1472
2018-10-15 19:54:01 GMT 51.757710 19.268188 26,300 254 409 1536
2018-10-15 19:53:58 GMT 51.759521 19.278185 26,200 254 409 1536
2018-10-15 19:53:53 GMT 51.761902 19.291250 26,100 254 409 1536
2018-10-15 19:53:50 GMT 51.763367 19.299416 26,025 254 409 1536
2018-10-15 19:53:46 GMT 51.765884 19.313148 25,900 254 409 1472
2018-10-15 19:53:43 GMT 51.767212 19.320572 25,850 254 408 1408
2018-10-15 19:53:38 GMT 51.770187 19.336828 25,700 254 408 1408
2018-10-15 19:53:35 GMT 51.771534 19.344330 25,650 254 408 1408
2018-10-15 19:53:32 GMT 51.772560 19.349899 25,600 254 408 1408
2018-10-15 19:53:29 GMT 51.774353 19.359840 25,525 254 407 1344
2018-10-15 19:53:26 GMT 51.775818 19.367828 25,475 254 407 1280
2018-10-15 19:53:22 GMT 51.778152 19.380922 25,375 254 407 1280
2018-10-15 19:53:19 GMT 51.780304 19.392725 25,275 254 406 1216
2018-10-15 19:53:15 GMT 51.781769 19.400742 25,225 254 405 1216
2018-10-15 19:53:12 GMT 51.784012 19.413147 25,150 254 405 1216
2018-10-15 19:53:08 GMT 51.785686 19.422455 25,075 254 404 1280
2018-10-15 19:53:04 GMT 51.788109 19.435959 24,975 254 403 1344
2018-10-15 19:53:01 GMT 51.789230 19.442163 24,925 254 403 1408
2018-10-15 19:52:58 GMT 51.790993 19.451981 24,725 254 400 1152
2018-10-15 19:52:53 GMT 51.793671 19.466734 24,750 254 401 1216
2018-10-15 19:52:50 GMT 51.794952 19.474106 24,650 254 400 1152
2018-10-15 19:52:47 GMT 51.796509 19.482546 24,625 254 400 1216
2018-10-15 19:52:44 GMT 51.798023 19.491119 24,575 254 399 1216
2018-10-15 19:52:40 GMT 51.800583 19.505234 24,425 254 398 1408
2018-10-15 19:52:32 GMT 51.804588 19.527664 24,300 254 397 1408
2018-10-15 19:52:29 GMT 51.805710 19.533766 24,175 254 397 1408
2018-10-15 19:52:21 GMT 51.810013 19.557964 23,975 254 396 1472
2018-10-15 19:52:18 GMT 51.811104 19.563980 24,000 254 395 1536
2018-10-15 19:52:11 GMT 51.815094 19.586323 23,750 254 395 1664
2018-10-15 19:52:08 GMT 51.816364 19.593582 23,650 254 395 1728
2018-10-15 19:52:02 GMT 51.819077 19.608740 23,575 254 395 1728
2018-10-15 19:51:59 GMT 51.821320 19.621433 23,450 254 395 1664
2018-10-15 19:51:52 GMT 51.825211 19.643480 23,250 254 394 1792
2018-10-15 19:51:49 GMT 51.826420 19.650345 23,175 254 394 1728
2018-10-15 19:51:42 GMT 51.829632 19.668503 23,000 254 394 1408
2018-10-15 19:51:39 GMT 51.831116 19.676811 22,900 254 393 1408
2018-10-15 19:51:36 GMT 51.833038 19.687500 22,900 254 393 1408
2018-10-15 19:51:33 GMT 51.833588 19.690704 22,800 254 392 1472
2018-10-15 19:51:29 GMT 51.836384 19.706268 22,675 254 391 1472
2018-10-15 19:51:26 GMT 51.837891 19.714668 22,600 254 390 1408
2018-10-15 19:51:22 GMT 51.839172 19.721794 22,550 254 390 1408
2018-10-15 19:51:19 GMT 51.841179 19.733200 22,450 254 389 1472
2018-10-15 19:51:16 GMT 51.842667 19.741440 22,375 255 389 1536
2018-10-15 19:51:13 GMT 51.843597 19.746780 22,325 254 387 1600
2018-10-15 19:51:10 GMT 51.845413 19.756927 22,250 254 388 1664
2018-10-15 19:51:06 GMT 51.847092 19.766335 22,150 254 387 1600
2018-10-15 19:51:03 GMT 51.848812 19.775925 22,100 254 387 1600
2018-10-15 19:50:57 GMT 51.851852 19.792984 21,900 254 386 1408
2018-10-15 19:50:54 GMT 51.853226 19.800703 21,850 255 384 1408
2018-10-15 19:50:50 GMT 51.855423 19.813080 21,725 254 383 1408
2018-10-15 19:50:44 GMT 51.858444 19.830099 21,600 255 381 1536
2018-10-15 19:50:38 GMT 51.860683 19.842911 21,475 254 380 1664
2018-10-15 19:50:35 GMT 51.862335 19.852221 21,375 255 380 1728
2018-10-15 19:50:32 GMT 51.863567 19.859161 21,350 255 379 1792
2018-10-15 19:50:29 GMT 51.865631 19.870853 21,200 255 379 1856
2018-10-15 19:50:25 GMT 51.867760 19.883041 21,050 255 378 1856
2018-10-15 19:50:22 GMT 51.869110 19.890524 20,975 255 378 1792
2018-10-15 19:50:16 GMT 51.872089 19.907379 20,800 255 377 1792
2018-10-15 19:50:12 GMT 51.873901 19.917755 20,600 255 376 1984
2018-10-15 19:50:08 GMT 51.875519 19.926971 20,575 255 376 2048
2018-10-15 19:50:04 GMT 51.877670 19.939072 20,475 255 376 2176
2018-10-15 19:50:01 GMT 51.879070 19.947205 20,325 255 376 2368
2018-10-15 19:49:58 GMT 51.882095 19.964447 20,200 255 376 2496
2018-10-15 19:49:55 GMT 51.882095 19.964447 20,075 255 377 2496
2018-10-15 19:49:50 GMT 51.883942 19.974852 19,925 255 377 2496
2018-10-15 19:49:47 GMT 51.885635 19.984650 19,775 255 378 2368
2018-10-15 19:49:42 GMT 51.887650 19.996305 19,650 255 378 2304
2018-10-15 19:49:38 GMT 51.889572 20.007292 19,450 255 378 2304
2018-10-15 19:49:35 GMT 51.890800 20.014191 19,350 255 378 2304
2018-10-15 19:49:32 GMT 51.894333 20.034561 19,150 255 378 2240
2018-10-15 19:49:28 GMT 51.894333 20.034561 19,100 255 378 2240
2018-10-15 19:49:21 GMT 51.899181 20.062449 18,625 255 378 2112
2018-10-15 19:49:18 GMT 51.900558 20.070572 18,650 255 378 2240
2018-10-15 19:49:15 GMT 51.900558 20.070572 18,625 255 378 2240
2018-10-15 19:49:12 GMT 51.901974 20.078613 18,525 255 377 2496
2018-10-15 19:49:08 GMT 51.905560 20.099487 18,225 255 378 2624
2018-10-15 19:49:05 GMT 51.905560 20.099487 18,200 255 378 2560
2018-10-15 19:49:01 GMT 51.907188 20.108826 18,050 255 378 2368
2018-10-15 19:48:57 GMT 51.908752 20.118103 17,925 255 378 2112
2018-10-15 19:48:54 GMT 51.910400 20.127344 17,800 255 377 1856
2018-10-15 19:48:51 GMT 51.912308 20.138411 17,675 255 376 1664
2018-10-15 19:48:46 GMT 51.913799 20.147041 17,600 255 375 1600
2018-10-15 19:48:43 GMT 51.915207 20.155029 17,550 255 374 1600
2018-10-15 19:48:39 GMT 51.917770 20.169754 17,400 255 371 1728
2018-10-15 19:48:36 GMT 51.918777 20.175629 17,250 255 369 1984
2018-10-15 19:48:33 GMT 51.920177 20.183611 17,250 255 369 1984
2018-10-15 19:48:30 GMT 51.921753 20.192642 17,125 255 368 2240
2018-10-15 19:48:25 GMT 51.923805 20.204563 16,875 255 367 2176
2018-10-15 19:48:22 GMT 51.924973 20.211311 16,875 255 367 2176
2018-10-15 19:48:18 GMT 51.927299 20.224888 16,675 255 364 1664
2018-10-15 19:48:15 GMT 51.928482 20.231628 16,575 255 365 1792
2018-10-15 19:48:12 GMT 51.930233 20.241760 16,500 255 364 1664
2018-10-15 19:48:06 GMT 51.932232 20.253452 16,400 255 362 1664
2018-10-15 19:48:03 GMT 51.934143 20.264597 16,250 255 360 2048
2018-10-15 19:48:00 GMT 51.935028 20.269623 16,200 255 359 2176
2018-10-15 19:47:55 GMT 51.937317 20.282822 16,000 255 358 2624
2018-10-15 19:47:52 GMT 51.938423 20.289473 15,900 255 358 2752
2018-10-15 19:47:49 GMT 51.939926 20.298233 15,750 255 359 2816
2018-10-15 19:47:46 GMT 51.941757 20.308762 15,550 255 359 2560
2018-10-15 19:47:43 GMT 51.944229 20.323029 15,400 255 359 2112
2018-10-15 19:47:39 GMT 51.944229 20.323029 15,350 255 358 1984
2018-10-15 19:47:36 GMT 51.946655 20.337219 15,200 255 357 1792
2018-10-15 19:47:33 GMT 51.947735 20.343462 15,100 255 355 1600
2018-10-15 19:47:29 GMT 51.948994 20.350525 15,050 255 353 1536
2018-10-15 19:47:25 GMT 51.950455 20.359192 14,950 255 351 1600
2018-10-15 19:47:22 GMT 51.952110 20.368889 14,825 255 349 1792
2018-10-15 19:47:19 GMT 51.953323 20.375950 14,775 255 348 1792
2018-10-15 19:47:14 GMT 51.955261 20.387192 14,650 255 346 1984
2018-10-15 19:47:09 GMT 51.957699 20.401533 14,450 255 344 2496
2018-10-15 19:47:03 GMT 51.960480 20.417786 14,225 255 344 3072
2018-10-15 19:46:58 GMT 51.962307 20.428606 14,000 255 344 3264
2018-10-15 19:46:53 GMT 51.964634 20.442339 13,625 255 346 3520
2018-10-15 19:46:48 GMT 51.967148 20.457170 13,350 255 348 3072
2018-10-15 19:46:42 GMT 51.968994 20.467987 13,100 255 349 2624
2018-10-15 19:46:39 GMT 51.971058 20.480164 12,925 255 348 2304
2018-10-15 19:46:33 GMT 51.973198 20.492720 12,650 255 346 1984
2018-10-15 19:46:28 GMT 51.975060 20.503941 12,525 255 344 1856
2018-10-15 19:46:25 GMT 51.976227 20.510769 12,525 255 344 1856
2018-10-15 19:46:22 GMT 51.977573 20.518694 12,300 255 341 1920
2018-10-15 19:46:18 GMT 51.980484 20.535965 12,250 255 337 2112
2018-10-15 19:46:15 GMT 51.980484 20.535965 12,175 255 336 2368
2018-10-15 19:46:12 GMT 51.982040 20.545349 12,025 255 336 2560
2018-10-15 19:46:06 GMT 51.984421 20.559311 11,825 255 334 2752
2018-10-15 19:46:00 GMT 51.986298 20.570602 11,575 255 334 2560
2018-10-15 19:45:55 GMT 51.988468 20.583513 11,350 255 332 2176
2018-10-15 19:45:50 GMT 51.990738 20.596771 11,175 255 330 1728
2018-10-15 19:45:44 GMT 51.992935 20.609970 11,025 255 325 1216
2018-10-15 19:45:40 GMT 51.994801 20.620947 10,925 255 321 896
2018-10-15 19:45:36 GMT 51.996288 20.629812 10,875 255 316 896
2018-10-15 19:45:28 GMT 51.998978 20.645752 10,775 255 306 832
2018-10-15 19:45:24 GMT 52.000896 20.656965 10,750 255 301 960
2018-10-15 19:45:18 GMT 52.002869 20.668564 10,625 255 293 1728
2018-10-15 19:45:13 GMT 52.004578 20.678860 10,475 255 289 2432
2018-10-15 19:45:07 GMT 52.006622 20.690918 10,225 255 286 3200
2018-10-15 19:45:03 GMT 52.008636 20.703125 9,975 255 287 2944
2018-10-15 19:44:57 GMT 52.010239 20.712585 9,725 255 286 2624
2018-10-15 19:44:52 GMT 52.012024 20.723198 9,500 255 285 2624
2018-10-15 19:44:47 GMT 52.014259 20.736616 9,250 255 283 2752
2018-10-15 19:44:41 GMT 52.015701 20.745012 9,100 255 282 2688
2018-10-15 19:44:36 GMT 52.017609 20.756302 8,875 255 280 2688
2018-10-15 19:44:31 GMT 52.019753 20.769026 8,550 255 278 2816
2018-10-15 19:44:26 GMT 52.021225 20.777817 8,425 255 277 2880
2018-10-15 19:44:22 GMT 52.022049 20.782471 8,150 255 275 3008
2018-10-15 19:44:19 GMT 52.023102 20.788801 8,050 255 274 3136
2018-10-15 19:44:15 GMT 52.024887 20.799408 7,775 255 274 3264
2018-10-15 19:44:09 GMT 52.026546 20.809126 7,500 255 273 3392
2018-10-15 19:44:04 GMT 52.028275 20.819244 7,100 255 274 3392
2018-10-15 19:43:59 GMT 52.030598 20.833218 6,850 256 273 3328
2018-10-15 19:43:53 GMT 52.032089 20.842554 6,600 258 274 3328
2018-10-15 19:43:50 GMT 52.032623 20.846863 6,475 260 273 3392
2018-10-15 19:43:46 GMT 52.033440 20.854639 6,250 265 274 3456
2018-10-15 19:43:42 GMT 52.033997 20.864920 6,025 268 274 3584
2018-10-15 19:43:39 GMT 52.034088 20.867746 5,900 269 275 3648
2018-10-15 19:43:36 GMT 52.034229 20.876064 5,650 269 275 3712
2018-10-15 19:43:33 GMT 52.034363 20.883942 5,425 268 276 3456
2018-10-15 19:43:30 GMT 52.034500 20.888824 5,300 267 275 3200
2018-10-15 19:43:25 GMT 52.035069 20.898430 5,050 260 274 2752
2018-10-15 19:43:22 GMT 52.036091 20.906199 4,875 252 271 2688
2018-10-15 19:43:19 GMT 52.036930 20.910357 4,800 249 270 2752
2018-10-15 19:43:15 GMT 52.039124 20.918655 4,600 240 266 2816
2018-10-15 19:43:12 GMT 52.040699 20.923071 4,500 234 264 2880
2018-10-15 19:43:09 GMT 52.043259 20.928877 4,300 229 262 2816
2018-10-15 19:43:03 GMT 52.047043 20.935898 4,125 225 260 2688
2018-10-15 19:42:58 GMT 52.052124 20.942764 3,875 216 257 1984
2018-10-15 19:42:52 GMT 52.057274 20.948809 3,700 216 257 1408
2018-10-15 19:42:49 GMT 52.065514 20.958462 3,575 217 259 1344
2018-10-15 19:42:45 GMT 52.065514 20.958462 3,525 217 259 1536
2018-10-15 19:42:42 GMT 52.067184 20.960464 3,475 217 258 1728
2018-10-15 19:42:37 GMT 52.072495 20.966702 3,325 217 253 1984
2018-10-15 19:42:32 GMT 52.077072 20.972214 3,175 217 245 1472
2018-10-15 19:42:27 GMT 52.082153 20.978241 3,025 216 237 1344
2018-10-15 19:42:21 GMT 52.087418 20.984421 2,900 216 229 1408
2018-10-15 19:42:18 GMT 52.090046 20.987341 2,825 215 223 1408
2018-10-15 19:42:10 GMT 52.096024 20.993881 2,675 212 213 704
2018-10-15 19:42:05 GMT 52.100418 20.998154 2,650 209 200 768
2018-10-15 19:42:00 GMT 52.104584 21.001816 2,575 206 192 1088
2018-10-15 19:41:55 GMT 52.108528 21.004761 2,475 199 184 960
2018-10-15 19:41:50 GMT 52.113228 21.006880 2,400 183 176 896
2018-10-15 19:41:46 GMT 52.116161 21.006958 2,350 172 172 896
2018-10-15 19:41:43 GMT 52.118500 21.006393 2,300 164 169 832
2018-10-15 19:41:38 GMT 52.121933 21.004410 2,250 153 163 960
2018-10-15 19:41:34 GMT 52.125366 21.001587 2,150 152 157 1024
2018-10-15 19:41:30 GMT 52.127426 20.999895 2,100 152 154 1024
2018-10-15 19:41:26 GMT 52.130360 20.997383 2,025 152 148 1408
2018-10-15 19:41:22 GMT 52.132084 20.995972 1,975 152 147 1792
2018-10-15 19:41:18 GMT 52.135117 20.993423 1,800 152 144 2944
2018-10-15 19:41:13 GMT 52.138042 20.990950 1,550 152 146 3200
2018-10-15 19:41:07 GMT 52.141392 20.988203 1,250 152 148 3392
2018-10-15 19:41:01 GMT 52.144650 20.985456 1,050 152 150 3392
2018-10-15 19:40:55 GMT 52.148254 20.982361 650 151 154 3008
2018-10-15 19:40:51 GMT 52.151184 20.979843 475 151 155 2816
2018-10-15 19:40:45 GMT 52.155033 20.976509 150 151 157 1152
2018-10-15 19:40:41 GMT 52.157253 20.974567 0 151 150
2018-10-15 19:40:35 GMT 52.161514 20.970860 0 151 130
2018-10-15 19:40:32 GMT 52.163246 20.969334 0 151 115
2018-10-15 19:40:24 GMT 52.166252 20.966721 0 151 84
2018-10-15 19:40:20 GMT 52.167473 20.965643 0 151 66
2018-10-15 19:40:11 GMT 52.169415 20.963936 0 151 23
2018-10-15 19:40:01 GMT 52.169838 20.963573 0 151 2
2018-10-15 19:39:50 GMT 52.169849 20.963562 0 151 0
2018-10-15 19:35:02 GMT 52.170849 20.965544 0 241 4
2018-10-15 19:34:57 GMT 52.170937 20.965748 0 241 10
2018-10-15 19:34:45 GMT 52.170849 20.966621 0 320 11
2018-10-15 19:34:33 GMT 52.170410 20.967045 0 331 10
2018-10-15 19:34:26 GMT 52.170101 20.967331 0 331 10
2018-10-15 19:34:11 GMT 52.169430 20.967916 0 331 12
2018-10-15 19:34:05 GMT 52.169163 20.968132 0 331 11
2018-10-15 19:33:54 GMT 52.168705 20.968552 0 331 10
2018-10-15 19:33:39 GMT 52.168064 20.969105 0 331 16
2018-10-15 19:33:32 GMT 52.167660 20.969467 0 331 17
2018-10-15 19:33:24 GMT 52.167034 20.970001 0 329 16
2018-10-15 19:33:16 GMT 52.166649 20.970566 0 295 15
2018-10-15 19:33:08 GMT 52.166451 20.971260 0 295 13
2018-10-15 19:33:05 GMT 52.166370 20.971546 0 295 12
2018-10-15 19:33:02 GMT 52.166309 20.971764 0 295 12
2018-10-15 19:32:51 GMT 52.166088 20.972507 0 295 9
2018-10-15 19:32:44 GMT 52.166065 20.972919 0 219 7
2018-10-15 19:32:41 GMT 52.166107 20.973015 0 210 6
2018-10-15 19:32:31 GMT 52.166302 20.973186 0 205 4
2018-10-15 19:31:59 GMT 52.166451 20.973293 0 205 0
2018-10-15 19:31:49 GMT 52.166451 20.973301 0 205 0
2018-10-15 19:31:30 GMT 52.166451 20.973293 0 205 0
2018-10-15 19:31:19 GMT 52.166451 20.973301 0 205 0
2018-10-15 19:30:34 GMT 52.166451 20.973293 0 205 0
2018-10-15 19:29:44 GMT 52.166451 20.973301 0 205 0
2018-10-15 19:29:34 GMT 52.166451 20.973293 0 205 0

Making use of Plane Finder data

You are free to use the raw flight data, aircraft information and images provided in this report for your own purposes provided the data is correctly attributed to Plane Finder. We ask that you please credit Plane Finder and link to planefinder.net in close proximity to the content.

Optionally one of the following logos (no smaller then 150x24px) can be used and must link to planefinder.net

Embedding the Plane Finder map

You are welcome to embed the Plane Finder playback map on your website to offer visitors a more interactive experience. We suggest using the following HTML code:

<iframe src="//planefinder.net/data/report/W61593-HA-LPT-7700-squawk-2018-10-15/map" width="800" height="600" seamless="seamless"></iframe>

Where our data comes from

Plane Finder has a global network of data feeds and antenna radars that receive data broadcast directly from aircraft. The primary technologies used are ADS-B and MLAT. We also show feeds from the FAA and a FLARM glider feed.

Click here to find out more about the Plane Finder network.

How we collect our data